[[{"header":{"parameterUnit":"m.s-1","parameterCategory":1,"la1":31.0,"la2":29.5877,"lo1":-88.7671,"lo2":-86.6584,"dy":0.0162,"dx":0.0185,"nx":115,"ny":88,"refTime":"2024-08-05T12:00:00:Z","depth":0,"parameterNumber":2,"parameterNumberName":"U-component_of_WINDS"},"data":[0.0,0.0,0.0,0.0,0.0,0.0,0.0,0.0,0.0,0.0,0.0,0.0,0.0,0.0,0.0,0.0,0.0,0.0,0.0,0.0,0.0,0.0,0.0,0.0,0.0,0.0,0.0,0.0,0.0,0.0,0.0,0.0,0.0,0.0,0.0,0.0,0.0,0.0,0.0,0.0,0.0,0.0,0.0,0.0,0.0,0.0,0.0,0.0,0.0,0.0,0.0,0.0,0.0,0.0,0.0,0.0,0.0,0.0,0.0,0.0,0.0,0.0,0.0,0.0,0.0,0.0,0.0,0.0,0.0,0.0,0.0,0.0,0.0,0.0,0.0,0.0,0.0,0.0,0.0,0.0,0.0,0.0,0.0,0.0,0.0,0.0,0.0,0.0,0.0,0.0,0.0,0.0,0.0,0.0,0.0,0.0,0.0,0.0,0.0,0.0,0.0,0.0,0.0,0.0,0.0,0.0,0.0,0.0,0.0,0.0,0.0,0.0,0.0,0.0,0.0,0.0,0.0,0.0,0.0,0.0,0.0,0.0,0.0,0.0,0.0,0.0,0.0,0.0,0.0,0.0,0.0,0.0,0.0,0.0,0.0,0.0,0.0,0.0,0.0,0.0,0.0,0.0,0.0,0.0,0.0,0.0,0.0,0.0,0.0,0.0,0.0,0.0,0.0,0.0,0.0,0.0,0.0,0.0,0.0,0.0,0.0,0.0,0.0,0.0,0.0,0.0,0.0,0.0,0.0,0.0,0.0,0.0,0.0,0.0,0.0,0.0,0.0,0.0,0.0,0.0,0.0,0.0,0.0,0.0,0.0,0.0,0.0,0.0,0.0,0.0,0.0,0.0,0.0,0.0,0.0,0.0,0.0,0.0,0.0,0.0,0.0,0.0,0.0,0.0,0.0,0.0,0.0,0.0,0.0,0.0,0.0,0.0,0.0,0.0,0.0,0.0,0.0,0.0,0.0,0.0,0.0,0.0,0.0,0.0,0.0,0.0,0.0,0.0,0.0,0.0,0.0,0.0,0.0,0.0,0.0,0.0,0.0,0.0,0.0,0.0,0.0,0.0,0.0,0.0,0.0,0.0,0.0,0.0,0.0,0.0,0.0,0.0,0.0,0.0,0.0,0.0,0.0,0.0,0.0,0.0,0.0,0.0,0.0,0.0,0.0,0.0,0.0,0.0,0.0,0.0,0.0,0.0,0.0,0.0,0.0,0.0,0.0,0.0,0.0,0.0,0.0,0.0,0.0,0.0,0.0,0.0,0.0,0.0,0.0,0.0,0.0,0.0,0.0,0.0,0.0,0.0,0.0,0.0,0.0,0.0,0.0,0.0,0.0,0.0,0.0,0.0,0.0,0.0,0.0,0.0,0.0,0.0,0.0,0.0,0.0,0.0,0.0,0.0,0.0,0.0,0.0,0.0,0.0,0.0,0.0,0.0,0.0,0.0,0.0,0.0,0.0,0.0,0.0,0.0,0.0,0.0,0.0,0.0,0.0,0.0,0.0,0.0,0.0,0.0,0.0,0.0,0.0,0.0,0.0,0.0,0.0,0.0,0.0,0.0,0.0,0.0,0.0,0.0,0.0,0.0,0.0,0.0,0.0,0.0,0.0,0.0,0.0,0.0,0.0,0.0,0.0,0.0,0.0,0.0,0.0,0.0,0.0,0.0,0.0,0.0,0.0,0.0,0.0,0.0,0.0,0.0,0.0,0.0,0.0,0.0,0.0,0.0,0.0,0.0,0.0,0.0,0.0,0.0,0.0,0.0,0.0,0.0,0.0,0.0,0.0,0.0,0.0,0.0,0.0,0.0,0.0,0.0,0.0,0.0,0.0,0.0,0.0,0.0,0.0,0.0,0.0,0.0,0.0,0.0,0.0,0.0,0.0,0.0,0.0,0.0,0.0,0.0,0.0,0.0,0.0,0.0,0.0,0.0,0.0,0.0,0.0,0.0,0.0,0.0,0.0,0.0,0.0,0.0,0.0,0.0,0.0,0.0,0.0,0.0,0.0,0.0,0.0,0.0,0.0,0.0,0.0,0.0,0.0,0.0,0.0,0.0,0.0,0.0,0.0,0.0,0.0,0.0,0.0,0.0,0.0,0.0,0.0,0.0,0.0,0.0,0.0,0.0,0.0,0.0,0.0,0.0,0.0,0.0,0.0,0.0,0.0,0.0,0.0,0.0,0.0,0.0,0.0,0.0,0.0,0.0,0.0,0.0,0.0,0.0,0.0,0.0,0.0,0.0,0.0,0.0,0.0,0.0,0.0,0.0,0.0,0.0,0.0,0.0,0.0,0.0,0.0,0.0,0.0,0.0,0.0,0.0,0.0,0.0,0.0,0.0,0.0,0.0,0.0,0.0,0.0,0.0,0.0,0.0,0.0,0.0,0.0,0.0,0.0,0.0,0.0,0.0,0.0,0.0,0.0,0.0,0.0,0.0,0.0,0.0,0.0,0.0,0.0,0.0,0.0,0.0,0.0,0.0,0.0,0.0,0.0,0.0,0.0,0.0,0.0,0.0,0.0,0.0,0.0,0.0,0.0,0.0,0.0,0.0,0.0,0.0,0.0,0.0,0.0,0.0,0.0,0.0,0.0,0.0,0.0,0.0,0.0,0.0,0.0,0.0,0.0,0.0,0.0,0.0,0.0,0.0,0.0,0.0,0.0,0.0,0.0,0.0,0.0,0.0,0.0,0.0,0.0,0.0,0.0,0.0,0.0,0.0,0.0,0.0,0.0,0.0,0.0,0.0,0.0,0.0,0.0,0.0,0.0,0.0,0.0,0.0,0.0,0.0,0.0,0.0,0.0,0.0,0.0,0.0,0.0,0.0,0.0,0.0,0.0,0.0,0.0,0.0,0.0,0.0,0.0,0.0,0.0,0.0,0.0,0.0,0.0,0.0,0.0,0.0,0.0,0.0,0.0,0.0,0.0,0.0,0.0,0.0,0.0,0.0,0.0,0.0,0.0,0.0,0.0,0.0,0.0,0.0,0.0,0.0,0.0,0.0,0.0,0.0,0.0,0.0,0.0,0.0,0.0,0.0,0.0,0.0,0.0,0.0,0.0,0.0,0.0,0.0,0.0,0.0,0.0,0.0,0.0,0.0,0.0,0.0,0.0,0.0,0.0,0.0,0.0,0.0,0.0,0.0,0.0,0.0,0.0,0.0,0.0,0.0,0.0,0.0,0.0,0.0,0.0,0.0,0.0,0.0,0.0,0.0,0.0,0.0,0.0,0.0,0.0,0.0,0.0,0.0,0.0,0.0,0.0,0.0,0.0,0.0,0.0,0.0,0.0,0.0,0.0,0.0,0.0,0.0,0.0,0.0,0.0,0.0,0.0,0.0,0.0,0.0,0.0,0.0,0.0,0.0,0.0,0.0,0.0,0.0,0.0,0.0,0.0,0.0,0.0,0.0,0.0,0.0,0.0,0.0,0.0,0.0,0.0,0.0,0.0,0.0,0.0,0.0,0.0,0.0,0.0,0.0,0.0,0.0,0.0,0.0,0.0,0.0,0.0,0.0,0.0,0.0,0.0,0.0,0.0,0.0,0.0,0.0,0.0,0.0,0.0,0.0,0.0,0.0,0.0,0.0,0.0,0.0,0.0,0.0,0.0,0.0,0.0,0.0,0.0,0.0,0.0,0.0,0.0,0.0,0.0,0.0,0.0,0.0,0.0,0.0,0.0,0.0,0.0,0.0,0.0,0.0,0.0,0.0,0.0,0.0,0.0,0.0,0.0,0.0,0.0,0.0,0.0,0.0,0.0,0.0,0.0,0.0,0.0,0.0,0.0,0.0,0.0,0.0,0.0,0.0,0.0,0.0,0.0,0.0,0.0,0.0,0.0,0.0,0.0,0.0,0.0,0.0,0.0,0.0,0.0,0.0,0.0,0.0,0.0,0.0,0.0,0.0,0.0,0.0,0.0,0.0,0.0,0.0,0.0,0.0,0.0,0.0,0.0,0.0,0.0,0.0,0.0,0.0,0.0,0.0,0.0,0.0,0.0,0.0,0.0,0.0,0.0,0.0,0.0,0.0,0.0,0.0,0.0,0.0,0.0,0.0,0.0,0.0,0.0,0.0,0.0,0.0,0.0,0.0,0.0,0.0,0.0,0.0,0.0,0.0,0.0,0.0,0.0,0.0,0.0,0.0,0.0,0.0,0.0,0.0,0.0,0.0,0.0,0.0,0.0,0.0,0.0,0.0,0.0,0.0,0.0,0.0,0.0,0.0,0.0,0.0,0.0,0.0,0.0,0.0,0.0,0.0,0.0,0.0,2.5264,0.0,0.0,0.0,0.0,0.0,0.0,0.0,0.0,0.0,0.0,0.0,0.0,0.0,0.0,0.0,0.0,0.0,0.0,0.0,0.0,0.0,0.0,0.0,0.0,0.0,0.0,0.0,0.0,0.0,0.0,0.0,0.0,0.0,0.0,0.0,0.0,0.0,0.0,0.0,0.0,0.0,0.0,0.0,0.0,0.0,0.0,0.0,0.0,0.0,0.0,0.0,0.0,0.0,0.0,0.0,0.0,0.0,0.0,0.0,0.0,0.0,0.0,0.0,0.0,0.0,0.0,0.0,0.0,0.0,0.0,0.0,0.0,0.0,0.0,0.0,0.0,0.0,0.0,0.0,0.0,0.0,0.0,0.0,0.0,0.0,0.0,0.0,0.0,0.0,0.0,0.0,0.0,0.0,0.0,0.0,0.0,0.0,0.0,0.0,0.0,0.0,0.0,0.0,0.0,0.0,0.0,0.0,0.0,0.0,0.0,2.5313,2.5313,2.5313,2.5313,2.5313,0.0,0.0,0.0,0.0,0.0,0.0,0.0,0.0,0.0,0.0,0.0,0.0,0.0,0.0,0.0,0.0,0.0,0.0,0.0,0.0,0.0,0.0,0.0,0.0,0.0,0.0,0.0,0.0,0.0,0.0,0.0,0.0,0.0,0.0,0.0,0.0,0.0,0.0,0.0,0.0,0.0,0.0,0.0,0.0,0.0,0.0,0.0,0.0,0.0,0.0,0.0,0.0,0.0,0.0,0.0,0.0,0.0,0.0,0.0,0.0,0.0,0.0,0.0,0.0,0.0,0.0,0.0,0.0,0.0,0.0,0.0,0.0,0.0,0.0,0.0,0.0,0.0,0.0,0.0,0.0,0.0,0.0,0.0,0.0,0.0,0.0,0.0,0.0,0.0,0.0,0.0,0.0,0.0,0.0,0.0,0.0,0.0,0.0,0.0,0.0,0.0,0.0,0.0,0.0,0.0,0.0,0.0,0.0,0.0,0.0,0.0,0.0,2.6187,2.6177,2.6159,0.0,0.0,0.0,0.0,0.0,0.0,0.0,0.0,0.0,0.0,0.0,0.0,0.0,0.0,0.0,0.0,0.0,0.0,0.0,0.0,0.0,0.0,0.0,0.0,0.0,0.0,0.0,0.0,0.0,0.0,0.0,0.0,0.0,0.0,0.0,0.0,0.0,0.0,0.0,0.0,0.0,0.0,0.0,0.0,0.0,0.0,0.0,0.0,0.0,0.0,0.0,0.0,0.0,0.0,0.0,0.0,0.0,0.0,0.0,0.0,0.0,0.0,0.0,0.0,0.0,0.0,0.0,0.0,0.0,0.0,0.0,0.0,0.0,0.0,0.0,0.0,0.0,0.0,0.0,0.0,0.0,0.0,0.0,0.0,0.0,0.0,0.0,0.0,0.0,0.0,0.0,0.0,0.0,0.0,0.0,0.0,0.0,0.0,0.0,0.0,0.0,0.0,0.0,0.0,0.0,0.0,0.0,0.0,0.0,0.0,2.642,2.8666,2.8741,0.0,2.8775,0.0,0.0,0.0,0.0,0.0,0.0,0.0,0.0,0.0,0.0,0.0,0.0,0.0,0.0,0.0,0.0,0.0,0.0,0.0,0.0,0.0,0.0,0.0,0.0,0.0,0.0,0.0,0.0,0.0,0.0,0.0,0.0,0.0,0.0,0.0,0.0,0.0,0.0,0.0,0.0,0.0,0.0,0.0,0.0,0.0,0.0,0.0,0.0,0.0,0.0,0.0,0.0,0.0,0.0,0.0,0.0,0.0,0.0,0.0,0.0,0.0,0.0,0.0,0.0,0.0,0.0,0.0,0.0,0.0,0.0,0.0,0.0,0.0,0.0,0.0,0.0,0.0,0.0,0.0,0.0,0.0,0.0,0.0,0.0,0.0,0.0,0.0,0.0,0.0,0.0,0.0,0.0,0.0,0.0,0.0,0.0,0.0,0.0,0.0,0.0,0.0,0.0,0.0,0.0,0.0,0.0,0.0,0.0,0.0,0.0,2.8056,2.9062,2.9125,2.9116,0.0,0.0,0.0,0.0,0.0,0.0,0.0,0.0,0.0,0.0,0.0,0.0,0.0,0.0,0.0,0.0,0.0,0.0,0.0,0.0,0.0,0.0,0.0,0.0,0.0,0.0,0.0,0.0,0.0,0.0,0.0,0.0,0.0,0.0,0.0,0.0,0.0,0.0,0.0,0.0,0.0,0.0,0.0,0.0,0.0,0.0,0.0,0.0,0.0,0.0,0.0,0.0,0.0,0.0,0.0,0.0,0.0,0.0,0.0,0.0,0.0,0.0,0.0,0.0,0.0,0.0,0.0,0.0,0.0,0.0,0.0,0.0,0.0,0.0,0.0,0.0,0.0,0.0,0.0,0.0,0.0,0.0,0.0,0.0,0.0,0.0,0.0,0.0,0.0,0.0,0.0,0.0,0.0,0.0,0.0,0.0,0.0,0.0,0.0,0.0,0.0,0.0,0.0,0.0,0.0,0.0,0.0,0.0,0.0,0.0,2.8262,2.9436,3.0083,3.0152,2.9819,2.911,0.0,0.0,0.0,0.0,0.0,0.0,0.0,0.0,0.0,0.0,0.0,0.0,0.0,0.0,0.0,0.0,0.0,0.0,0.0,0.0,0.0,0.0,0.0,0.0,0.0,0.0,0.0,0.0,0.0,0.0,0.0,0.0,0.0,0.0,0.0,0.0,0.0,0.0,0.0,0.0,0.0,0.0,0.0,0.0,0.0,0.0,0.0,0.0,0.0,0.0,0.0,0.0,0.0,0.0,0.0,0.0,0.0,0.0,0.0,0.0,0.0,0.0,0.0,0.0,0.0,0.0,0.0,0.0,0.0,0.0,0.0,0.0,0.0,0.0,0.0,0.0,0.0,0.0,0.0,0.0,0.0,0.0,0.0,0.0,0.0,0.0,0.0,0.0,0.0,0.0,0.0,0.0,0.0,0.0,0.0,0.0,0.0,0.0,0.0,0.0,0.0,0.0,0.0,0.0,0.0,0.0,0.0,0.0,0.0,2.9413,3.0263,3.2607,3.273,3.1604,0.0,0.0,0.0,0.0,0.0,0.0,0.0,0.0,0.0,0.0,0.0,0.0,0.0,0.0,0.0,0.0,0.0,0.0,0.0,0.0,0.0,0.0,0.0,0.0,0.0,0.0,0.0,0.0,0.0,0.0,0.0,0.0,0.0,0.0,0.0,0.0,0.0,0.0,0.0,0.0,0.0,0.0,0.0,0.0,0.0,0.0,0.0,0.0,0.0,0.0,0.0,0.0,0.0,0.0,0.0,0.0,0.0,0.0,0.0,0.0,0.0,0.0,0.0,0.0,0.0,0.0,0.0,0.0,0.0,0.0,0.0,0.0,0.0,0.0,0.0,0.0,0.0,0.0,0.0,0.0,0.0,0.0,0.0,0.0,0.0,0.0,0.0,0.0,0.0,0.0,0.0,0.0,0.0,0.0,0.0,0.0,0.0,0.0,0.0,0.0,0.0,0.0,0.0,0.0,0.0,0.0,0.0,0.0,0.0,2.7089,2.8395,3.1107,3.5005,3.2196,3.0777,0.0,0.0,0.0,0.0,0.0,0.0,0.0,0.0,0.0,0.0,0.0,0.0,0.0,0.0,0.0,0.0,0.0,0.0,0.0,0.0,0.0,0.0,0.0,0.0,0.0,0.0,0.0,0.0,0.0,0.0,0.0,0.0,0.0,0.0,0.0,0.0,0.0,0.0,0.0,0.0,0.0,0.0,0.0,0.0,0.0,0.0,0.0,0.0,0.0,0.0,0.0,0.0,0.0,0.0,0.0,0.0,0.0,0.0,0.0,0.0,0.0,0.0,0.0,0.0,0.0,0.0,0.0,0.0,0.0,0.0,0.0,0.0,0.0,0.0,0.0,0.0,0.0,0.0,0.0,0.0,0.0,0.0,0.0,0.0,0.0,0.0,0.0,0.0,0.0,0.0,0.0,0.0,0.0,0.0,0.0,0.0,0.0,0.0,0.0,0.0,0.0,0.0,0.0,0.0,0.0,0.0,0.0,0.0,0.0,2.7759,0.0,3.2837,0.0,3.2153,3.0386,0.0,0.0,0.0,0.0,0.0,0.0,0.0,0.0,0.0,0.0,0.0,0.0,0.0,0.0,0.0,0.0,0.0,0.0,0.0,0.0,0.0,0.0,0.0,0.0,0.0,0.0,0.0,0.0,0.0,0.0,0.0,0.0,0.0,0.0,0.0,0.0,0.0,0.0,0.0,0.0,0.0,0.0,0.0,0.0,0.0,0.0,0.0,0.0,0.0,0.0,0.0,0.0,0.0,0.0,0.0,0.0,0.0,0.0,0.0,0.0,0.0,0.0,0.0,0.0,0.0,0.0,0.0,0.0,0.0,0.0,0.0,0.0,0.0,0.0,0.0,0.0,0.0,0.0,0.0,0.0,0.0,0.0,0.0,0.0,0.0,0.0,0.0,0.0,0.0,0.0,0.0,0.0,0.0,0.0,0.0,0.0,0.0,0.0,0.0,0.0,0.0,0.0,0.0,0.0,0.0,0.0,0.0,0.0,2.7798,3.2532,3.5056,3.521,3.3083,3.2771,3.0467,0.0,0.0,0.0,0.0,0.0,0.0,0.0,0.0,0.0,0.0,0.0,0.0,0.0,0.0,0.0,0.0,0.0,0.0,0.0,0.0,0.0,0.0,0.0,0.0,0.0,0.0,0.0,0.0,0.0,0.0,0.0,0.0,0.0,0.0,0.0,0.0,0.0,0.0,0.0,0.0,0.0,0.0,0.0,0.0,0.0,0.0,0.0,0.0,0.0,0.0,0.0,0.0,0.0,0.0,0.0,0.0,0.0,0.0,0.0,0.0,0.0,0.0,0.0,0.0,0.0,0.0,0.0,0.0,0.0,0.0,0.0,0.0,0.0,0.0,0.0,0.0,0.0,0.0,0.0,0.0,0.0,0.0,0.0,0.0,0.0,0.0,0.0,0.0,0.0,0.0,0.0,0.0,0.0,0.0,0.0,0.0,0.0,0.0,0.0,0.0,0.0,0.0,0.0,0.0,0.0,0.0,0.0,0.0,0.0,2.9497,3.1943,3.3968,3.5315,3.1569,3.0094,0.0,0.0,0.0,0.0,0.0,0.0,0.0,0.0,0.0,0.0,0.0,0.0,0.0,0.0,0.0,0.0,0.0,0.0,0.0,0.0,0.0,0.0,0.0,0.0,0.0,0.0,0.0,0.0,0.0,0.0,0.0,0.0,0.0,0.0,0.0,0.0,0.0,0.0,0.0,0.0,0.0,0.0,0.0,0.0,0.0,0.0,0.0,0.0,0.0,0.0,0.0,0.0,0.0,0.0,0.0,0.0,0.0,0.0,0.0,0.0,0.0,0.0,0.0,0.0,0.0,0.0,0.0,0.0,0.0,0.0,0.0,0.0,0.0,0.0,0.0,0.0,0.0,0.0,0.0,0.0,0.0,0.0,0.0,0.0,0.0,0.0,0.0,0.0,0.0,0.0,0.0,0.0,0.0,0.0,0.0,0.0,0.0,0.0,0.0,0.0,0.0,0.0,0.0,0.0,0.0,0.0,0.0,0.0,0.0,3.0937,3.3834,3.5853,3.668,3.2801,3.1075,3.1748,0.0,0.0,0.0,0.0,0.0,0.0,0.0,0.0,0.0,0.0,0.0,0.0,0.0,0.0,0.0,0.0,0.0,0.0,0.0,0.0,0.0,0.0,0.0,0.0,0.0,0.0,0.0,0.0,0.0,0.0,0.0,0.0,0.0,0.0,0.0,0.0,0.0,0.0,0.0,0.0,0.0,0.0,0.0,0.0,0.0,0.0,0.0,0.0,0.0,0.0,0.0,0.0,0.0,0.0,0.0,0.0,0.0,0.0,0.0,0.0,0.0,0.0,0.0,0.0,0.0,0.0,0.0,0.0,0.0,0.0,0.0,0.0,0.0,0.0,0.0,0.0,0.0,0.0,0.0,0.0,0.0,0.0,0.0,0.0,0.0,0.0,0.0,0.0,0.0,0.0,0.0,0.0,0.0,0.0,0.0,0.0,0.0,0.0,0.0,0.0,0.0,0.0,0.0,0.0,0.0,0.0,0.0,0.0,3.5707,3.9792,4.0314,3.7137,3.5926,3.3173,0.0,0.0,0.0,0.0,0.0,0.0,0.0,0.0,0.0,0.0,0.0,0.0,0.0,0.0,0.0,0.0,0.0,0.0,0.0,0.0,0.0,0.0,0.0,0.0,0.0,0.0,0.0,0.0,0.0,0.0,0.0,0.0,0.0,0.0,0.0,0.0,0.0,0.0,0.0,0.0,0.0,0.0,0.0,0.0,0.0,0.0,0.0,0.0,0.0,0.0,0.0,0.0,0.0,0.0,0.0,0.0,0.0,0.0,0.0,0.0,0.0,0.0,0.0,0.0,0.0,0.0,0.0,0.0,0.0,0.0,0.0,0.0,0.0,0.0,0.0,0.0,0.0,0.0,0.0,0.0,0.0,0.0,0.0,0.0,0.0,0.0,0.0,0.0,0.0,0.0,0.0,0.0,0.0,0.0,0.0,0.0,0.0,0.0,0.0,0.0,0.0,0.0,0.0,0.0,0.0,0.0,0.0,0.0,0.0,3.8333,4.18,4.2601,4.0482,3.6608,3.3942,0.0,0.0,0.0,0.0,0.0,0.0,0.0,0.0,0.0,0.0,0.0,0.0,0.0,0.0,0.0,0.0,0.0,0.0,0.0,0.0,0.0,0.0,0.0,0.0,0.0,0.0,0.0,0.0,0.0,0.0,0.0,0.0,0.0,0.0,0.0,0.0,0.0,0.0,0.0,0.0,0.0,0.0,0.0,0.0,0.0,0.0,0.0,0.0,0.0,0.0,0.0,0.0,0.0,0.0,0.0,0.0,0.0,0.0,0.0,0.0,0.0,0.0,0.0,0.0,0.0,0.0,0.0,0.0,0.0,0.0,0.0,0.0,0.0,0.0,0.0,0.0,0.0,0.0,0.0,0.0,0.0,0.0,0.0,0.0,0.0,0.0,0.0,0.0,0.0,0.0,0.0,0.0,0.0,0.0,0.0,0.0,0.0,0.0,0.0,0.0,0.0,0.0,0.0,0.0,0.0,0.0,0.0,0.0,3.741,4.0304,4.3282,4.4201,4.2902,3.9323,3.6177,0.0,0.0,0.0,0.0,0.0,0.0,0.0,0.0,0.0,0.0,0.0,0.0,0.0,0.0,0.0,0.0,0.0,0.0,0.0,0.0,0.0,0.0,0.0,0.0,0.0,0.0,0.0,0.0,0.0,0.0,0.0,0.0,0.0,0.0,0.0,0.0,0.0,0.0,0.0,0.0,0.0,0.0,0.0,0.0,0.0,0.0,0.0,0.0,0.0,0.0,0.0,0.0,0.0,0.0,0.0,0.0,0.0,0.0,0.0,0.0,0.0,0.0,0.0,0.0,0.0,0.0,0.0,0.0,0.0,0.0,0.0,0.0,0.0,0.0,0.0,0.0,0.0,0.0,0.0,0.0,0.0,0.0,0.0,0.0,0.0,0.0,0.0,0.0,0.0,0.0,0.0,0.0,0.0,0.0,0.0,0.0,0.0,0.0,0.0,0.0,0.0,0.0,0.0,0.0,0.0,0.0,0.0,0.0,3.8593,4.1869,4.432,4.524,4.4435,4.2667,3.9022,0.0,0.0,0.0,0.0,0.0,0.0,0.0,0.0,0.0,0.0,0.0,0.0,0.0,0.0,0.0,0.0,0.0,0.0,0.0,0.0,0.0,0.0,0.0,0.0,0.0,0.0,0.0,0.0,0.0,0.0,0.0,0.0,0.0,0.0,0.0,0.0,0.0,0.0,0.0,0.0,0.0,0.0,0.0,0.0,0.0,0.0,0.0,0.0,0.0,0.0,0.0,0.0,0.0,0.0,0.0,0.0,0.0,0.0,0.0,0.0,0.0,0.0,0.0,0.0,0.0,0.0,0.0,0.0,0.0,0.0,0.0,0.0,0.0,0.0,0.0,0.0,0.0,0.0,0.0,0.0,0.0,0.0,0.0,0.0,0.0,0.0,0.0,0.0,0.0,0.0,0.0,0.0,0.0,0.0,0.0,0.0,0.0,0.0,0.0,0.0,0.0,0.0,0.0,0.0,0.0,0.0,0.0,0.0,4.0069,4.2748,4.4645,4.5509,4.5316,4.2343,3.8946,0.0,0.0,0.0,0.0,0.0,0.0,0.0,0.0,0.0,0.0,0.0,0.0,0.0,0.0,0.0,0.0,0.0,0.0,0.0,0.0,0.0,0.0,0.0,0.0,0.0,0.0,0.0,0.0,0.0,0.0,0.0,0.0,0.0,0.0,0.0,0.0,0.0,0.0,0.0,0.0,0.0,0.0,0.0,0.0,0.0,0.0,0.0,0.0,2.5079,0.0,0.0,0.0,0.0,0.0,0.0,0.0,0.0,0.0,0.0,0.0,0.0,0.0,0.0,0.0,0.0,0.0,0.0,0.0,0.0,0.0,0.0,0.0,0.0,0.0,0.0,0.0,0.0,0.0,0.0,0.0,0.0,0.0,0.0,0.0,0.0,0.0,0.0,0.0,0.0,0.0,0.0,0.0,0.0,0.0,0.0,0.0,0.0,0.0,0.0,0.0,0.0,0.0,0.0,0.0,0.0,0.0,0.0,0.0,4.1107,4.3611,4.4914,4.5586,4.5509,4.3052,3.9938,0.0,0.0,0.0,0.0,0.0,0.0,0.0,0.0,0.0,0.0,0.0,0.0,0.0,0.0,0.0,0.0,0.0,0.0,0.0,0.0,0.0,0.0,0.0,0.0,0.0,0.0,0.0,0.0,0.0,0.0,0.0,0.0,0.0,0.0,0.0,0.0,0.0,0.0,0.0,0.0,0.0,0.0,0.0,0.0,0.0,0.0,0.0,0.0,0.0,0.0,0.0,0.0,0.0,0.0,0.0,0.0,0.0,0.0,0.0,0.0,0.0,0.0,0.0,0.0,0.0,0.0,0.0,0.0,0.0,0.0,0.0,0.0,0.0,0.0,0.0,0.0,0.0,0.0,0.0,0.0,0.0,0.0,0.0,0.0,0.0,0.0,0.0,0.0,0.0,0.0,0.0,0.0,0.0,0.0,0.0,0.0,0.0,0.0,0.0,0.0,0.0,0.0,0.0,0.0,0.0,0.0,0.0,3.8383,4.1546,4.4376,4.524,4.5586,4.5586,4.397,4.1101,3.6895,0.0,0.0,0.0,0.0,0.0,0.0,0.0,0.0,0.0,0.0,0.0,0.0,0.0,0.0,0.0,0.0,0.0,0.0,0.0,0.0,0.0,0.0,0.0,0.0,0.0,0.0,0.0,0.0,0.0,0.0,0.0,0.0,0.0,0.0,0.0,0.0,0.0,0.0,2.4721,2.5548,0.0,0.0,0.0,0.0,0.0,0.0,0.0,0.0,2.5678,0.0,0.0,0.0,0.0,0.0,0.0,0.0,0.0,0.0,0.0,0.0,0.0,0.0,0.0,0.0,0.0,0.0,0.0,0.0,0.0,0.0,0.0,0.0,0.0,0.0,0.0,0.0,0.0,0.0,0.0,0.0,0.0,0.0,0.0,0.0,0.0,0.0,0.0,0.0,0.0,0.0,0.0,0.0,0.0,0.0,0.0,0.0,0.0,0.0,0.0,0.0,0.0,0.0,0.0,0.0,0.0,3.8377,3.843,4.0662,4.524,4.5509,4.5586,4.5547,4.397,4.1078,3.691,0.0,0.0,0.0,0.0,0.0,0.0,0.0,0.0,0.0,0.0,0.0,0.0,0.0,0.0,0.0,0.0,0.0,0.0,0.0,0.0,0.0,0.0,0.0,0.0,0.0,0.0,0.0,0.0,0.0,0.0,0.0,0.0,0.0,0.0,0.0,0.0,0.0,0.0,0.0,2.8476,2.9329,0.0,0.0,0.0,0.0,0.0,0.0,0.0,0.0,2.5858,0.0,0.0,0.0,0.0,0.0,0.0,0.0,0.0,0.0,0.0,0.0,0.0,0.0,0.0,0.0,0.0,0.0,0.0,0.0,0.0,0.0,0.0,0.0,0.0,0.0,0.0,0.0,0.0,0.0,0.0,0.0,0.0,0.0,0.0,0.0,0.0,0.0,0.0,0.0,0.0,0.0,0.0,0.0,0.0,0.0,0.0,0.0,0.0,0.0,0.0,0.0,0.0,0.0,0.0,0.0,3.7167,3.9514,4.2239,4.547,4.5586,4.5586,4.5509,4.2694,3.9735,0.0,0.0,0.0,0.0,0.0,0.0,0.0,0.0,0.0,0.0,0.0,0.0,0.0,0.0,0.0,0.0,0.0,0.0,0.0,0.0,0.0,0.0,0.0,0.0,0.0,0.0,0.0,0.0,0.0,0.0,0.0,0.0,0.0,0.0,0.0,0.0,0.0,0.0,0.0,0.0,2.9465,3.0356,3.0797,0.0,0.0,0.0,0.0,0.0,0.0,2.742,2.6899,0.0,0.0,0.0,0.0,0.0,0.0,0.0,0.0,0.0,0.0,0.0,0.0,0.0,0.0,0.0,0.0,0.0,0.0,0.0,0.0,0.0,0.0,0.0,0.0,0.0,0.0,0.0,0.0,0.0,0.0,0.0,0.0,0.0,0.0,0.0,0.0,0.0,0.0,0.0,0.0,0.0,0.0,0.0,0.0,0.0,0.0,0.0,0.0,0.0,0.0,0.0,0.0,0.0,0.0,0.0,3.557,4.002,4.341,4.547,4.5586,4.5586,4.5509,4.2017,3.8915,0.0,0.0,0.0,0.0,0.0,0.0,0.0,0.0,0.0,0.0,0.0,0.0,0.0,0.0,0.0,0.0,0.0,0.0,0.0,0.0,0.0,0.0,0.0,0.0,0.0,0.0,0.0,0.0,0.0,0.0,0.0,0.0,0.0,0.0,0.0,0.0,0.0,0.0,0.0,0.0,0.0,3.1531,3.2525,3.1519,0.0,0.0,0.0,0.0,2.92,2.8991,0.0,0.0,0.0,0.0,0.0,0.0,0.0,0.0,0.0,0.0,0.0,0.0,0.0,0.0,0.0,0.0,0.0,0.0,0.0,0.0,0.0,0.0,0.0,0.0,0.0,0.0,0.0,0.0,0.0,0.0,0.0,0.0,0.0,0.0,0.0,0.0,0.0,0.0,0.0,0.0,0.0,0.0,0.0,0.0,0.0,0.0,0.0,0.0,0.0,0.0,0.0,0.0,0.0,0.0,0.0,0.0,3.5405,3.8271,4.1655,4.5355,4.5586,4.5586,4.5547,4.3662,4.0444,0.0,0.0,0.0,0.0,0.0,0.0,0.0,0.0,0.0,0.0,0.0,0.0,0.0,0.0,0.0,0.0,0.0,0.0,0.0,0.0,0.0,0.0,0.0,0.0,0.0,0.0,0.0,0.0,0.0,0.0,0.0,0.0,0.0,0.0,0.0,0.0,0.0,0.0,0.0,0.0,0.0,3.4071,3.3091,3.2564,3.2559,0.0,0.0,3.1719,3.382,3.2967,0.0,0.0,0.0,0.0,0.0,0.0,0.0,0.0,0.0,0.0,0.0,0.0,0.0,0.0,0.0,0.0,0.0,0.0,0.0,0.0,0.0,0.0,0.0,0.0,0.0,0.0,0.0,0.0,0.0,0.0,0.0,0.0,0.0,0.0,0.0,0.0,0.0,0.0,0.0,0.0,0.0,0.0,0.0,0.0,0.0,0.0,0.0,0.0,0.0,0.0,0.0,0.0,0.0,0.0,0.0,3.2644,3.5577,3.9455,4.281,4.547,4.5586,4.5586,4.5586,4.2107,3.8762,0.0,0.0,0.0,0.0,0.0,0.0,0.0,0.0,0.0,0.0,0.0,0.0,0.0,0.0,0.0,0.0,0.0,0.0,0.0,0.0,0.0,0.0,0.0,0.0,0.0,0.0,0.0,0.0,0.0,0.0,0.0,0.0,0.0,0.0,0.0,0.0,0.0,0.0,0.0,0.0,0.0,0.0,3.4913,3.5174,0.0,0.0,0.0,3.4352,3.4918,0.0,0.0,0.0,0.0,0.0,0.0,0.0,0.0,0.0,0.0,0.0,0.0,0.0,0.0,0.0,0.0,0.0,0.0,0.0,0.0,0.0,0.0,0.0,0.0,0.0,0.0,0.0,0.0,0.0,0.0,0.0,0.0,0.0,0.0,0.0,0.0,0.0,0.0,0.0,0.0,0.0,0.0,0.0,0.0,0.0,0.0,0.0,0.0,0.0,0.0,0.0,0.0,0.0,0.0,0.0,0.0,0.0,3.565,4.0549,4.391,4.5526,4.5586,4.5586,4.5509,4.1261,0.0,0.0,0.0,0.0,0.0,0.0,0.0,0.0,0.0,0.0,0.0,0.0,0.0,0.0,0.0,0.0,0.0,0.0,0.0,0.0,0.0,0.0,0.0,0.0,0.0,0.0,0.0,2.0748,0.0,0.0,0.0,0.0,0.0,0.0,0.0,0.0,0.0,0.0,0.0,0.0,0.0,0.0,3.6102,3.6592,3.75,3.7955,0.0,0.0,3.698,3.6352,3.6229,3.5162,0.0,0.0,0.0,0.0,0.0,0.0,0.0,0.0,0.0,0.0,0.0,0.0,0.0,0.0,0.0,0.0,0.0,0.0,0.0,0.0,0.0,0.0,0.0,0.0,0.0,0.0,0.0,0.0,0.0,0.0,0.0,0.0,0.0,0.0,0.0,0.0,0.0,0.0,0.0,0.0,0.0,0.0,0.0,0.0,0.0,0.0,0.0,0.0,0.0,0.0,0.0,0.0,0.0,0.0,0.0,3.5689,4.0535,4.3893,4.5509,4.5586,4.5586,4.5547,4.2964,3.9638,0.0,0.0,0.0,0.0,0.0,0.0,0.0,0.0,0.0,0.0,0.0,0.0,0.0,0.0,0.0,0.0,0.0,0.0,0.0,0.0,0.0,0.0,0.0,0.0,0.0,0.0,0.0,0.0,0.0,0.0,0.0,0.0,0.0,0.0,0.0,0.0,0.0,0.0,0.0,0.0,0.0,3.744,3.7691,3.887,3.9974,0.0,4.011,3.9663,3.9585,3.9533,3.7963,3.3287,0.0,0.0,0.0,0.0,0.0,0.0,0.0,0.0,0.0,0.0,0.0,0.0,0.0,0.0,0.0,0.0,0.0,0.0,0.0,0.0,0.0,0.0,0.0,0.0,0.0,0.0,0.0,0.0,0.0,0.0,0.0,0.0,0.0,0.0,0.0,0.0,0.0,0.0,0.0,0.0,0.0,0.0,0.0,0.0,0.0,0.0,0.0,0.0,0.0,0.0,0.0,0.0,0.0,3.4138,3.6408,4.0831,4.397,4.5642,4.5719,4.5757,4.5796,4.3278,4.0192,0.0,0.0,0.0,0.0,0.0,0.0,0.0,0.0,0.0,0.0,0.0,0.0,0.0,0.0,0.0,0.0,0.0,0.0,0.0,0.0,0.0,0.0,0.0,0.0,0.0,0.0,0.0,0.0,2.3436,2.3763,2.436,0.0,0.0,0.0,0.0,0.0,0.0,0.0,0.0,0.0,0.0,3.8744,3.9718,4.0698,0.0,0.0,4.1581,4.1397,4.1379,4.0147,3.8169,3.5358,3.3613,0.0,0.0,0.0,0.0,0.0,0.0,0.0,0.0,0.0,0.0,0.0,0.0,0.0,0.0,0.0,0.0,0.0,0.0,0.0,0.0,0.0,0.0,0.0,0.0,0.0,0.0,0.0,0.0,0.0,0.0,0.0,0.0,0.0,0.0,0.0,0.0,0.0,0.0,0.0,0.0,0.0,0.0,0.0,0.0,0.0,0.0,0.0,0.0,0.0,0.0,0.0,0.0,3.4632,3.6957,4.1316,4.4311,4.5796,4.5838,4.5852,4.5851,4.3605,4.0924,0.0,0.0,0.0,0.0,0.0,0.0,0.0,0.0,0.0,0.0,0.0,0.0,0.0,0.0,0.0,0.0,0.0,0.0,0.0,0.0,0.0,0.0,0.0,0.0,0.0,0.0,0.0,0.0,2.4117,2.4295,2.5,0.0,0.0,0.0,0.0,0.0,0.0,0.0,0.0,0.0,0.0,4.0111,4.1291,4.2202,4.2779,4.2816,4.293,4.2794,4.2187,4.085,3.9178,3.7008,0.0,0.0,0.0,0.0,0.0,0.0,0.0,0.0,0.0,0.0,0.0,0.0,0.0,0.0,0.0,0.0,0.0,0.0,0.0,0.0,0.0,0.0,0.0,0.0,0.0,0.0,0.0,2.5697,0.0,0.0,2.5524,0.0,0.0,0.0,0.0,0.0,0.0,0.0,0.0,0.0,0.0,0.0,0.0,0.0,0.0,0.0,0.0,0.0,0.0,0.0,0.0,0.0,0.0,3.5427,3.7164,4.211,4.5032,4.5868,4.5884,4.5897,4.5863,4.4149,4.2,3.9431,0.0,0.0,0.0,0.0,0.0,0.0,0.0,0.0,0.0,0.0,0.0,0.0,0.0,0.0,0.0,0.0,0.0,0.0,0.0,0.0,0.0,0.0,0.0,0.0,0.0,0.0,2.5226,2.5264,2.5254,0.0,0.0,0.0,0.0,0.0,0.0,0.0,0.0,0.0,0.0,3.9135,4.1332,4.2176,4.3235,4.3899,4.393,4.4272,4.386,4.1967,4.2184,4.1522,0.0,0.0,0.0,0.0,0.0,0.0,0.0,0.0,0.0,0.0,0.0,0.0,0.0,0.0,0.0,0.0,0.0,0.0,0.0,0.0,0.0,0.0,0.0,0.0,0.0,0.0,0.0,2.9452,2.6046,0.0,0.0,0.0,0.0,0.0,0.0,0.0,0.0,0.0,0.0,0.0,3.5826,3.8129,0.0,0.0,0.0,0.0,0.0,0.0,0.0,0.0,0.0,0.0,0.0,0.0,3.6007,3.8867,4.2691,4.5156,4.6014,4.6046,4.6085,4.6137,4.4944,4.257,3.8823,0.0,0.0,0.0,0.0,0.0,0.0,0.0,0.0,0.0,0.0,0.0,0.0,0.0,0.0,0.0,0.0,0.0,0.0,0.0,0.0,0.0,0.0,0.0,0.0,0.0,2.5313,0.0,0.0,0.0,0.0,0.0,0.0,0.0,0.0,0.0,0.0,0.0,3.6824,3.9472,4.1009,4.2176,4.2983,4.3413,4.366,0.0,0.0,0.0,0.0,0.0,0.0,0.0,0.0,0.0,0.0,0.0,0.0,0.0,0.0,3.8891,3.4599,3.3056,3.2453,3.2453,0.0,0.0,0.0,0.0,0.0,0.0,0.0,0.0,0.0,0.0,0.0,0.0,0.0,0.0,3.4609,0.0,3.293,0.0,0.0,0.0,0.0,0.0,0.0,0.0,0.0,3.9006,4.014,4.0247,4.1985,4.4062,0.0,4.2307,3.7617,0.0,0.0,0.0,0.0,0.0,0.0,0.0,0.0,3.7187,3.9648,4.3332,4.556,4.6133,4.6172,4.6211,4.6289,4.5356,4.3202,3.9692,3.5902,3.3019,0.0,0.0,0.0,0.0,0.0,0.0,0.0,0.0,0.0,0.0,0.0,0.0,0.0,0.0,0.0,0.0,0.0,0.0,0.0,0.0,0.0,0.0,0.0,2.5313,0.0,0.0,0.0,0.0,0.0,0.0,0.0,0.0,0.0,3.5599,3.715,3.9203,4.1878,4.2525,4.302,4.3791,0.0,0.0,0.0,0.0,0.0,0.0,0.0,4.2206,4.2331,4.1299,4.0414,4.0377,4.1699,4.2763,4.2727,0.0,0.0,3.8065,3.6259,3.5478,3.5506,3.558,3.545,3.5148,3.5655,3.6071,0.0,0.0,0.0,0.0,0.0,0.0,0.0,0.0,3.5742,4.0976,0.0,3.9726,0.0,0.0,0.0,0.0,0.0,3.7695,0.0,0.0,4.4017,4.5131,4.367,4.5377,4.6331,4.6307,4.6183,4.3984,3.9961,3.6641,0.0,0.0,0.0,0.0,0.0,0.0,3.8945,3.9687,4.3984,4.6289,4.6289,4.6289,4.6289,4.6289,4.5273,4.3873,4.2107,3.9492,3.6969,3.4481,3.0429,0.0,0.0,0.0,0.0,0.0,0.0,0.0,0.0,0.0,0.0,0.0,0.0,0.0,0.0,0.0,0.0,0.0,0.0,0.0,0.0,2.5341,0.0,0.0,0.0,0.0,0.0,0.0,0.0,0.0,0.0,0.0,3.7416,3.9756,4.2043,4.3385,0.0,0.0,0.0,0.0,4.4079,4.4079,4.5021,4.538,4.4282,4.5287,4.5882,4.4851,0.0,0.0,4.3864,4.4856,4.5333,4.3901,4.4856,4.5406,4.3718,4.1604,4.0271,4.0165,3.8823,3.7886,3.8405,3.8317,3.8309,4.5898,0.0,0.0,0.0,0.0,4.1758,4.1914,4.2656,4.3789,4.5312,4.6758,4.25,0.0,0.0,0.0,0.0,0.0,0.0,4.1133,4.3476,4.4774,4.5377,4.5503,4.6676,4.6911,4.6303,4.6286,4.5351,4.3555,4.2539,3.9023,3.3164,0.0,0.0,0.0,0.0,4.0937,4.1992,4.4805,4.6289,4.6289,4.6289,4.6289,4.6289,4.5279,4.4455,4.3915,4.1838,3.9546,3.7046,3.4622,0.0,0.0,0.0,0.0,0.0,0.0,0.0,0.0,0.0,0.0,0.0,0.0,0.0,0.0,0.0,0.0,0.0,0.0,0.0,2.6159,2.6236,2.7198,0.0,0.0,0.0,0.0,0.0,0.0,0.0,0.0,0.0,4.1864,4.2522,4.3391,0.0,0.0,4.5145,4.5078,4.5241,4.5326,4.5326,4.5671,0.0,4.5382,4.5259,4.5294,4.5516,4.5737,4.592,4.6067,4.5993,4.592,4.5993,4.5957,4.5736,4.5259,4.4013,4.3023,4.288,4.1869,4.098,4.1133,4.1084,4.1068,5.1094,4.6953,4.625,4.6562,4.7422,4.6641,4.668,4.7383,4.7891,4.8203,4.8164,4.5976,4.3359,4.0547,3.9883,0.0,0.0,0.0,4.4258,4.6562,4.6562,4.6836,4.7344,4.7891,4.7851,4.7305,4.6992,4.6523,4.6016,4.5703,4.2812,3.7656,0.0,0.0,3.8594,4.0976,4.2539,4.3281,4.5273,4.6289,4.6289,4.6289,4.6289,4.6289,4.5597,4.5239,4.518,4.3684,4.1838,3.9585,3.7584,3.4468,0.0,0.0,0.0,0.0,0.0,0.0,0.0,0.0,0.0,0.0,0.0,2.4995,2.3197,0.0,0.0,0.0,2.6628,2.7796,2.8994,2.9698,0.0,0.0,0.0,0.0,0.0,0.0,0.0,4.0995,4.2382,4.3684,4.504,4.504,4.5187,4.5867,4.5915,4.5918,4.5941,0.0,4.5883,4.5883,4.6176,4.6359,4.636,4.6249,4.628,4.6759,4.6873,4.7021,4.7462,4.7168,4.7058,4.7388,4.7168,4.6801,4.6544,4.57,4.4765,4.4212,4.3158,4.2307,4.2307,4.2281,4.2286,5.4922,5.4062,5.2461,5.1719,5.1523,5.082,4.9961,4.9101,4.918,5.0039,5.125,4.9687,4.8516,4.7617,4.6016,0.0,4.6562,4.7344,4.8125,4.8984,4.9023,4.9023,4.9101,4.9023,4.9023,4.9062,4.8164,4.7695,4.7656,4.6836,4.5586,4.4023,4.3125,4.2656,4.2578,4.3437,4.3906,4.3945,4.5508,4.6289,4.6289,4.6289,4.6289,4.6289,4.6094,4.5913,4.578,4.4893,4.3607,4.1854,3.9431,3.6584,3.3276,0.0,0.0,0.0,0.0,0.0,0.0,0.0,0.0,0.0,0.0,0.0,0.0,0.0,0.0,0.0,2.9817,0.0,3.3071,3.4699,0.0,0.0,0.0,3.777,3.9201,4.1117,4.2762,4.3932,0.0,0.0,4.6981,4.7163,4.7201,4.7204,4.6544,4.6324,4.7058,4.6581,4.6067,4.6177,4.6728,4.7206,4.7243,4.772,4.8084,4.8121,4.8306,4.8233,4.8269,4.8269,4.8269,4.8269,4.8231,4.8009,4.7494,4.672,4.5917,4.4483,4.3328,4.2534,4.259,4.261,4.2625,5.6172,5.5937,5.5547,5.4609,5.3359,5.3164,5.2226,5.0898,5.1523,5.168,5.1328,5.0351,4.9414,4.8555,4.8164,4.8086,4.8281,4.8476,4.9062,4.9883,4.9883,5.0195,5.0742,5.0195,5.0195,5.0664,4.9297,4.8594,4.8555,4.7695,4.707,4.6641,4.582,4.4726,4.3516,4.4922,4.5664,4.5664,4.6094,4.6289,4.6289,4.6289,4.6289,4.6289,4.5508,4.5054,4.4968,4.4028,4.2992,4.1816,4.0008,3.7738,3.5007,3.1674,0.0,0.0,0.0,0.0,0.0,0.0,0.0,0.0,0.0,3.1391,2.6659,0.0,3.3339,0.0,3.3288,3.4687,3.572,3.6762,0.0,0.0,4.147,4.2508,4.4764,4.4956,4.5041,4.5382,4.6248,4.6873,4.7053,4.7642,4.8011,4.8012,4.7865,4.7684,4.7601,4.7721,4.7719,4.7719,4.7865,4.8012,4.8014,4.8159,4.8306,4.8306,4.8306,4.8306,4.8306,4.8306,4.8306,4.8267,4.7915,4.7579,4.7417,4.6483,4.5693,4.5186,4.4553,4.4069,4.4035,4.399,4.4012,5.7187,5.7148,5.6758,5.6015,5.5117,5.4726,5.4258,5.3711,5.3398,5.3008,5.25,5.168,5.082,5.0039,5.0039,5.0039,5.0,5.0,5.0273,5.0703,5.0703,5.0976,5.1367,5.0937,5.0976,5.1367,5.0078,4.9492,4.9414,4.8594,4.8164,4.8164,4.7305,4.6406,4.5508,4.6016,4.6289,4.6289,4.6289,4.6289,4.6289,4.6289,4.6133,4.5742,4.5547,4.5063,4.4153,4.3956,4.3041,4.1316,4.0315,3.8661,3.6161,3.3915,3.2071,0.0,0.0,0.0,0.0,0.0,0.0,0.0,0.0,0.0,0.0,0.0,3.6373,3.5817,3.7279,3.8958,4.0531,4.1777,4.3278,4.5124,4.5355,4.5994,4.7644,4.7397,4.729,4.7721,4.8161,4.8526,4.8742,4.9111,4.9407,4.9407,4.9407,4.9044,4.8199,4.8163,4.8306,4.8306,4.8306,4.8306,4.8306,4.8306,4.8306,4.8306,4.8306,4.8306,4.8306,4.8306,4.8306,4.8267,4.7797,4.7313,4.6988,4.6177,4.546,4.5118,4.4812,4.4587,4.4553,4.4553,4.4553,5.8008,5.7812,5.7109,5.6719,5.6562,5.5781,5.5898,5.6484,5.4883,5.4101,5.3945,5.3086,5.2266,5.1562,5.1445,5.1406,5.1406,5.1406,5.1406,5.1406,5.1406,5.1406,5.1406,5.1406,5.1406,5.1367,5.0703,5.0351,5.0312,4.9492,4.9062,4.9023,4.8203,4.7773,4.7734,4.6914,4.6406,4.6289,4.6289,4.6289,4.6289,4.6289,4.5937,4.5234,4.5699,4.516,4.353,4.4021,4.3243,4.087,4.0662,3.9623,3.7315,3.631,3.543,0.0,3.3724,0.0,0.0,0.0,0.0,0.0,0.0,0.0,0.0,3.867,3.9314,4.0036,4.1627,4.3501,4.5736,4.7335,4.8317,4.8432,4.8509,4.8777,4.9243,4.9272,4.9522,5.0267,5.0303,5.0407,5.0765,5.0835,5.0798,5.0729,5.0692,5.0141,4.8967,4.86,4.8526,4.8453,4.8379,4.8306,4.8306,4.8306,4.8306,4.8306,4.8306,4.8306,4.8306,4.8306,4.8267,4.8151,4.7783,4.7232,4.6578,4.6011,4.5506,4.5124,4.5015,4.4891,4.4621,4.4553,4.4553,5.8555,5.789,5.7734,5.7265,5.6562,5.6406,5.6445,5.6523,5.5508,5.4648,5.3945,5.3086,5.2617,5.2383,5.1719,5.1406,5.1406,5.1406,5.1406,5.1406,5.1406,5.1406,5.1406,5.1406,5.1406,5.1406,5.125,5.1172,5.1133,5.0351,4.9961,4.9922,4.9062,4.8633,4.8594,0.0,0.0,0.0,4.6289,4.6289,4.6289,4.6289,4.6211,4.6016,4.4806,0.0,4.3428,4.2821,4.2217,4.1585,4.1546,0.0,0.0,0.0,0.0,0.0,0.0,0.0,0.0,0.0,0.0,0.0,3.9662,3.9084,3.9161,4.2156,4.4218,4.4453,4.5936,4.7069,4.7607,4.8529,4.9433,5.0125,5.0779,5.1369,5.1825,5.1852,5.1825,5.1654,5.1341,5.121,5.1302,5.0999,5.0858,5.0908,5.0839,5.0692,5.0398,4.9774,4.9334,4.9297,4.882,4.8379,4.8306,4.8379,4.8489,4.8306,4.8306,4.8343,4.8416,4.8341,4.8111,4.7788,4.7537,4.737,4.6696,4.6532,4.6488,4.6418,4.6374,4.6007,4.4857,4.4587,4.4384,5.9531,0.0,5.8242,5.7656,0.0,5.6797,5.6601,5.6562,5.6133,5.5469,5.4609,5.418,5.375,5.3281,5.2422,5.2031,5.2031,5.1601,5.1406,5.1406,5.1406,5.1406,5.1406,5.1406,5.1406,5.1406,5.1406,5.1406,5.1367,5.0976,5.0781,5.0781,4.9961,4.9531,4.9531,4.8672,4.7617,4.6328,4.6289,4.6289,4.6289,4.6289,4.6094,4.5664,4.5216,0.0,0.0,0.0,0.0,0.0,0.0,0.0,0.0,0.0,0.0,4.0385,4.0065,4.0036,4.0436,4.0828,4.1623,4.2931,4.3431,4.3294,4.2464,4.512,4.6989,4.7471,4.8279,4.9067,4.9912,5.0375,5.0971,5.1818,5.2318,5.2641,5.2877,5.2909,5.2824,5.2627,5.2409,5.2278,5.2312,5.2145,5.1998,5.1972,5.1977,5.1977,5.1867,5.0949,5.0178,5.0178,4.9853,4.9561,4.9517,4.9554,4.9517,4.9554,4.9554,4.9554,4.9554,4.9241,4.8877,4.8532,4.808,4.7522,4.7266,4.6984,4.6782,4.6777,4.6802,4.6447,4.526,4.4721,4.429,6.0547,6.0273,5.8906,5.8242,5.8047,5.7187,5.6758,5.6601,0.0,0.0,0.0,5.5351,5.4883,5.418,5.332,5.293,5.2891,5.2187,5.1758,5.1641,5.1641,5.1562,5.1406,5.1406,5.1406,5.1406,5.1406,5.1406,5.1406,5.1406,5.1406,5.1328,5.0742,5.0351,5.0156,4.9492,4.8359,4.6836,4.6601,4.6445,4.6328,4.6289,4.5937,4.5234,4.5781,4.5299,4.3704,4.4306,4.3926,4.2354,4.2393,4.2409,4.2271,4.2387,4.3018,4.4183,4.4449,4.453,4.4568,4.5355,4.5586,4.5009,4.6432,4.7027,4.6309,4.7545,4.8702,4.9567,4.974,5.0394,5.1777,5.2067,5.2472,5.3318,5.3433,5.3472,5.3626,5.3563,5.358,5.3528,5.3398,5.3308,5.3256,5.3188,5.3225,5.3188,5.3078,5.3225,5.3041,5.1903,5.0949,5.0729,5.0628,5.0741,5.0769,5.0725,5.0798,5.0652,5.0729,5.0762,5.0561,5.0112,4.964,4.9126,4.8467,4.7961,4.7718,4.7498,4.72,4.7234,4.7178,4.6839,4.5814,4.5079,4.4262,6.1094,6.039,6.0156,5.9648,5.8945,5.8086,5.7265,5.664,5.6601,5.6523,5.6367,5.5625,5.5234,5.5078,5.4219,5.3828,5.3828,5.3672,5.3242,5.2539,5.25,5.2109,5.1406,5.1406,5.1406,5.1406,5.1406,5.1406,5.1406,5.1406,5.1406,5.1367,5.1289,5.0898,5.0234,5.0078,4.9531,4.8555,4.7812,4.707,4.6328,4.6289,4.625,4.6094,4.5469,4.494,4.455,4.452,4.4333,4.397,4.4662,4.4739,4.4008,4.4641,4.4833,4.4405,4.4987,4.5432,4.5432,4.624,4.6971,4.7548,4.8509,4.899,4.8893,4.9085,4.9567,5.0433,5.1105,5.1624,5.1931,5.2605,5.3356,5.4164,5.4318,5.4587,5.5164,5.4939,5.4713,5.4693,5.4139,5.372,5.3588,5.3371,5.3225,5.3225,5.3225,5.3225,5.3078,5.2417,5.1573,5.0986,5.0802,5.0805,5.0989,5.0826,5.0968,5.079,5.0867,5.0744,5.0242,4.9902,4.9401,4.826,4.839,4.839,4.8003,4.8311,4.8477,4.8523,4.8461,4.7994,4.6523,4.5544,4.4505,6.1484,6.1055,6.0625,6.0195,5.9726,5.7969,5.7344,5.7461,5.6875,5.6601,5.6562,5.6172,5.6015,5.5937,5.5078,5.4687,5.4687,5.4219,5.3789,5.3398,5.3398,5.2695,5.1523,5.1875,5.1875,5.1406,5.1406,5.1406,5.1406,5.1406,5.1406,5.1406,5.1406,5.1211,5.0898,5.0859,5.0469,4.9609,4.875,4.7891,4.7031,4.6992,4.6797,4.6328,4.5859,4.5567,4.5335,4.5283,4.518,4.5009,4.5393,4.5432,4.5047,4.5393,4.5449,4.5064,4.5834,4.6317,4.6299,4.7068,4.7894,4.874,4.9163,4.9586,5.0067,5.0106,5.0452,5.126,5.1682,5.2277,5.32,5.3682,5.4241,5.5049,5.5126,5.528,5.5566,5.5312,5.5031,5.476,5.4208,5.3743,5.3502,5.3298,5.3225,5.3225,5.3225,5.3225,5.3225,5.2894,5.2527,5.2197,5.2123,5.2123,5.2091,5.2119,5.2071,5.2119,5.1755,5.1419,5.0984,5.0521,4.9627,4.9104,4.8965,4.8762,4.8463,4.8741,4.8951,4.8956,4.8559,4.7732,4.6615,4.5236,4.3679,6.1719,6.164,6.0976,6.0586,6.0273,5.8515,5.7851,5.7851,5.7226,5.6836,5.664,5.6601,5.6601,5.6523,5.5898,5.5586,5.5508,5.4883,5.4492,5.4297,5.4297,5.3476,5.2148,5.25,5.2266,5.1484,5.1406,5.1406,5.1406,5.1406,5.1406,5.1406,5.1406,5.1406,5.1406,5.1406,5.1094,5.0469,4.9805,4.8945,4.793,4.7891,4.7578,4.6953,4.6875,4.6778,4.6502,4.6467,4.6411,4.6163,4.6047,4.6047,4.618,4.6296,4.6296,4.6257,4.6778,4.726,4.7491,4.8029,4.8779,4.9625,4.9702,4.9971,5.0587,5.0875,5.1222,5.1819,5.2067,5.2854,5.4122,5.4643,5.5011,5.5626,5.5703,5.5621,5.5554,5.5212,5.481,5.4365,5.395,5.3534,5.3285,5.3225,5.3225,5.3225,5.3225,5.3225,5.3225,5.3225,5.3225,5.3225,5.3225,5.3115,5.3225,5.3151,5.3023,5.304,5.2463,5.1826,5.145,5.0592,4.9941,4.9677,4.9308,4.904,4.8984,4.8984,4.8917,4.863,4.8101,4.7303,4.6048,4.4524,4.3109,6.1719,6.1719,6.1601,6.1133,6.0508,6.0898,5.9492,5.7187,5.7734,5.7539,5.664,5.6601,5.6601,5.6601,5.6484,5.6445,5.6445,5.6406,5.5898,5.5234,5.5195,5.4687,5.375,5.3086,5.2226,5.1523,5.1445,5.1484,5.1484,5.1406,5.1406,5.1406,5.1406,5.1406,5.1406,5.1406,5.1367,5.1289,5.1211,5.0391,4.8906,4.8789,4.875,4.8672,4.8633,4.8535,4.8166,4.8284,4.8125,4.7855,4.7375,4.7355,4.7797,4.8335,4.8392,4.7889,4.7912,4.8317,4.9086,4.924,4.9663,5.0471,5.051,5.0587,5.0741,5.1376,5.178,5.2068,5.2644,5.3486,5.4391,5.5126,5.5549,5.5665,5.5703,5.5577,5.5212,5.479,5.4403,5.3887,5.3535,5.3235,5.323,5.3225,5.3225,5.3225,5.3225,5.3225,5.3225,5.3225,5.3225,5.3225,5.3225,5.3225,5.3225,5.3182,5.2899,5.235,5.2113,5.1565,5.0681,5.0167,4.9838,4.9376,4.9107,4.9018,4.9018,4.8984,4.8686,4.8044,4.7572,4.7013,4.5341,4.4051,4.3229,6.1719,6.1719,6.1719,6.1523,6.1172,6.1015,6.043,5.9609,5.8476,5.75,5.668,5.6601,5.6601,5.6601,5.6601,5.6601,5.6601,5.6601,5.6406,5.6094,5.6055,5.5898,5.5469,5.4648,5.3789,5.293,5.2422,5.2187,5.2109,5.1641,5.1406,5.1406,5.1406,5.1406,5.1406,5.1406,5.1406,5.1406,5.1406,5.1055,5.043,4.9922,4.9414,4.8945,4.8826,4.871,4.8515,4.8423,4.8279,4.8125,4.7875,4.7894,4.8105,4.8317,4.8355,4.8163,4.8606,4.926,5.0087,5.0164,5.0317,5.0664,5.0702,5.0875,5.1337,5.1703,5.2261,5.3318,5.3759,5.4314,5.5066,5.5511,5.5703,5.5703,5.5703,5.5554,5.5134,5.4731,5.4333,5.386,5.346,5.3225,5.3225,5.3225,5.3225,5.3225,5.3225,5.3225,5.3225,5.3225,5.3225,5.3225,5.3225,5.3225,5.3146,5.279,5.2449,5.207,5.1387,5.05,5.0167,4.9605,4.9316,4.908,4.9018,4.9018,4.9018,4.8489,4.8029,4.7398,4.6384,4.5525,4.4204,4.3615,4.3329,6.1719,6.1719,6.1719,6.1719,6.164,6.1055,6.1133,6.1406,5.9453,5.7851,5.668,5.6836,5.6797,5.664,5.6601,5.6601,5.6601,5.6601,5.6601,5.6601,5.6601,5.6601,5.6523,5.5703,5.5117,5.4609,5.3555,5.293,5.2617,5.1836,5.1406,5.1406,5.1406,5.1406,5.1406,5.1406,5.1406,5.1406,5.1406,5.1406,5.1289,5.082,5.0234,4.9648,4.9472,4.9329,4.9214,4.9092,4.8933,4.8817,4.8817,4.8817,4.8817,4.8817,4.8798,4.8856,4.9394,5.0029,5.0664,5.0702,5.0702,5.0702,5.0702,5.1029,5.1742,5.2127,5.2915,5.422,5.4682,5.5105,5.5549,5.5703,5.5703,5.5703,5.5621,5.5375,5.496,5.4579,5.4108,5.3711,5.3339,5.3225,5.3225,5.3225,5.3225,5.3225,5.3225,5.3225,5.3225,5.3225,5.3225,5.3225,5.3225,5.3072,5.2914,5.2509,5.2054,5.1365,5.0606,5.009,4.9838,4.9256,4.8984,4.9018,4.9018,4.8984,4.8951,4.8293,4.7139,4.6645,4.5573,4.4346,4.3578,4.3359,4.3329,6.1719,6.1719,6.1719,6.1719,6.168,6.164,6.164,6.164,6.0625,5.8906,5.7109,5.7461,5.7383,5.664,5.664,5.6601,5.6601,5.6601,5.6601,5.6601,5.6601,5.6601,5.6523,5.5742,5.5703,5.6094,5.4687,5.3516,5.2695,5.1875,5.1406,5.1406,5.1406,5.1406,5.1406,5.1406,5.1406,5.1406,5.1406,5.1406,5.1406,5.1367,5.125,5.1133,5.1088,5.0932,5.0875,5.0818,5.0664,5.0548,5.0471,5.051,5.051,5.051,5.0471,5.051,5.0548,5.0625,5.0664,5.0702,5.0702,5.0741,5.0779,5.1106,5.2088,5.2761,5.3587,5.4451,5.5182,5.5626,5.5665,5.5703,5.5703,5.5621,5.535,5.4988,5.4547,5.4153,5.372,5.3326,5.3235,5.3225,5.3225,5.3225,5.3225,5.3225,5.3225,5.3225,5.3225,5.3225,5.3225,5.3188,5.3109,5.2962,5.2316,5.2014,5.145,5.076,5.0218,4.978,4.9376,4.9018,4.9018,4.8956,4.8861,4.8765,4.8726,4.7961,4.6604,4.5611,4.4524,4.3419,4.3359,4.328,4.317,6.1719,6.1719,6.1719,6.1719,6.1719,6.1719,6.1719,6.164,6.0781,6.0234,5.9687,5.8515,5.7734,5.7422,5.6836,5.6601,5.6601,5.6601,5.6601,5.6601,5.6601,5.6601,5.6562,5.625,5.6289,5.6367,5.539,5.4101,5.2812,5.2344,5.1953,5.1445,5.1406,5.1406,5.1406,5.1406,5.1406,5.1406,5.1406,5.1406,5.1406,5.1406,5.1367,5.1289,5.1178,5.1091,5.0952,5.0856,5.0741,5.0702,5.0702,5.0702,5.0702,5.0702,5.0702,5.0702,5.0702,5.0702,5.0702,5.0702,5.0933,5.1433,5.1471,5.2068,5.3263,5.3859,5.4377,5.5126,5.5472,5.5703,5.5703,5.5703,5.5599,5.5312,5.5186,5.479,5.4217,5.3869,5.3606,5.3314,5.3225,5.3225,5.3225,5.3225,5.3225,5.3225,5.3225,5.3225,5.3225,5.3225,5.3146,5.3072,5.2773,5.2254,5.1548,5.1473,5.108,5.0309,4.9725,4.9419,4.908,4.9018,4.9018,4.8861,4.8736,4.8094,4.7897,4.6815,4.561,4.4524,4.3389,4.331,4.3329,4.2879,4.2496,6.1719,6.1719,6.1719,6.1719,6.1719,6.1719,6.1719,6.164,6.1094,6.1172,6.1172,5.9297,5.8164,5.7773,5.6992,5.6601,5.6601,5.6601,5.6601,5.6601,5.6601,5.6601,5.6601,5.6601,5.6601,5.6484,5.5703,5.4648,5.3633,5.3242,5.2656,5.1875,5.1797,5.1641,5.1445,5.1406,5.1406,5.1406,5.1406,5.1406,5.1406,5.1406,5.1328,5.1211,5.1109,5.1029,5.0914,5.0779,5.0702,5.0702,5.0702,5.0702,5.0702,5.0702,5.0702,5.0702,5.0702,5.0818,5.1048,5.1087,5.1433,5.2241,5.2356,5.2992,5.4323,5.4495,5.4878,5.5472,5.5703,5.566,5.5552,5.5499,5.5399,5.5069,5.4848,5.4446,5.3869,5.3683,5.3484,5.3272,5.3225,5.3225,5.3225,5.3225,5.3225,5.3225,5.3225,5.3225,5.3225,5.298,5.2813,5.2784,5.2206,5.1508,5.0948,5.0764,5.0498,4.9801,4.9447,4.9182,4.9018,4.9018,4.8923,4.8798,4.8256,4.7474,4.661,4.5571,4.4549,4.3524,4.323,4.323,4.2799,4.2146,4.1673,6.1719,6.1719,6.1719,6.1719,6.1719,6.1719,6.1719,6.168,6.164,6.164,6.1445,5.9883,5.8789,5.793,5.7148,5.668,5.6601,5.6601,5.6601,5.6601,5.6601,5.6601,5.6601,5.6601,5.6601,5.6562,5.5742,5.5312,5.5039,5.4336,5.3555,5.2851,5.2695,5.2383,5.1484,5.168,5.1562,5.1523,5.1523,5.1445,5.1406,5.1367,5.1289,5.1133,5.1113,5.1029,5.0914,5.0741,5.0702,5.0702,5.0702,5.0702,5.0702,5.0702,5.0702,5.0702,5.0702,5.1125,5.1741,5.1895,5.2318,5.3049,5.3241,5.3587,5.4475,5.4667,5.4916,5.5511,5.5638,5.5528,5.5207,5.5076,5.4988,5.5026,5.435,5.3905,5.372,5.3444,5.3225,5.3225,5.3225,5.3225,5.3225,5.3225,5.3225,5.3225,5.3225,5.3103,5.298,5.2599,5.2206,5.1979,5.1519,5.0839,5.0413,4.9941,4.9599,4.9249,4.9182,4.9018,4.9018,4.9018,4.8798,4.8576,4.7373,4.6597,4.5421,4.4518,4.4273,4.3494,4.3349,4.2865,4.2212,4.1568,4.0659,6.1719,6.1719,6.1719,6.1719,6.1719,6.1719,6.1719,6.1719,6.1719,6.1719,6.1484,6.0508,5.957,5.875,5.789,5.7148,5.664,5.6601,5.6601,5.6601,5.6601,5.6601,5.6601,5.6601,5.6601,5.6562,5.6367,5.5859,5.5351,5.5039,5.4453,5.375,5.3594,5.3476,5.3125,5.3164,5.293,5.2383,5.2305,5.2031,5.1484,5.1328,5.1211,5.1094,5.0998,5.0914,5.0779,5.0702,5.0702,5.0702,5.0702,5.0702,5.0702,5.0702,5.0702,5.0779,5.1259,5.1605,5.1933,5.251,5.3203,5.3895,5.4087,5.4511,5.5186,5.5301,5.5378,5.5621,5.5467,5.5185,5.507,5.4547,5.4288,5.4183,5.3977,5.3644,5.3444,5.3314,5.3188,5.3225,5.3225,5.3225,5.3225,5.3225,5.3225,5.3188,5.3146,5.306,5.2554,5.2242,5.1874,5.1486,5.0829,5.0289,4.9994,4.9666,4.935,4.9148,4.9052,4.9018,4.9018,4.8956,4.8736,4.7868,4.6763,4.5611,4.4353,4.3823,4.3637,4.3269,4.2731,4.2218,4.1566,4.0761,3.976,6.1719,6.1719,6.1719,6.1719,6.1719,6.1719,6.1719,6.1719,6.1719,6.1719,6.1523,6.0781,6.0117,5.9453,5.8437,5.7617,5.707,5.6797,5.6601,5.6601,5.6601,5.6601,5.6601,5.6601,5.6601,5.6601,5.6601,5.6328,5.582,5.5742,5.5312,5.4609,5.4492,5.4297,5.4023,5.3984,5.3672,5.3242,5.3164,5.293,5.2461,5.2226,5.2138,5.2037,5.1904,5.178,5.1664,5.1625,5.1318,5.0894,5.0971,5.1164,5.1164,5.1453,5.1607,5.1702,5.2067,5.2528,5.2856,5.3433,5.4049,5.4741,5.4934,5.5039,5.5416,5.5477,5.5434,5.5231,5.5026,5.4802,5.4572,5.4166,5.3795,5.3604,5.3565,5.3484,5.323,5.3225,5.3225,5.3225,5.3225,5.3225,5.3225,5.3225,5.3225,5.3146,5.2937,5.2725,5.2112,5.1643,5.1189,5.0681,5.011,4.9771,4.9625,4.9365,4.9073,4.9018,4.9018,4.9018,4.9018,4.8956,4.8798,4.7306,4.5992,4.4974,4.3899,4.3572,4.3379,4.2842,4.2299,4.1592,4.0852,3.95,3.8522,6.1719,6.1719,6.1719,6.1719,6.1719,6.1719,6.1719,6.1719,6.1719,6.1719,6.1523,6.0937,6.0469,6.0039,5.8867,5.8125,5.7773,5.7148,5.6719,5.664,5.6601,5.6601,5.6601,5.6601,5.6601,5.6601,5.6601,5.6562,5.6445,5.6445,5.6172,5.543,5.5351,5.5,5.4531,5.418,5.4258,5.4101,5.4062,5.4023,5.3828,5.3711,5.3565,5.343,5.3263,5.3126,5.2951,5.2933,5.2318,5.1202,5.1664,5.1972,5.2125,5.2743,5.3012,5.2972,5.3203,5.3626,5.4241,5.4472,5.4818,5.5472,5.5484,5.5547,5.521,5.5134,5.4948,5.4671,5.4533,5.431,5.397,5.3748,5.36,5.3387,5.3345,5.3267,5.3298,5.3335,5.3408,5.3371,5.3298,5.3261,5.3219,5.314,5.3047,5.2937,5.2463,5.2018,5.1593,5.0981,5.0167,4.9769,4.9443,4.9384,4.9282,4.9257,4.9018,4.9018,4.9018,4.9018,4.8736,4.8576,4.8032,4.6555,4.5405,4.4389,4.3771,4.3488,4.3051,4.2672,4.1987,4.1118,3.9951,3.853,3.769,6.1719,6.1719,6.1719,6.1719,6.1719,6.1719,6.1719,6.1719,6.1719,6.1719,6.164,6.1484,6.0976,6.039,5.9922,5.9101,5.8164,5.7695,5.7148,5.668,5.6601,5.6601,5.6601,5.6601,5.6601,5.6601,5.6601,5.6601,5.6601,5.6601,5.6445,5.625,5.6172,5.6133,5.5937,5.582,5.5547,5.5039,5.4961,5.4591,5.3999,5.3816,5.3572,5.3456,5.3392,5.3315,5.32,5.3182,5.3087,5.2664,5.2702,5.2856,5.2895,5.3146,5.3338,5.3395,5.3836,5.422,5.4549,5.5049,5.5472,5.5605,5.5423,5.5212,5.5119,5.4838,5.4629,5.4443,5.4235,5.3931,5.3755,5.3576,5.3608,5.3928,5.3702,5.3555,5.3959,5.4075,5.4081,5.4081,5.4081,5.3855,5.3376,5.2889,5.2594,5.2448,5.1933,5.126,5.0964,5.0445,4.978,4.9402,4.9135,4.9107,4.9046,4.9046,4.9018,4.9018,4.9018,4.9024,4.842,4.7737,4.6694,4.5374,4.474,4.3826,4.3548,4.3329,4.2882,4.2624,4.1341,4.0286,3.8926,3.768,3.7126,6.1719,6.1719,6.1719,6.1719,6.1719,6.1719,6.1719,6.1719,6.1719,6.1719,6.1719,6.1719,6.1406,6.0937,6.0547,5.9922,5.8984,5.8594,5.8164,5.7734,5.7383,5.6992,5.6719,5.6601,5.6601,5.6601,5.6601,5.6601,5.6601,5.6601,5.6601,5.6562,5.6601,5.6601,5.6523,5.6601,5.6328,5.5859,5.5742,5.5418,5.4844,5.4646,5.4569,5.4436,5.4314,5.4237,5.4237,5.4259,5.3972,5.3472,5.351,5.3741,5.378,5.4087,5.4241,5.428,5.472,5.5011,5.5049,5.5472,5.5561,5.5446,5.5212,5.4905,5.4595,5.4301,5.4194,5.3906,5.3665,5.3566,5.3597,5.3628,5.4106,5.4693,5.4473,5.4399,5.4876,5.492,5.489,5.489,5.4859,5.4642,5.3852,5.3361,5.2941,5.2585,5.1829,5.122,5.0667,5.008,4.9624,4.9399,4.9154,4.9215,4.9154,4.9187,4.9338,4.9338,4.899,4.8988,4.8035,4.7026,4.5977,4.4967,4.423,4.3718,4.3519,4.3369,4.319,4.2496,4.0879,3.9731,3.8661,3.7329,3.6743,6.1719,6.1719,6.1719,6.1719,6.1719,6.1719,6.1719,6.1719,6.1719,6.1719,6.1719,6.1719,6.164,6.164,6.0937,6.0469,6.0273,5.957,5.9258,5.8828,5.832,5.7617,5.664,5.6601,5.6601,5.6601,5.6601,5.6601,5.6601,5.6601,5.6601,5.6601,5.6601,5.6601,5.6601,5.6601,5.6523,5.6367,5.6289,5.6145,5.5847,5.5692,5.5596,5.5535,5.5472,5.5434,5.5472,5.5472,5.4972,5.3549,5.4203,5.4549,5.4703,5.5318,5.5549,5.5511,5.5511,5.5566,5.5583,5.55,5.5423,5.5107,5.496,5.4739,5.4231,5.4083,5.3979,5.3924,5.3524,5.3702,5.3849,5.4252,5.4987,5.5611,5.5721,5.5831,5.5786,5.5713,5.5684,5.5611,5.5595,5.5229,5.4649,5.4288,5.3873,5.2619,5.1891,5.1267,5.0807,5.0488,5.0073,4.9786,4.9588,4.9413,4.9385,4.9419,4.9611,4.9787,4.9222,4.8813,4.7605,4.6629,4.5665,4.4849,4.4519,4.4197,4.3817,4.3638,4.3358,4.2167,4.0509,3.9965,3.9242,3.7593,3.6603,6.1719,6.1719,6.1719,6.1719,6.1719,6.1719,6.1719,6.1719,6.1719,6.1719,6.1719,6.1719,6.1719,6.168,6.1445,6.1094,6.0508,6.0195,5.9844,5.918,5.9062,5.8008,5.6992,5.6797,5.664,5.664,5.6601,5.6601,5.6601,5.6601,5.6601,5.6601,5.6601,5.6601,5.6601,5.6562,5.6523,5.6406,5.6407,5.6222,5.6001,5.5955,5.5857,5.5742,5.5703,5.5703,5.5703,5.5703,5.5511,5.5318,5.528,5.5357,5.5395,5.5549,5.5665,5.566,5.566,5.5554,5.5326,5.5212,5.508,5.4746,5.4468,5.4275,5.4727,5.4459,5.4559,5.4901,5.5073,5.495,5.506,5.5794,5.6153,5.6483,5.6878,5.7068,5.6709,5.652,5.6271,5.5843,5.5623,5.5184,5.3823,5.3314,5.295,5.2433,5.1951,5.1361,5.1036,5.0837,5.0536,5.027,5.0232,5.0193,5.0168,5.0113,5.0059,4.992,4.942,4.8891,4.7723,4.6729,4.5988,4.5525,4.5139,4.4684,4.4102,4.3357,4.2907,4.1497,4.0348,3.9801,3.8969,3.7612,3.6453,6.1719,6.1719,6.1719,6.1719,6.1719,6.1719,6.1719,6.1719,6.1719,6.1719,6.1719,6.1719,6.1719,6.1719,6.168,6.1406,6.1094,6.1015,6.0781,6.0351,6.0039,5.9492,5.8984,5.8086,5.7539,5.6914,5.707,5.6992,5.6719,5.664,5.6601,5.6601,5.664,5.6562,5.6524,5.6505,5.6367,5.6211,5.6164,5.6032,5.5818,5.5818,5.578,5.5703,5.5703,5.5703,5.5703,5.5703,5.5703,5.5703,5.5703,5.5703,5.5703,5.5703,5.5599,5.5423,5.5403,5.5222,5.4924,5.4828,5.4829,5.475,5.4465,5.4761,5.5084,5.5049,5.5153,5.5478,5.5611,5.5705,5.6124,5.6418,5.6768,5.6879,5.7195,5.7166,5.6577,5.6625,5.6557,5.5957,5.5702,5.5094,5.4178,5.3341,5.3107,5.3083,5.2432,5.182,5.1651,5.1417,5.1116,5.0913,5.104,5.104,5.1017,5.0827,5.0537,5.0098,4.947,4.9011,4.8215,4.7392,4.6598,4.598,4.5406,4.4768,4.4108,4.3344,4.2508,4.1576,4.0517,3.9674,3.8753,3.7813,3.673,6.1719,6.1719,6.1719,6.1719,6.1719,6.1719,6.1719,6.1719,6.1719,6.1719,6.1719,6.1719,6.1719,6.1719,6.1719,6.1719,6.168,6.164,6.1445,6.1367,6.0859,6.0859,6.082,6.0,5.9023,5.7539,5.7851,5.7734,5.7305,5.6992,5.7187,5.6914,5.6797,5.67,5.6502,5.6344,5.6265,5.6082,5.5998,5.5857,5.5742,5.5703,5.5703,5.5703,5.5703,5.5703,5.5703,5.5703,5.5703,5.5703,5.566,5.5599,5.5621,5.5605,5.5523,5.5206,5.5297,5.5258,5.5141,5.4957,5.5013,5.5135,5.5094,5.5303,5.5668,5.5845,5.5948,5.6051,5.6218,5.6347,5.6759,5.6812,5.6782,5.6711,5.6721,5.6313,5.5877,5.6181,5.598,5.5677,5.5292,5.4805,5.4453,5.3855,5.3754,5.3619,5.2909,5.2435,5.2232,5.2097,5.1928,5.1928,5.2027,5.1698,5.1563,5.0773,5.0538,4.9973,4.9268,4.884,4.8379,4.7646,4.6786,4.6062,4.5424,4.4817,4.3892,4.2823,4.2032,4.1435,4.0643,3.954,3.8712,3.808,3.6657,6.1719,6.1719,6.1719,6.1719,6.1719,6.1719,6.1719,6.1719,6.1719,6.1719,6.1719,6.1719,6.1719,6.1719,6.1719,6.1719,6.1719,6.1719,6.1719,6.1719,6.1445,6.1601,6.1484,6.125,6.0859,6.0586,5.9805,5.8945,5.8672,5.875,5.8164,5.7773,5.7542,5.7236,5.6675,5.6302,5.6382,5.6174,5.6095,5.5955,5.5895,5.5742,5.5703,5.5703,5.5703,5.5703,5.5703,5.5703,5.5703,5.5682,5.5399,5.5275,5.5326,5.5308,5.539,5.5473,5.5585,5.5572,5.5659,5.5809,5.5686,5.5618,5.557,5.5896,5.6389,5.661,5.6785,5.7125,5.7298,5.735,5.6899,5.674,5.6453,5.6169,5.5836,5.561,5.5049,5.4957,5.5044,5.4818,5.4717,5.4601,5.4194,5.389,5.3754,5.3585,5.3281,5.301,5.2942,5.2976,5.2943,5.3011,5.3179,5.2564,5.1993,5.0885,5.0147,4.9395,4.8786,4.8358,4.7927,4.7563,4.6954,4.6077,4.5375,4.4662,4.3666,4.241,4.1435,4.0543,3.9951,3.9278,3.8379,3.7308,3.564,6.1719,6.1719,6.1719,6.1719,6.1719,6.1719,6.1719,6.1719,6.1719,6.1719,6.1719,6.1719,6.1719,6.1719,6.1719,6.1719,6.1719,6.1719,6.1719,6.1719,6.1719,6.1719,6.1719,6.1719,6.1719,6.1484,6.082,5.9922,5.9258,5.9023,5.8867,5.8545,5.8278,5.7934,5.7588,5.7511,5.7088,5.6819,5.6571,5.6533,5.6494,5.6126,5.5742,5.5703,5.5742,5.5703,5.5703,5.5703,5.5807,5.5935,5.5835,5.5721,5.5648,5.5632,5.556,5.5495,5.5747,5.5904,5.5913,5.5881,5.5908,5.625,5.6235,5.6602,5.7152,5.7446,5.7334,5.7347,5.7397,5.7097,5.6349,5.6313,5.5893,5.532,5.5084,5.4757,5.4328,5.4068,5.4052,5.4094,5.4045,5.3991,5.3788,5.3585,5.3518,5.3518,5.3518,5.3518,5.3518,5.3348,5.3179,5.2633,5.2394,5.1756,5.1102,5.0263,4.9501,4.8872,4.8263,4.7819,4.7306,4.6901,4.6521,4.5902,4.5178,4.4163,4.3231,4.2027,4.0837,3.9905,3.9619,3.9013,3.7689,3.6379,3.4646,6.1719,6.1719,6.1719,6.1719,6.1719,6.1719,6.1719,6.1719,6.1719,6.1719,6.1719,6.1719,6.1719,6.1719,6.1719,6.1719,6.1719,6.1719,6.1719,6.1719,6.1719,6.1719,6.1719,6.168,6.168,6.1562,6.1484,6.0976,6.0078,5.9765,5.9414,5.9124,5.9011,5.8735,5.845,5.8204,5.8027,5.7742,5.7396,5.7379,5.7264,5.6725,5.6225,5.6225,5.6203,5.6297,5.6237,5.6261,5.6257,5.6387,5.6307,5.6182,5.622,5.6254,5.5988,5.5585,5.5975,5.6116,5.6263,5.6198,5.6617,5.7005,5.7042,5.7363,5.7334,5.7324,5.7182,5.6797,5.6634,5.6316,5.5658,5.546,5.5084,5.4606,5.4328,5.4235,5.3849,5.3651,5.3651,5.3649,5.3518,5.345,5.3382,5.3518,5.3518,5.3518,5.3518,5.3518,5.3416,5.2939,5.2561,5.1592,5.1026,5.0445,4.974,4.9161,4.8675,4.824,4.7819,4.7336,4.6697,4.6166,4.5689,4.5115,4.3975,4.2834,4.2252,4.1565,4.0516,3.9672,3.9436,3.8542,3.6898,3.5446,3.3931,6.1719,6.1719,6.1719,6.1719,6.1719,6.1719,6.1719,6.1719,6.1719,6.1719,6.1719,6.1719,6.1719,6.1719,6.1719,6.1719,6.1719,6.1719,6.1719,6.1719,6.1719,6.1719,6.1719,6.1719,6.1562,6.1445,6.1484,6.1445,6.0976,6.0898,6.0586,5.9994,5.9681,5.9373,5.8896,5.8781,5.828,5.8242,5.8204,5.8187,5.8115,5.7923,5.7846,5.7824,5.7774,5.7569,5.7167,5.7063,5.7034,5.6776,5.644,5.6257,5.6288,5.6561,5.67,5.6639,5.6757,5.7024,5.74,5.7446,5.7354,5.7537,5.7647,5.7521,5.7048,5.6515,5.6164,5.5895,5.587,5.5479,5.4922,5.4748,5.4356,5.3977,5.3783,5.3717,5.3518,5.3518,5.3518,5.3315,5.3281,5.328,5.328,5.3416,5.3518,5.3518,5.3518,5.3416,5.3041,5.2312,5.1704,5.0704,4.9783,4.9206,4.8903,4.8201,4.8006,4.7709,4.7163,4.6726,4.6077,4.5298,4.4535,4.3787,4.2641,4.1879,4.138,4.0737,3.9905,3.9308,3.8753,3.7382,3.5817,3.4447,3.3191,6.1719,6.1719,6.1719,6.1719,6.1719,6.1719,6.1719,6.1719,6.1719,6.1719,6.1719,6.1719,6.1719,6.1719,6.1719,6.1719,6.1719,6.1719,6.1719,6.1719,6.1719,6.1719,6.168,6.164,6.1484,6.1367,6.1322,6.1289,6.1266,6.1188,6.0884,6.0608,6.0435,6.0281,5.9665,5.9704,5.9742,5.9742,5.9627,5.9204,5.855,5.8303,5.8303,5.8296,5.8104,5.7878,5.7693,5.7289,5.7276,5.7079,5.6925,5.7023,5.718,5.7368,5.75,5.75,5.7483,5.762,5.7886,5.796,5.7774,5.7449,5.7351,5.6978,5.6366,5.5902,5.5382,5.5109,5.5041,5.4695,5.4179,5.3943,5.3815,5.3618,5.3518,5.3416,5.3416,5.3518,5.3484,5.3281,5.3045,5.2767,5.272,5.2924,5.2964,5.3041,5.2731,5.2416,5.1776,5.0855,5.0211,4.9584,4.8767,4.7996,4.792,4.7628,4.7572,4.7279,4.6403,4.5869,4.5298,4.4535,4.3598,4.2544,4.1419,4.0789,4.053,4.0107,3.9393,3.8607,3.7905,3.6329,3.4821,3.4,3.2758,6.1719,6.1719,6.1719,6.1719,6.1719,6.1719,6.1719,6.1719,6.1719,6.1719,6.1719,6.1719,6.1719,6.1719,6.1719,6.1719,6.1719,6.1719,6.1719,6.168,6.1655,6.168,6.164,6.1562,6.1367,6.1192,6.1197,6.1134,6.101,6.0965,6.0933,6.0935,6.0742,6.0704,6.0742,6.0627,6.0589,6.055,6.0612,6.005,5.9258,5.8873,5.8835,5.8655,5.8365,5.7973,5.7828,5.7638,5.7604,5.7472,5.7534,5.7617,5.7831,5.7822,5.7703,5.7611,5.7485,5.7375,5.7388,5.7364,5.7266,5.6825,5.6331,5.6023,5.5588,5.5296,5.5044,5.4353,5.436,5.4025,5.3686,5.3551,5.3551,5.3585,5.3518,5.3348,5.311,5.2939,5.2537,5.2001,5.1724,5.1696,5.1778,5.2286,5.2408,5.2445,5.2098,5.1525,5.0595,4.9615,4.9135,4.8677,4.8179,4.7503,4.7392,4.7309,4.7222,4.6638,4.5779,4.484,4.4069,4.3122,4.2181,4.1119,4.0262,3.96,3.9323,3.9143,3.8856,3.7968,3.6965,3.5334,3.3947,3.308,3.1957,6.1719,6.1719,6.1719,6.1719,6.1719,6.1719,6.1719,6.1719,6.1719,6.1719,6.1719,6.1719,6.1719,6.1719,6.1719,6.1719,6.1719,6.1719,6.168,6.164,6.1577,6.1581,6.1535,6.1405,6.1147,6.0944,6.0981,6.092,6.0858,6.0858,6.0819,6.0781,6.0819,6.0781,6.0781,6.0781,6.0742,6.0704,6.0681,6.0642,6.0181,5.995,5.9787,5.9702,5.945,5.9065,5.8644,5.8359,5.8182,5.7884,5.7847,5.7712,5.7831,5.7804,5.7584,5.7068,5.6975,5.6649,5.6324,5.6599,5.6474,5.5893,5.5227,5.4885,5.4664,5.4029,5.3685,5.3686,5.3788,5.3551,5.3484,5.345,5.3212,5.2903,5.2661,5.2416,5.217,5.1993,5.1569,5.0857,5.057,5.0499,5.0264,5.066,5.1295,5.1359,5.093,5.032,4.9615,4.8677,4.8293,4.7934,4.7624,4.7279,4.7193,4.6991,4.646,4.5685,4.4748,4.3598,4.2447,4.1617,4.0945,4.0338,3.9622,3.8832,3.7941,3.7397,3.7001,3.6732,3.5808,3.414,3.2656,3.156,3.0236,6.1719,6.1719,6.1719,6.1719,6.1719,6.1719,6.1719,6.1719,6.1719,6.1719,6.1719,6.1719,6.1719,6.1719,6.1719,6.1719,6.1719,6.1719,6.168,6.1577,6.1541,6.1482,6.1417,6.1229,6.1,6.0866,6.0858,6.0858,6.0819,6.0781,6.0781,6.0781,6.0781,6.0781,6.0781,6.0719,6.0604,6.0402,6.0265,6.0188,5.9926,5.9802,5.9682,5.9628,5.9212,5.8943,5.8657,5.8415,5.8215,5.8006,5.795,5.7726,5.734,5.735,5.6912,5.6297,5.6148,5.5784,5.5278,5.5683,5.578,5.5119,5.4356,5.3939,5.3977,5.3615,5.3551,5.3518,5.3382,5.3209,5.2587,5.2434,5.2241,5.1882,5.1557,5.1484,5.1229,5.1005,5.065,4.996,4.963,4.9392,4.9109,4.8895,4.9634,5.0182,4.9647,4.9135,4.8543,4.8072,4.7764,4.7448,4.7189,4.6695,4.652,4.6075,4.5637,4.4733,4.3665,4.2641,4.1518,4.0642,4.0058,3.9465,3.8847,3.7952,3.6872,3.5709,3.5097,3.4979,3.4129,3.2574,3.125,2.9979,2.86,6.1719,6.1719,6.1719,6.1719,6.1719,6.1719,6.1719,6.1719,6.1719,6.1719,6.1719,6.1719,6.1719,6.1719,6.1719,6.168,6.164,6.164,6.1562,6.1479,6.1366,6.1328,6.1228,6.1074,6.0888,6.0819,6.0781,6.0781,6.0781,6.0781,6.0781,6.0781,6.0781,6.0781,6.0757,6.0647,6.0378,5.9969,5.9797,5.964,5.9414,5.9264,5.9165,5.9122,5.8739,5.851,5.829,5.7977,5.7679,5.7534,5.7473,5.7116,5.6762,5.6386,5.601,5.5612,5.5279,5.5008,5.4695,5.4574,5.4818,5.4264,5.3881,5.3618,5.3518,5.3484,5.3382,5.291,5.2905,5.2561,5.1649,5.1415,5.1336,5.1038,5.0855,5.0703,5.0242,4.9931,4.9536,4.9157,4.8786,4.8337,4.8254,4.7989,4.8152,4.8708,4.8573,4.824,4.7934,4.7624,4.7452,4.716,4.6837,4.6255,4.5667,4.5052,4.4456,4.3436,4.256,4.1887,4.0844,3.9955,3.9129,3.8582,3.7829,3.6873,3.568,3.44,3.3806,3.3351,3.1996,3.0619,2.9817,2.8582,2.7108,6.1719,6.1719,6.1719,6.1719,6.1719,6.1719,6.1719,6.1719,6.1719,6.1719,6.1719,6.1719,6.168,6.168,6.168,6.1601,6.15,6.1486,6.1428,6.1286,6.119,6.1174,6.1089,6.0973,6.0819,6.0819,6.0781,6.0781,6.0781,6.0781,6.0781,6.0685,6.061,6.0622,6.0734,6.0338,5.9879,5.9473,5.9412,5.9328,5.9166,5.8877,5.8716,5.8622,5.8213,5.7923,5.779,5.7275,5.6964,5.6912,5.6761,5.633,5.583,5.5451,5.5097,5.4716,5.4627,5.4296,5.3653,5.3652,5.3584,5.3651,5.3551,5.345,5.345,5.3315,5.2842,5.2135,5.1941,5.1403,5.0813,5.0429,5.0274,5.0009,4.9852,4.9694,4.9085,4.8841,4.8543,4.8377,4.7849,4.7366,4.7306,4.7222,4.7048,4.7219,4.7279,4.7309,4.7222,4.6931,4.6814,4.646,4.6078,4.502,4.4316,4.3857,4.3184,4.2107,4.1334,4.0666,3.9802,3.8767,3.8137,3.7583,3.6526,3.5305,3.4164,3.3047,3.2085,3.0856,2.9647,2.8492,2.7917,2.7073,2.5513,6.1719,6.1719,6.1719,6.1719,6.1719,6.1719,6.1719,6.1719,6.1719,6.1719,6.1719,6.1719,6.164,6.1601,6.1562,6.15,6.1383,6.1343,6.1291,6.1098,6.1026,6.0981,6.0935,6.0858,6.0781,6.0781,6.0781,6.0781,6.0781,6.0742,6.0529,6.0379,6.0099,6.0074,6.0132,5.9878,5.9419,5.9046,5.8911,5.8821,5.8473,5.8326,5.8221,5.818,5.7579,5.7313,5.7208,5.6525,5.615,5.6095,5.5914,5.5552,5.5085,5.4699,5.4433,5.4022,5.3856,5.3788,5.328,5.311,5.287,5.311,5.328,5.2977,5.2573,5.2472,5.1866,5.121,5.0955,5.0367,4.9625,4.9384,4.9116,4.8407,4.8157,4.8072,4.7849,4.7849,4.7679,4.7709,4.7309,4.6549,4.6255,4.584,4.5627,4.5927,4.6046,4.6756,4.6844,4.6255,4.584,4.5432,4.4905,4.3834,4.3062,4.2572,4.1725,4.0671,4.0007,3.9597,3.8662,3.7583,3.6811,3.6162,3.4891,3.3604,3.2546,3.1184,2.9573,2.825,2.7139,2.6338,2.57,2.5024,2.3931,6.1719,6.1719,6.1719,6.1719,6.1719,6.1719,6.1719,6.1719,6.1719,6.1629,6.1562,6.1601,6.1562,6.1445,6.1407,6.134,6.1228,6.1189,6.1112,6.0935,6.0935,6.0896,6.0819,6.0781,6.0781,6.0781,6.0781,6.0742,6.0512,6.055,6.0294,5.9849,5.9403,5.9395,5.9424,5.9246,5.8915,5.8576,5.8433,5.8369,5.8051,5.7822,5.7593,5.7364,5.6953,5.6467,5.6258,5.5859,5.532,5.5262,5.5024,5.4748,5.4371,5.4155,5.3969,5.3617,5.3068,5.3034,5.2657,5.1921,5.1776,5.2098,5.2416,5.2091,5.1558,5.145,5.0758,5.0205,4.9926,4.9266,4.8602,4.8385,4.8133,4.7396,4.7279,4.7279,4.7279,4.7279,4.6867,4.681,4.6432,4.5697,4.5035,4.445,4.4021,4.4397,4.489,4.5475,4.5987,4.5389,4.472,4.4407,4.3765,4.2768,4.195,4.1345,4.0362,3.9192,3.8624,3.8372,3.7049,3.5945,3.5398,3.4626,3.324,3.1909,3.0754,2.931,2.7228,2.5772,2.4735,2.4052,2.3589,2.3091,2.2466,6.1719,6.1719,6.1719,6.168,6.168,6.168,6.168,6.1719,6.168,6.1568,6.1327,6.1452,6.1406,6.1328,6.1275,6.1203,6.1058,6.1012,6.0935,6.0858,6.0819,6.0819,6.0819,6.0781,6.0781,6.0781,6.0704,6.0473,6.0181,5.995,5.9729,5.9376,5.8925,5.871,5.8635,5.8475,5.8227,5.7943,5.7867,5.774,5.7427,5.7134,5.6879,5.6638,5.6162,5.5768,5.5444,5.4977,5.4683,5.4391,5.4011,5.3717,5.3551,5.3518,5.3518,5.3107,5.2368,5.1991,5.1655,5.0855,5.0474,5.0627,5.0397,5.0302,5.038,5.0278,4.9764,4.9166,4.8718,4.8218,4.7658,4.7598,4.7482,4.7222,4.7106,4.7019,4.7019,4.6666,4.6166,4.5698,4.5167,4.4527,4.3627,4.3057,4.2387,4.2619,4.2885,4.2985,4.3504,4.3882,4.3381,4.3231,4.2589,4.1666,4.0795,3.9956,3.8995,3.7631,3.7382,3.6918,3.5617,3.4292,3.3599,3.2695,3.1476,3.0083,2.8264,2.6422,2.4548,2.334,2.2832,2.2663,2.2591,2.2104,2.1475,6.1719,6.1719,6.1705,6.1646,6.1562,6.145,6.1495,6.1663,6.1608,6.1479,6.1337,6.1336,6.1259,6.1074,6.1092,6.0981,6.0896,6.0858,6.0858,6.0819,6.0781,6.0781,6.0781,6.0781,6.0781,6.0666,6.0488,6.0238,5.9955,5.9576,5.9098,5.8858,5.8408,5.7969,5.7664,5.7437,5.7313,5.7193,5.7182,5.6988,5.6624,5.6223,5.6073,5.5847,5.5305,5.4998,5.4764,5.4258,5.3915,5.3783,5.3618,5.3518,5.3518,5.345,5.3348,5.2345,5.1499,5.0788,5.0659,4.9852,4.9296,4.9085,4.879,4.8729,4.8966,4.9152,4.8805,4.8309,4.7959,4.7575,4.7167,4.705,4.6785,4.655,4.6344,4.5987,4.5869,4.5421,4.4895,4.4228,4.3715,4.293,4.2108,4.1261,4.0593,4.0722,4.0722,4.0694,4.0993,4.1439,4.1736,4.1584,4.0723,3.9715,3.8968,3.8218,3.7274,3.6392,3.6036,3.5398,3.4181,3.2943,3.1917,3.049,2.9065,2.7242,2.5245,2.3716,2.2961,2.2117,2.1628,2.1614,2.1475,2.0969,2.0462,6.1525,6.1543,6.1546,6.1484,6.1412,6.133,6.1389,6.152,6.1458,6.133,6.1131,6.1173,6.1089,6.0965,6.092,6.0858,6.0819,6.0819,6.0819,6.0819,6.0781,6.0781,6.0781,6.0742,6.0512,6.0349,6.0111,5.9892,5.9517,5.8912,5.841,5.8373,5.7894,5.7388,5.6978,5.6649,5.6221,5.6165,5.6149,5.6045,5.5758,5.5379,5.5273,5.5124,5.4533,5.4296,5.4127,5.3619,5.3551,5.3518,5.3518,5.3247,5.287,5.2473,5.2105,5.1134,5.039,4.9899,4.963,4.8759,4.8377,4.8072,4.7679,4.7806,4.7895,4.8194,4.7859,4.7538,4.7339,4.7195,4.6786,4.646,4.6164,4.5779,4.5207,4.4748,4.4349,4.3975,4.3343,4.2667,4.1991,4.125,4.0335,3.9461,3.8736,3.8729,3.8412,3.7844,3.838,3.9005,3.9393,3.9496,3.8534,3.7502,3.692,3.6511,3.5758,3.5021,3.4534,3.3797,3.2644,3.111,2.9789,2.808,2.6352,2.4907,2.3703,2.285,2.2117,2.1262,2.0475,2.0119,2.0106,1.9814,1.9291,6.1331,6.1292,6.1292,6.1268,6.1289,6.1251,6.1251,6.1266,6.1266,6.1112,6.0904,6.0958,6.0935,6.0819,6.0819,6.0819,6.0781,6.0781,6.0781,6.0781,6.0781,6.0796,6.0762,6.0695,6.0248,5.9856,5.9531,5.9383,5.8714,5.8176,5.7826,5.7847,5.7166,5.6616,5.6313,5.5836,5.5362,5.4899,5.5086,5.5259,5.5161,5.4842,5.4504,5.4424,5.3991,5.3551,5.3551,5.3416,5.3348,5.3348,5.3043,5.2535,5.1849,5.0959,5.0452,5.0021,4.9275,4.885,4.8552,4.7988,4.7422,4.7279,4.7106,4.6808,4.6681,4.6936,4.683,4.6604,4.6402,4.5837,4.5407,4.5258,4.4961,4.4442,4.3882,4.3504,4.3218,4.2711,4.1941,4.1346,4.0946,4.0183,3.929,3.8485,3.782,3.7251,3.6712,3.5968,3.5945,3.6788,3.7109,3.7429,3.6956,3.618,3.5329,3.4847,3.4333,3.3707,3.2965,3.2092,3.0917,2.9238,2.7554,2.5951,2.4577,2.3871,2.2871,2.2201,2.1402,2.0449,1.9686,1.8747,1.8348,1.8173,1.7474,6.1309,6.1309,6.1155,6.107,6.1035,6.0973,6.0935,6.0896,6.0896,6.0896,6.0819,6.0819,6.0819,6.0819,6.0781,6.0781,6.0781,6.0781,6.0781,6.0757,6.0757,6.07,6.0682,6.0398,5.9932,5.9484,5.9133,5.8764,5.8133,5.7579,5.7191,5.7065,5.6415,5.5872,5.5414,5.4964,5.453,5.3954,5.4068,5.4239,5.402,5.3955,5.3751,5.3754,5.345,5.3348,5.3177,5.2661,5.2416,5.2241,5.1484,5.1057,5.0693,4.975,4.9251,4.8975,4.8255,4.7744,4.7512,4.7163,4.6609,4.6077,4.5752,4.5171,4.5084,4.5579,4.5668,4.5551,4.5158,4.4555,4.4104,4.3993,4.3693,4.3122,4.2641,4.235,4.2084,4.134,4.0614,4.0236,3.9777,3.8995,3.8131,3.7439,3.6928,3.6402,3.5859,3.5288,3.4736,3.4936,3.4936,3.5266,3.5704,3.5064,3.4164,3.3071,3.2403,3.1505,3.0547,2.9766,2.9039,2.7331,2.5513,2.4286,2.3047,2.2448,2.1936,2.1532,2.0703,1.946,1.8302,1.725,1.6216,1.5783,1.5062,6.1089,6.105,6.0935,6.0896,6.0896,6.0819,6.0781,6.0781,6.0781,6.0781,6.0781,6.0781,6.0781,6.0781,6.0781,6.0781,6.0781,6.0781,6.0622,6.0533,6.0494,6.0428,6.0281,6.0089,5.9399,5.8943,5.8576,5.811,5.7481,5.7172,5.6851,5.635,5.5584,5.4999,5.4544,5.4328,5.3946,5.3551,5.3484,5.3247,5.3045,5.3146,5.3484,5.345,5.3104,5.2924,5.2428,5.186,5.141,5.0918,5.0305,4.9818,4.9489,4.8714,4.8183,4.78,4.7222,4.6461,4.6373,4.5987,4.5508,4.484,4.4535,4.4054,4.385,4.4202,4.4069,4.401,4.4277,4.3778,4.2915,4.2601,4.2065,4.1392,4.1119,4.0844,4.0387,3.9702,3.9118,3.8711,3.8056,3.718,3.6214,3.5423,3.4847,3.4403,3.4069,3.3529,3.3077,3.2922,3.2943,3.288,3.3156,3.324,3.2406,3.1401,3.0462,2.9434,2.8415,2.7228,2.6365,2.4901,2.345,2.2452,2.1685,2.1015,2.0637,2.0131,1.912,1.7736,1.6679,1.5619,1.4572,1.3678,1.3144,6.0819,6.0781,6.0781,6.0781,6.0781,6.0781,6.0781,6.0781,6.0781,6.0781,6.0781,6.0781,6.0781,6.0781,6.0781,6.0781,6.0748,6.0609,6.0398,6.0189,6.0036,5.9912,5.9832,5.9656,5.8869,5.8203,5.7825,5.7295,5.6712,5.6402,5.5993,5.551,5.5025,5.4419,5.4264,5.3946,5.3518,5.345,5.3247,5.2702,5.2671,5.2707,5.291,5.2767,5.2309,5.1759,5.1385,5.0877,5.026,4.9772,4.9237,4.8773,4.844,4.794,4.7396,4.6931,4.6312,4.5623,4.5081,4.4442,4.3882,4.3313,4.3313,4.3067,4.2808,4.2614,4.2431,4.2478,4.2729,4.2577,4.1748,4.1207,4.0594,3.9699,3.9415,3.9129,3.8491,3.799,3.7588,3.7204,3.6494,3.5511,3.4513,3.3706,3.3077,3.2623,3.1957,3.1189,3.0743,3.0665,3.0626,3.0258,3.0103,3.0103,3.0354,2.9524,2.8389,2.7748,2.6756,2.5135,2.3807,2.3076,2.209,2.1069,2.0297,1.9611,1.8903,1.8232,1.7092,1.5915,1.5269,1.4513,1.3317,1.2399,1.1754,6.0781,6.0781,6.0781,6.0781,6.0781,6.0781,6.0781,6.0781,6.0781,6.0781,6.0781,6.0781,6.0781,6.0781,6.0781,6.0734,6.052,6.0361,6.0264,6.0112,5.9696,5.9361,5.9102,5.891,5.8103,5.742,5.6951,5.6603,5.5995,5.5434,5.4998,5.4736,5.4126,5.3783,5.3717,5.3416,5.3315,5.3146,5.253,5.1971,5.1868,5.1834,5.1528,5.128,5.0774,5.0676,5.0403,4.9614,4.9241,4.8779,4.8223,4.7722,4.7392,4.7108,4.652,4.5776,4.516,4.4546,4.3899,4.3245,4.2738,4.1985,4.1887,4.1591,4.1241,4.0767,4.0594,4.0313,4.0592,4.0616,3.9976,4.0029,3.9544,3.8113,3.7477,3.6918,3.6395,3.6144,3.5876,3.558,3.5313,3.441,3.3476,3.2662,3.2072,3.1496,3.0801,3.002,2.9039,2.8664,2.8426,2.8009,2.7476,2.7858,2.848,2.7434,2.6461,2.5993,2.5156,2.3429,2.2327,2.1713,2.0843,1.9493,1.8768,1.8163,1.7468,1.6392,1.5465,1.4493,1.4083,1.3384,1.2298,1.1614,1.1365]},{"header":{"parameterUnit":"m.s-1","parameterCategory":1,"la1":31.0,"la2":29.5877,"lo1":-88.7671,"lo2":-86.6584,"dy":0.0162,"dx":0.0185,"nx":115,"ny":88,"refTime":"2024-08-05T12:00:00:Z","depth":0,"parameterNumber":3,"parameterNumberName":"V-component_of_WINDS"},"data":[0.0,0.0,0.0,0.0,0.0,0.0,0.0,0.0,0.0,0.0,0.0,0.0,0.0,0.0,0.0,0.0,0.0,0.0,0.0,0.0,0.0,0.0,0.0,0.0,0.0,0.0,0.0,0.0,0.0,0.0,0.0,0.0,0.0,0.0,0.0,0.0,0.0,0.0,0.0,0.0,0.0,0.0,0.0,0.0,0.0,0.0,0.0,0.0,0.0,0.0,0.0,0.0,0.0,0.0,0.0,0.0,0.0,0.0,0.0,0.0,0.0,0.0,0.0,0.0,0.0,0.0,0.0,0.0,0.0,0.0,0.0,0.0,0.0,0.0,0.0,0.0,0.0,0.0,0.0,0.0,0.0,0.0,0.0,0.0,0.0,0.0,0.0,0.0,0.0,0.0,0.0,0.0,0.0,0.0,0.0,0.0,0.0,0.0,0.0,0.0,0.0,0.0,0.0,0.0,0.0,0.0,0.0,0.0,0.0,0.0,0.0,0.0,0.0,0.0,0.0,0.0,0.0,0.0,0.0,0.0,0.0,0.0,0.0,0.0,0.0,0.0,0.0,0.0,0.0,0.0,0.0,0.0,0.0,0.0,0.0,0.0,0.0,0.0,0.0,0.0,0.0,0.0,0.0,0.0,0.0,0.0,0.0,0.0,0.0,0.0,0.0,0.0,0.0,0.0,0.0,0.0,0.0,0.0,0.0,0.0,0.0,0.0,0.0,0.0,0.0,0.0,0.0,0.0,0.0,0.0,0.0,0.0,0.0,0.0,0.0,0.0,0.0,0.0,0.0,0.0,0.0,0.0,0.0,0.0,0.0,0.0,0.0,0.0,0.0,0.0,0.0,0.0,0.0,0.0,0.0,0.0,0.0,0.0,0.0,0.0,0.0,0.0,0.0,0.0,0.0,0.0,0.0,0.0,0.0,0.0,0.0,0.0,0.0,0.0,0.0,0.0,0.0,0.0,0.0,0.0,0.0,0.0,0.0,0.0,0.0,0.0,0.0,0.0,0.0,0.0,0.0,0.0,0.0,0.0,0.0,0.0,0.0,0.0,0.0,0.0,0.0,0.0,0.0,0.0,0.0,0.0,0.0,0.0,0.0,0.0,0.0,0.0,0.0,0.0,0.0,0.0,0.0,0.0,0.0,0.0,0.0,0.0,0.0,0.0,0.0,0.0,0.0,0.0,0.0,0.0,0.0,0.0,0.0,0.0,0.0,0.0,0.0,0.0,0.0,0.0,0.0,0.0,0.0,0.0,0.0,0.0,0.0,0.0,0.0,0.0,0.0,0.0,0.0,0.0,0.0,0.0,0.0,0.0,0.0,0.0,0.0,0.0,0.0,0.0,0.0,0.0,0.0,0.0,0.0,0.0,0.0,0.0,0.0,0.0,0.0,0.0,0.0,0.0,0.0,0.0,0.0,0.0,0.0,0.0,0.0,0.0,0.0,0.0,0.0,0.0,0.0,0.0,0.0,0.0,0.0,0.0,0.0,0.0,0.0,0.0,0.0,0.0,0.0,0.0,0.0,0.0,0.0,0.0,0.0,0.0,0.0,0.0,0.0,0.0,0.0,0.0,0.0,0.0,0.0,0.0,0.0,0.0,0.0,0.0,0.0,0.0,0.0,0.0,0.0,0.0,0.0,0.0,0.0,0.0,0.0,0.0,0.0,0.0,0.0,0.0,0.0,0.0,0.0,0.0,0.0,0.0,0.0,0.0,0.0,0.0,0.0,0.0,0.0,0.0,0.0,0.0,0.0,0.0,0.0,0.0,0.0,0.0,0.0,0.0,0.0,0.0,0.0,0.0,0.0,0.0,0.0,0.0,0.0,0.0,0.0,0.0,0.0,0.0,0.0,0.0,0.0,0.0,0.0,0.0,0.0,0.0,0.0,0.0,0.0,0.0,0.0,0.0,0.0,0.0,0.0,0.0,0.0,0.0,0.0,0.0,0.0,0.0,0.0,0.0,0.0,0.0,0.0,0.0,0.0,0.0,0.0,0.0,0.0,0.0,0.0,0.0,0.0,0.0,0.0,0.0,0.0,0.0,0.0,0.0,0.0,0.0,0.0,0.0,0.0,0.0,0.0,0.0,0.0,0.0,0.0,0.0,0.0,0.0,0.0,0.0,0.0,0.0,0.0,0.0,0.0,0.0,0.0,0.0,0.0,0.0,0.0,0.0,0.0,0.0,0.0,0.0,0.0,0.0,0.0,0.0,0.0,0.0,0.0,0.0,0.0,0.0,0.0,0.0,0.0,0.0,0.0,0.0,0.0,0.0,0.0,0.0,0.0,0.0,0.0,0.0,0.0,0.0,0.0,0.0,0.0,0.0,0.0,0.0,0.0,0.0,0.0,0.0,0.0,0.0,0.0,0.0,0.0,0.0,0.0,0.0,0.0,0.0,0.0,0.0,0.0,0.0,0.0,0.0,0.0,0.0,0.0,0.0,0.0,0.0,0.0,0.0,0.0,0.0,0.0,0.0,0.0,0.0,0.0,0.0,0.0,0.0,0.0,0.0,0.0,0.0,0.0,0.0,0.0,0.0,0.0,0.0,0.0,0.0,0.0,0.0,0.0,0.0,0.0,0.0,0.0,0.0,0.0,0.0,0.0,0.0,0.0,0.0,0.0,0.0,0.0,0.0,0.0,0.0,0.0,0.0,0.0,0.0,0.0,0.0,0.0,0.0,0.0,0.0,0.0,0.0,0.0,0.0,0.0,0.0,0.0,0.0,0.0,0.0,0.0,0.0,0.0,0.0,0.0,0.0,0.0,0.0,0.0,0.0,0.0,0.0,0.0,0.0,0.0,0.0,0.0,0.0,0.0,0.0,0.0,0.0,0.0,0.0,0.0,0.0,0.0,0.0,0.0,0.0,0.0,0.0,0.0,0.0,0.0,0.0,0.0,0.0,0.0,0.0,0.0,0.0,0.0,0.0,0.0,0.0,0.0,0.0,0.0,0.0,0.0,0.0,0.0,0.0,0.0,0.0,0.0,0.0,0.0,0.0,0.0,0.0,0.0,0.0,0.0,0.0,0.0,0.0,0.0,0.0,0.0,0.0,0.0,0.0,0.0,0.0,0.0,0.0,0.0,0.0,0.0,0.0,0.0,0.0,0.0,0.0,0.0,0.0,0.0,0.0,0.0,0.0,0.0,0.0,0.0,0.0,0.0,0.0,0.0,0.0,0.0,0.0,0.0,0.0,0.0,0.0,0.0,0.0,0.0,0.0,0.0,0.0,0.0,0.0,0.0,0.0,0.0,0.0,0.0,0.0,0.0,0.0,0.0,0.0,0.0,0.0,0.0,0.0,0.0,0.0,0.0,0.0,0.0,0.0,0.0,0.0,0.0,0.0,0.0,0.0,0.0,0.0,0.0,0.0,0.0,0.0,0.0,0.0,0.0,0.0,0.0,0.0,0.0,0.0,0.0,0.0,0.0,0.0,0.0,0.0,0.0,0.0,0.0,0.0,0.0,0.0,0.0,0.0,0.0,0.0,0.0,0.0,0.0,0.0,0.0,0.0,0.0,0.0,0.0,0.0,0.0,0.0,0.0,0.0,0.0,0.0,0.0,0.0,0.0,0.0,0.0,0.0,0.0,0.0,0.0,0.0,0.0,0.0,0.0,0.0,0.0,0.0,0.0,0.0,0.0,0.0,0.0,0.0,0.0,0.0,0.0,0.0,0.0,0.0,0.0,0.0,0.0,0.0,0.0,0.0,0.0,0.0,0.0,0.0,0.0,0.0,0.0,0.0,0.0,0.0,0.0,0.0,0.0,0.0,0.0,0.0,0.0,0.0,0.0,0.0,0.0,0.0,0.0,0.0,0.0,0.0,0.0,0.0,0.0,0.0,0.0,0.0,0.0,0.0,0.0,0.0,0.0,0.0,0.0,0.0,0.0,0.0,0.0,0.0,0.0,0.0,0.0,0.0,0.0,0.0,0.0,0.0,0.0,0.0,0.0,0.0,0.0,0.0,0.0,0.0,0.0,0.0,0.0,0.0,0.0,0.0,0.0,0.0,0.0,0.0,0.0,0.0,0.0,0.0,0.0,0.0,0.0,0.0,0.0,0.0,0.0,0.0,0.0,0.0,0.0,0.0,0.0,0.0,0.0,0.0,0.0,0.0,0.0,0.0,0.0,0.0,0.0,0.0,0.0,0.0,0.0,0.0,0.0,0.0,0.0,0.0,0.0,0.0,0.0,0.0,0.0,0.0,0.0,0.0,0.0,0.0,0.0,0.0,0.0,0.0,0.0,0.0,0.0,0.0,0.0,0.0,0.0,0.0,-0.4512,0.0,0.0,0.0,0.0,0.0,0.0,0.0,0.0,0.0,0.0,0.0,0.0,0.0,0.0,0.0,0.0,0.0,0.0,0.0,0.0,0.0,0.0,0.0,0.0,0.0,0.0,0.0,0.0,0.0,0.0,0.0,0.0,0.0,0.0,0.0,0.0,0.0,0.0,0.0,0.0,0.0,0.0,0.0,0.0,0.0,0.0,0.0,0.0,0.0,0.0,0.0,0.0,0.0,0.0,0.0,0.0,0.0,0.0,0.0,0.0,0.0,0.0,0.0,0.0,0.0,0.0,0.0,0.0,0.0,0.0,0.0,0.0,0.0,0.0,0.0,0.0,0.0,0.0,0.0,0.0,0.0,0.0,0.0,0.0,0.0,0.0,0.0,0.0,0.0,0.0,0.0,0.0,0.0,0.0,0.0,0.0,0.0,0.0,0.0,0.0,0.0,0.0,0.0,0.0,0.0,0.0,0.0,0.0,0.0,0.0,-0.4463,-0.4463,-0.4463,-0.4463,-0.4463,0.0,0.0,0.0,0.0,0.0,0.0,0.0,0.0,0.0,0.0,0.0,0.0,0.0,0.0,0.0,0.0,0.0,0.0,0.0,0.0,0.0,0.0,0.0,0.0,0.0,0.0,0.0,0.0,0.0,0.0,0.0,0.0,0.0,0.0,0.0,0.0,0.0,0.0,0.0,0.0,0.0,0.0,0.0,0.0,0.0,0.0,0.0,0.0,0.0,0.0,0.0,0.0,0.0,0.0,0.0,0.0,0.0,0.0,0.0,0.0,0.0,0.0,0.0,0.0,0.0,0.0,0.0,0.0,0.0,0.0,0.0,0.0,0.0,0.0,0.0,0.0,0.0,0.0,0.0,0.0,0.0,0.0,0.0,0.0,0.0,0.0,0.0,0.0,0.0,0.0,0.0,0.0,0.0,0.0,0.0,0.0,0.0,0.0,0.0,0.0,0.0,0.0,0.0,0.0,0.0,0.0,0.0,0.0,0.0,0.0,0.0,0.0,-0.4676,-0.4734,-0.4613,0.0,0.0,0.0,0.0,0.0,0.0,0.0,0.0,0.0,0.0,0.0,0.0,0.0,0.0,0.0,0.0,0.0,0.0,0.0,0.0,0.0,0.0,0.0,0.0,0.0,0.0,0.0,0.0,0.0,0.0,0.0,0.0,0.0,0.0,0.0,0.0,0.0,0.0,0.0,0.0,0.0,0.0,0.0,0.0,0.0,0.0,0.0,0.0,0.0,0.0,0.0,0.0,0.0,0.0,0.0,0.0,0.0,0.0,0.0,0.0,0.0,0.0,0.0,0.0,0.0,0.0,0.0,0.0,0.0,0.0,0.0,0.0,0.0,0.0,0.0,0.0,0.0,0.0,0.0,0.0,0.0,0.0,0.0,0.0,0.0,0.0,0.0,0.0,0.0,0.0,0.0,0.0,0.0,0.0,0.0,0.0,0.0,0.0,0.0,0.0,0.0,0.0,0.0,0.0,0.0,0.0,0.0,0.0,0.0,0.0,-0.448,-0.454,-0.5262,0.0,-0.5074,0.0,0.0,0.0,0.0,0.0,0.0,0.0,0.0,0.0,0.0,0.0,0.0,0.0,0.0,0.0,0.0,0.0,0.0,0.0,0.0,0.0,0.0,0.0,0.0,0.0,0.0,0.0,0.0,0.0,0.0,0.0,0.0,0.0,0.0,0.0,0.0,0.0,0.0,0.0,0.0,0.0,0.0,0.0,0.0,0.0,0.0,0.0,0.0,0.0,0.0,0.0,0.0,0.0,0.0,0.0,0.0,0.0,0.0,0.0,0.0,0.0,0.0,0.0,0.0,0.0,0.0,0.0,0.0,0.0,0.0,0.0,0.0,0.0,0.0,0.0,0.0,0.0,0.0,0.0,0.0,0.0,0.0,0.0,0.0,0.0,0.0,0.0,0.0,0.0,0.0,0.0,0.0,0.0,0.0,0.0,0.0,0.0,0.0,0.0,0.0,0.0,0.0,0.0,0.0,0.0,0.0,0.0,0.0,0.0,0.0,-0.5517,-0.4538,-0.5332,-0.5594,0.0,0.0,0.0,0.0,0.0,0.0,0.0,0.0,0.0,0.0,0.0,0.0,0.0,0.0,0.0,0.0,0.0,0.0,0.0,0.0,0.0,0.0,0.0,0.0,0.0,0.0,0.0,0.0,0.0,0.0,0.0,0.0,0.0,0.0,0.0,0.0,0.0,0.0,0.0,0.0,0.0,0.0,0.0,0.0,0.0,0.0,0.0,0.0,0.0,0.0,0.0,0.0,0.0,0.0,0.0,0.0,0.0,0.0,0.0,0.0,0.0,0.0,0.0,0.0,0.0,0.0,0.0,0.0,0.0,0.0,0.0,0.0,0.0,0.0,0.0,0.0,0.0,0.0,0.0,0.0,0.0,0.0,0.0,0.0,0.0,0.0,0.0,0.0,0.0,0.0,0.0,0.0,0.0,0.0,0.0,0.0,0.0,0.0,0.0,0.0,0.0,0.0,0.0,0.0,0.0,0.0,0.0,0.0,0.0,0.0,-0.5879,-0.5989,-0.5304,-0.5793,-0.5864,-0.5198,0.0,0.0,0.0,0.0,0.0,0.0,0.0,0.0,0.0,0.0,0.0,0.0,0.0,0.0,0.0,0.0,0.0,0.0,0.0,0.0,0.0,0.0,0.0,0.0,0.0,0.0,0.0,0.0,0.0,0.0,0.0,0.0,0.0,0.0,0.0,0.0,0.0,0.0,0.0,0.0,0.0,0.0,0.0,0.0,0.0,0.0,0.0,0.0,0.0,0.0,0.0,0.0,0.0,0.0,0.0,0.0,0.0,0.0,0.0,0.0,0.0,0.0,0.0,0.0,0.0,0.0,0.0,0.0,0.0,0.0,0.0,0.0,0.0,0.0,0.0,0.0,0.0,0.0,0.0,0.0,0.0,0.0,0.0,0.0,0.0,0.0,0.0,0.0,0.0,0.0,0.0,0.0,0.0,0.0,0.0,0.0,0.0,0.0,0.0,0.0,0.0,0.0,0.0,0.0,0.0,0.0,0.0,0.0,0.0,-0.5054,-0.5404,-0.6857,-0.7032,-0.6502,0.0,0.0,0.0,0.0,0.0,0.0,0.0,0.0,0.0,0.0,0.0,0.0,0.0,0.0,0.0,0.0,0.0,0.0,0.0,0.0,0.0,0.0,0.0,0.0,0.0,0.0,0.0,0.0,0.0,0.0,0.0,0.0,0.0,0.0,0.0,0.0,0.0,0.0,0.0,0.0,0.0,0.0,0.0,0.0,0.0,0.0,0.0,0.0,0.0,0.0,0.0,0.0,0.0,0.0,0.0,0.0,0.0,0.0,0.0,0.0,0.0,0.0,0.0,0.0,0.0,0.0,0.0,0.0,0.0,0.0,0.0,0.0,0.0,0.0,0.0,0.0,0.0,0.0,0.0,0.0,0.0,0.0,0.0,0.0,0.0,0.0,0.0,0.0,0.0,0.0,0.0,0.0,0.0,0.0,0.0,0.0,0.0,0.0,0.0,0.0,0.0,0.0,0.0,0.0,0.0,0.0,0.0,0.0,0.0,-0.4959,-0.5199,-0.5345,-0.5466,-0.546,-0.5635,0.0,0.0,0.0,0.0,0.0,0.0,0.0,0.0,0.0,0.0,0.0,0.0,0.0,0.0,0.0,0.0,0.0,0.0,0.0,0.0,0.0,0.0,0.0,0.0,0.0,0.0,0.0,0.0,0.0,0.0,0.0,0.0,0.0,0.0,0.0,0.0,0.0,0.0,0.0,0.0,0.0,0.0,0.0,0.0,0.0,0.0,0.0,0.0,0.0,0.0,0.0,0.0,0.0,0.0,0.0,0.0,0.0,0.0,0.0,0.0,0.0,0.0,0.0,0.0,0.0,0.0,0.0,0.0,0.0,0.0,0.0,0.0,0.0,0.0,0.0,0.0,0.0,0.0,0.0,0.0,0.0,0.0,0.0,0.0,0.0,0.0,0.0,0.0,0.0,0.0,0.0,0.0,0.0,0.0,0.0,0.0,0.0,0.0,0.0,0.0,0.0,0.0,0.0,0.0,0.0,0.0,0.0,0.0,0.0,-0.4521,0.0,-0.5421,0.0,-0.4734,-0.5153,0.0,0.0,0.0,0.0,0.0,0.0,0.0,0.0,0.0,0.0,0.0,0.0,0.0,0.0,0.0,0.0,0.0,0.0,0.0,0.0,0.0,0.0,0.0,0.0,0.0,0.0,0.0,0.0,0.0,0.0,0.0,0.0,0.0,0.0,0.0,0.0,0.0,0.0,0.0,0.0,0.0,0.0,0.0,0.0,0.0,0.0,0.0,0.0,0.0,0.0,0.0,0.0,0.0,0.0,0.0,0.0,0.0,0.0,0.0,0.0,0.0,0.0,0.0,0.0,0.0,0.0,0.0,0.0,0.0,0.0,0.0,0.0,0.0,0.0,0.0,0.0,0.0,0.0,0.0,0.0,0.0,0.0,0.0,0.0,0.0,0.0,0.0,0.0,0.0,0.0,0.0,0.0,0.0,0.0,0.0,0.0,0.0,0.0,0.0,0.0,0.0,0.0,0.0,0.0,0.0,0.0,0.0,0.0,-0.4527,-0.4572,-0.5396,-0.5419,-0.4576,-0.5337,-0.5372,0.0,0.0,0.0,0.0,0.0,0.0,0.0,0.0,0.0,0.0,0.0,0.0,0.0,0.0,0.0,0.0,0.0,0.0,0.0,0.0,0.0,0.0,0.0,0.0,0.0,0.0,0.0,0.0,0.0,0.0,0.0,0.0,0.0,0.0,0.0,0.0,0.0,0.0,0.0,0.0,0.0,0.0,0.0,0.0,0.0,0.0,0.0,0.0,0.0,0.0,0.0,0.0,0.0,0.0,0.0,0.0,0.0,0.0,0.0,0.0,0.0,0.0,0.0,0.0,0.0,0.0,0.0,0.0,0.0,0.0,0.0,0.0,0.0,0.0,0.0,0.0,0.0,0.0,0.0,0.0,0.0,0.0,0.0,0.0,0.0,0.0,0.0,0.0,0.0,0.0,0.0,0.0,0.0,0.0,0.0,0.0,0.0,0.0,0.0,0.0,0.0,0.0,0.0,0.0,0.0,0.0,0.0,0.0,0.0,-0.627,-0.5992,-0.5989,-0.6227,-0.5424,-0.4766,0.0,0.0,0.0,0.0,0.0,0.0,0.0,0.0,0.0,0.0,0.0,0.0,0.0,0.0,0.0,0.0,0.0,0.0,0.0,0.0,0.0,0.0,0.0,0.0,0.0,0.0,0.0,0.0,0.0,0.0,0.0,0.0,0.0,0.0,0.0,0.0,0.0,0.0,0.0,0.0,0.0,0.0,0.0,0.0,0.0,0.0,0.0,0.0,0.0,0.0,0.0,0.0,0.0,0.0,0.0,0.0,0.0,0.0,0.0,0.0,0.0,0.0,0.0,0.0,0.0,0.0,0.0,0.0,0.0,0.0,0.0,0.0,0.0,0.0,0.0,0.0,0.0,0.0,0.0,0.0,0.0,0.0,0.0,0.0,0.0,0.0,0.0,0.0,0.0,0.0,0.0,0.0,0.0,0.0,0.0,0.0,0.0,0.0,0.0,0.0,0.0,0.0,0.0,0.0,0.0,0.0,0.0,0.0,0.0,-0.7,-0.65,-0.6322,-0.6798,-0.5858,-0.5061,-0.4533,0.0,0.0,0.0,0.0,0.0,0.0,0.0,0.0,0.0,0.0,0.0,0.0,0.0,0.0,0.0,0.0,0.0,0.0,0.0,0.0,0.0,0.0,0.0,0.0,0.0,0.0,0.0,0.0,0.0,0.0,0.0,0.0,0.0,0.0,0.0,0.0,0.0,0.0,0.0,0.0,0.0,0.0,0.0,0.0,0.0,0.0,0.0,0.0,0.0,0.0,0.0,0.0,0.0,0.0,0.0,0.0,0.0,0.0,0.0,0.0,0.0,0.0,0.0,0.0,0.0,0.0,0.0,0.0,0.0,0.0,0.0,0.0,0.0,0.0,0.0,0.0,0.0,0.0,0.0,0.0,0.0,0.0,0.0,0.0,0.0,0.0,0.0,0.0,0.0,0.0,0.0,0.0,0.0,0.0,0.0,0.0,0.0,0.0,0.0,0.0,0.0,0.0,0.0,0.0,0.0,0.0,0.0,0.0,-0.7102,-0.6927,-0.6656,-0.6465,-0.6577,-0.5999,0.0,0.0,0.0,0.0,0.0,0.0,0.0,0.0,0.0,0.0,0.0,0.0,0.0,0.0,0.0,0.0,0.0,0.0,0.0,0.0,0.0,0.0,0.0,0.0,0.0,0.0,0.0,0.0,0.0,0.0,0.0,0.0,0.0,0.0,0.0,0.0,0.0,0.0,0.0,0.0,0.0,0.0,0.0,0.0,0.0,0.0,0.0,0.0,0.0,0.0,0.0,0.0,0.0,0.0,0.0,0.0,0.0,0.0,0.0,0.0,0.0,0.0,0.0,0.0,0.0,0.0,0.0,0.0,0.0,0.0,0.0,0.0,0.0,0.0,0.0,0.0,0.0,0.0,0.0,0.0,0.0,0.0,0.0,0.0,0.0,0.0,0.0,0.0,0.0,0.0,0.0,0.0,0.0,0.0,0.0,0.0,0.0,0.0,0.0,0.0,0.0,0.0,0.0,0.0,0.0,0.0,0.0,0.0,0.0,-0.7712,-0.7464,-0.7416,-0.7503,-0.6537,-0.568,0.0,0.0,0.0,0.0,0.0,0.0,0.0,0.0,0.0,0.0,0.0,0.0,0.0,0.0,0.0,0.0,0.0,0.0,0.0,0.0,0.0,0.0,0.0,0.0,0.0,0.0,0.0,0.0,0.0,0.0,0.0,0.0,0.0,0.0,0.0,0.0,0.0,0.0,0.0,0.0,0.0,0.0,0.0,0.0,0.0,0.0,0.0,0.0,0.0,0.0,0.0,0.0,0.0,0.0,0.0,0.0,0.0,0.0,0.0,0.0,0.0,0.0,0.0,0.0,0.0,0.0,0.0,0.0,0.0,0.0,0.0,0.0,0.0,0.0,0.0,0.0,0.0,0.0,0.0,0.0,0.0,0.0,0.0,0.0,0.0,0.0,0.0,0.0,0.0,0.0,0.0,0.0,0.0,0.0,0.0,0.0,0.0,0.0,0.0,0.0,0.0,0.0,0.0,0.0,0.0,0.0,0.0,0.0,-0.6933,-0.8017,-0.7827,-0.7794,-0.7951,-0.7111,-0.6054,0.0,0.0,0.0,0.0,0.0,0.0,0.0,0.0,0.0,0.0,0.0,0.0,0.0,0.0,0.0,0.0,0.0,0.0,0.0,0.0,0.0,0.0,0.0,0.0,0.0,0.0,0.0,0.0,0.0,0.0,0.0,0.0,0.0,0.0,0.0,0.0,0.0,0.0,0.0,0.0,0.0,0.0,0.0,0.0,0.0,0.0,0.0,0.0,0.0,0.0,0.0,0.0,0.0,0.0,0.0,0.0,0.0,0.0,0.0,0.0,0.0,0.0,0.0,0.0,0.0,0.0,0.0,0.0,0.0,0.0,0.0,0.0,0.0,0.0,0.0,0.0,0.0,0.0,0.0,0.0,0.0,0.0,0.0,0.0,0.0,0.0,0.0,0.0,0.0,0.0,0.0,0.0,0.0,0.0,0.0,0.0,0.0,0.0,0.0,0.0,0.0,0.0,0.0,0.0,0.0,0.0,0.0,0.0,-0.6979,-0.7949,-0.8014,-0.7977,-0.8035,-0.7716,-0.6793,0.0,0.0,0.0,0.0,0.0,0.0,0.0,0.0,0.0,0.0,0.0,0.0,0.0,0.0,0.0,0.0,0.0,0.0,0.0,0.0,0.0,0.0,0.0,0.0,0.0,0.0,0.0,0.0,0.0,0.0,0.0,0.0,0.0,0.0,0.0,0.0,0.0,0.0,0.0,0.0,0.0,0.0,0.0,0.0,0.0,0.0,0.0,0.0,0.0,0.0,0.0,0.0,0.0,0.0,0.0,0.0,0.0,0.0,0.0,0.0,0.0,0.0,0.0,0.0,0.0,0.0,0.0,0.0,0.0,0.0,0.0,0.0,0.0,0.0,0.0,0.0,0.0,0.0,0.0,0.0,0.0,0.0,0.0,0.0,0.0,0.0,0.0,0.0,0.0,0.0,0.0,0.0,0.0,0.0,0.0,0.0,0.0,0.0,0.0,0.0,0.0,0.0,0.0,0.0,0.0,0.0,0.0,0.0,-0.7155,-0.7923,-0.7973,-0.8024,-0.7991,-0.7752,-0.7218,0.0,0.0,0.0,0.0,0.0,0.0,0.0,0.0,0.0,0.0,0.0,0.0,0.0,0.0,0.0,0.0,0.0,0.0,0.0,0.0,0.0,0.0,0.0,0.0,0.0,0.0,0.0,0.0,0.0,0.0,0.0,0.0,0.0,0.0,0.0,0.0,0.0,0.0,0.0,0.0,0.0,0.0,0.0,0.0,0.0,0.0,0.0,0.0,-0.9439,0.0,0.0,0.0,0.0,0.0,0.0,0.0,0.0,0.0,0.0,0.0,0.0,0.0,0.0,0.0,0.0,0.0,0.0,0.0,0.0,0.0,0.0,0.0,0.0,0.0,0.0,0.0,0.0,0.0,0.0,0.0,0.0,0.0,0.0,0.0,0.0,0.0,0.0,0.0,0.0,0.0,0.0,0.0,0.0,0.0,0.0,0.0,0.0,0.0,0.0,0.0,0.0,0.0,0.0,0.0,0.0,0.0,0.0,0.0,-0.7341,-0.7984,-0.8021,-0.8038,-0.8024,-0.7785,-0.7222,0.0,0.0,0.0,0.0,0.0,0.0,0.0,0.0,0.0,0.0,0.0,0.0,0.0,0.0,0.0,0.0,0.0,0.0,0.0,0.0,0.0,0.0,0.0,0.0,0.0,0.0,0.0,0.0,0.0,0.0,0.0,0.0,0.0,0.0,0.0,0.0,0.0,0.0,0.0,0.0,0.0,0.0,0.0,0.0,0.0,0.0,0.0,0.0,0.0,0.0,0.0,0.0,0.0,0.0,0.0,0.0,0.0,0.0,0.0,0.0,0.0,0.0,0.0,0.0,0.0,0.0,0.0,0.0,0.0,0.0,0.0,0.0,0.0,0.0,0.0,0.0,0.0,0.0,0.0,0.0,0.0,0.0,0.0,0.0,0.0,0.0,0.0,0.0,0.0,0.0,0.0,0.0,0.0,0.0,0.0,0.0,0.0,0.0,0.0,0.0,0.0,0.0,0.0,0.0,0.0,0.0,0.0,-0.6595,-0.7326,-0.7925,-0.7977,-0.8038,-0.8038,-0.7753,-0.7155,-0.6257,0.0,0.0,0.0,0.0,0.0,0.0,0.0,0.0,0.0,0.0,0.0,0.0,0.0,0.0,0.0,0.0,0.0,0.0,0.0,0.0,0.0,0.0,0.0,0.0,0.0,0.0,0.0,0.0,0.0,0.0,0.0,0.0,0.0,0.0,0.0,0.0,0.0,0.0,-0.9059,-0.9299,0.0,0.0,0.0,0.0,0.0,0.0,0.0,0.0,-0.9283,0.0,0.0,0.0,0.0,0.0,0.0,0.0,0.0,0.0,0.0,0.0,0.0,0.0,0.0,0.0,0.0,0.0,0.0,0.0,0.0,0.0,0.0,0.0,0.0,0.0,0.0,0.0,0.0,0.0,0.0,0.0,0.0,0.0,0.0,0.0,0.0,0.0,0.0,0.0,0.0,0.0,0.0,0.0,0.0,0.0,0.0,0.0,0.0,0.0,0.0,0.0,0.0,0.0,0.0,0.0,0.0,-0.6853,-0.6776,-0.717,-0.7977,-0.8024,-0.8038,-0.8031,-0.7753,-0.7058,-0.5928,0.0,0.0,0.0,0.0,0.0,0.0,0.0,0.0,0.0,0.0,0.0,0.0,0.0,0.0,0.0,0.0,0.0,0.0,0.0,0.0,0.0,0.0,0.0,0.0,0.0,0.0,0.0,0.0,0.0,0.0,0.0,0.0,0.0,0.0,0.0,0.0,0.0,0.0,0.0,-1.0505,-1.0675,0.0,0.0,0.0,0.0,0.0,0.0,0.0,0.0,-0.9475,0.0,0.0,0.0,0.0,0.0,0.0,0.0,0.0,0.0,0.0,0.0,0.0,0.0,0.0,0.0,0.0,0.0,0.0,0.0,0.0,0.0,0.0,0.0,0.0,0.0,0.0,0.0,0.0,0.0,0.0,0.0,0.0,0.0,0.0,0.0,0.0,0.0,0.0,0.0,0.0,0.0,0.0,0.0,0.0,0.0,0.0,0.0,0.0,0.0,0.0,0.0,0.0,0.0,0.0,0.0,-0.5804,-0.6701,-0.7448,-0.8018,-0.8038,-0.8038,-0.8024,-0.7336,-0.656,0.0,0.0,0.0,0.0,0.0,0.0,0.0,0.0,0.0,0.0,0.0,0.0,0.0,0.0,0.0,0.0,0.0,0.0,0.0,0.0,0.0,0.0,0.0,0.0,0.0,0.0,0.0,0.0,0.0,0.0,0.0,0.0,0.0,0.0,0.0,0.0,0.0,0.0,0.0,0.0,-1.087,-1.1049,-1.1209,0.0,0.0,0.0,0.0,0.0,0.0,-0.998,-1.0258,0.0,0.0,0.0,0.0,0.0,0.0,0.0,0.0,0.0,0.0,0.0,0.0,0.0,0.0,0.0,0.0,0.0,0.0,0.0,0.0,0.0,0.0,0.0,0.0,0.0,0.0,0.0,0.0,0.0,0.0,0.0,0.0,0.0,0.0,0.0,0.0,0.0,0.0,0.0,0.0,0.0,0.0,0.0,0.0,0.0,0.0,0.0,0.0,0.0,0.0,0.0,0.0,0.0,0.0,0.0,-0.4841,-0.6518,-0.7557,-0.8018,-0.8038,-0.8038,-0.8024,-0.7126,-0.6251,0.0,0.0,0.0,0.0,0.0,0.0,0.0,0.0,0.0,0.0,0.0,0.0,0.0,0.0,0.0,0.0,0.0,0.0,0.0,0.0,0.0,0.0,0.0,0.0,0.0,0.0,0.0,0.0,0.0,0.0,0.0,0.0,0.0,0.0,0.0,0.0,0.0,0.0,0.0,0.0,0.0,-1.1476,-1.1598,-1.1394,0.0,0.0,0.0,0.0,-0.9983,-1.0911,0.0,0.0,0.0,0.0,0.0,0.0,0.0,0.0,0.0,0.0,0.0,0.0,0.0,0.0,0.0,0.0,0.0,0.0,0.0,0.0,0.0,0.0,0.0,0.0,0.0,0.0,0.0,0.0,0.0,0.0,0.0,0.0,0.0,0.0,0.0,0.0,0.0,0.0,0.0,0.0,0.0,0.0,0.0,0.0,0.0,0.0,0.0,0.0,0.0,0.0,0.0,0.0,0.0,0.0,0.0,0.0,-0.5687,-0.6319,-0.7158,-0.7997,-0.8038,-0.8038,-0.8031,-0.7699,-0.6587,0.0,0.0,0.0,0.0,0.0,0.0,0.0,0.0,0.0,0.0,0.0,0.0,0.0,0.0,0.0,0.0,0.0,0.0,0.0,0.0,0.0,0.0,0.0,0.0,0.0,0.0,0.0,0.0,0.0,0.0,0.0,0.0,0.0,0.0,0.0,0.0,0.0,0.0,0.0,0.0,0.0,-1.2149,-1.0912,-1.1372,-1.185,0.0,0.0,-1.0077,-1.107,-1.1755,0.0,0.0,0.0,0.0,0.0,0.0,0.0,0.0,0.0,0.0,0.0,0.0,0.0,0.0,0.0,0.0,0.0,0.0,0.0,0.0,0.0,0.0,0.0,0.0,0.0,0.0,0.0,0.0,0.0,0.0,0.0,0.0,0.0,0.0,0.0,0.0,0.0,0.0,0.0,0.0,0.0,0.0,0.0,0.0,0.0,0.0,0.0,0.0,0.0,0.0,0.0,0.0,0.0,0.0,0.0,-0.539,-0.5079,-0.6337,-0.7356,-0.8018,-0.8038,-0.8038,-0.8038,-0.7519,-0.6922,0.0,0.0,0.0,0.0,0.0,0.0,0.0,0.0,0.0,0.0,0.0,0.0,0.0,0.0,0.0,0.0,0.0,0.0,0.0,0.0,0.0,0.0,0.0,0.0,0.0,0.0,0.0,0.0,0.0,0.0,0.0,0.0,0.0,0.0,0.0,0.0,0.0,0.0,0.0,0.0,0.0,0.0,-1.2107,-1.2542,0.0,0.0,0.0,-1.1328,-1.1853,0.0,0.0,0.0,0.0,0.0,0.0,0.0,0.0,0.0,0.0,0.0,0.0,0.0,0.0,0.0,0.0,0.0,0.0,0.0,0.0,0.0,0.0,0.0,0.0,0.0,0.0,0.0,0.0,0.0,0.0,0.0,0.0,0.0,0.0,0.0,0.0,0.0,0.0,0.0,0.0,0.0,0.0,0.0,0.0,0.0,0.0,0.0,0.0,0.0,0.0,0.0,0.0,0.0,0.0,0.0,0.0,0.0,-0.4535,-0.6422,-0.7644,-0.7925,-0.8038,-0.8038,-0.8024,-0.7368,0.0,0.0,0.0,0.0,0.0,0.0,0.0,0.0,0.0,0.0,0.0,0.0,0.0,0.0,0.0,0.0,0.0,0.0,0.0,0.0,0.0,0.0,0.0,0.0,0.0,0.0,0.0,-0.5269,0.0,0.0,0.0,0.0,0.0,0.0,0.0,0.0,0.0,0.0,0.0,0.0,0.0,0.0,-1.2255,-1.2868,-1.3464,-1.3814,0.0,0.0,-1.2824,-1.2962,-1.3186,-1.3146,0.0,0.0,0.0,0.0,0.0,0.0,0.0,0.0,0.0,0.0,0.0,0.0,0.0,0.0,0.0,0.0,0.0,0.0,0.0,0.0,0.0,0.0,0.0,0.0,0.0,0.0,0.0,0.0,0.0,0.0,0.0,0.0,0.0,0.0,0.0,0.0,0.0,0.0,0.0,0.0,0.0,0.0,0.0,0.0,0.0,0.0,0.0,0.0,0.0,0.0,0.0,0.0,0.0,0.0,0.0,-0.454,-0.6511,-0.774,-0.8024,-0.8038,-0.8038,-0.8031,-0.7383,-0.69,0.0,0.0,0.0,0.0,0.0,0.0,0.0,0.0,0.0,0.0,0.0,0.0,0.0,0.0,0.0,0.0,0.0,0.0,0.0,0.0,0.0,0.0,0.0,0.0,0.0,0.0,0.0,0.0,0.0,0.0,0.0,0.0,0.0,0.0,0.0,0.0,0.0,0.0,0.0,0.0,0.0,-1.3166,-1.2429,-1.3574,-1.4549,0.0,-1.4401,-1.4143,-1.4702,-1.4389,-1.3444,-1.1788,0.0,0.0,0.0,0.0,0.0,0.0,0.0,0.0,0.0,0.0,0.0,0.0,0.0,0.0,0.0,0.0,0.0,0.0,0.0,0.0,0.0,0.0,0.0,0.0,0.0,0.0,0.0,0.0,0.0,0.0,0.0,0.0,0.0,0.0,0.0,0.0,0.0,0.0,0.0,0.0,0.0,0.0,0.0,0.0,0.0,0.0,0.0,0.0,0.0,0.0,0.0,0.0,0.0,-0.4646,-0.6093,-0.7108,-0.7753,-0.7945,-0.7959,-0.7965,-0.7972,-0.7631,-0.6906,0.0,0.0,0.0,0.0,0.0,0.0,0.0,0.0,0.0,0.0,0.0,0.0,0.0,0.0,0.0,0.0,0.0,0.0,0.0,0.0,0.0,0.0,0.0,0.0,0.0,0.0,0.0,0.0,-0.5789,-0.609,-0.5792,0.0,0.0,0.0,0.0,0.0,0.0,0.0,0.0,0.0,0.0,-1.3341,-1.387,-1.4612,0.0,0.0,-1.4929,-1.4863,-1.5368,-1.4414,-1.3329,-1.2608,-1.2151,0.0,0.0,0.0,0.0,0.0,0.0,0.0,0.0,0.0,0.0,0.0,0.0,0.0,0.0,0.0,0.0,0.0,0.0,0.0,0.0,0.0,0.0,0.0,0.0,0.0,0.0,0.0,0.0,0.0,0.0,0.0,0.0,0.0,0.0,0.0,0.0,0.0,0.0,0.0,0.0,0.0,0.0,0.0,0.0,0.0,0.0,0.0,0.0,0.0,0.0,0.0,0.0,-0.4176,-0.7016,-0.7285,-0.7614,-0.7972,-0.6442,-0.6342,-0.7879,-0.7102,-0.6299,0.0,0.0,0.0,0.0,0.0,0.0,0.0,0.0,0.0,0.0,0.0,0.0,0.0,0.0,0.0,0.0,0.0,0.0,0.0,0.0,0.0,0.0,0.0,0.0,0.0,0.0,0.0,0.0,-0.5457,-0.5553,-0.5257,0.0,0.0,0.0,0.0,0.0,0.0,0.0,0.0,0.0,0.0,-1.3811,-1.4927,-1.5048,-1.4939,-1.4952,-1.5097,-1.5365,-1.5773,-1.4767,-1.3874,-1.3561,0.0,0.0,0.0,0.0,0.0,0.0,0.0,0.0,0.0,0.0,0.0,0.0,0.0,0.0,0.0,0.0,0.0,0.0,0.0,0.0,0.0,0.0,0.0,0.0,0.0,0.0,0.0,-0.2079,0.0,0.0,-0.4386,0.0,0.0,0.0,0.0,0.0,0.0,0.0,0.0,0.0,0.0,0.0,0.0,0.0,0.0,0.0,0.0,0.0,0.0,0.0,0.0,0.0,0.0,-0.24,-0.6972,-0.7047,-0.7334,-0.7779,-0.2907,-0.2707,-0.7572,-0.5519,-0.5064,-0.6953,0.0,0.0,0.0,0.0,0.0,0.0,0.0,0.0,0.0,0.0,0.0,0.0,0.0,0.0,0.0,0.0,0.0,0.0,0.0,0.0,0.0,0.0,0.0,0.0,0.0,0.0,-0.4505,-0.4512,-0.4567,0.0,0.0,0.0,0.0,0.0,0.0,0.0,0.0,0.0,0.0,-1.3762,-1.5044,-1.5351,-1.4571,-1.4052,-1.3957,-1.4921,-1.5747,-1.5691,-1.5667,-1.5318,0.0,0.0,0.0,0.0,0.0,0.0,0.0,0.0,0.0,0.0,0.0,0.0,0.0,0.0,0.0,0.0,0.0,0.0,0.0,0.0,0.0,0.0,0.0,0.0,0.0,0.0,0.0,-0.0257,-0.0682,0.0,0.0,0.0,0.0,0.0,0.0,0.0,0.0,0.0,0.0,0.0,-0.3686,-0.5444,0.0,0.0,0.0,0.0,0.0,0.0,0.0,0.0,0.0,0.0,0.0,0.0,-0.0786,-0.2462,-0.5526,-0.5645,-0.2714,-0.0904,-0.0905,-0.262,-0.5121,-0.6647,-0.702,0.0,0.0,0.0,0.0,0.0,0.0,0.0,0.0,0.0,0.0,0.0,0.0,0.0,0.0,0.0,0.0,0.0,0.0,0.0,0.0,0.0,0.0,0.0,0.0,0.0,-0.4463,0.0,0.0,0.0,0.0,0.0,0.0,0.0,0.0,0.0,0.0,0.0,-1.3494,-1.3016,-1.4321,-1.5351,-1.5645,-1.5373,-1.514,0.0,0.0,0.0,0.0,0.0,0.0,0.0,0.0,0.0,0.0,0.0,0.0,0.0,0.0,-1.3867,-1.1577,-1.1141,-1.1095,-1.1095,0.0,0.0,0.0,0.0,0.0,0.0,0.0,0.0,0.0,0.0,0.0,0.0,0.0,0.0,0.0,0.0,0.0,0.0,0.0,0.0,0.0,0.0,0.0,0.0,0.0,-0.6178,-0.5731,-0.423,-0.4505,-0.4923,0.0,-0.1755,0.0,0.0,0.0,0.0,0.0,0.0,0.0,0.0,0.0,0.0,0.0,-0.303,-0.3086,0.0,0.0,0.0,0.0,-0.4168,-0.6649,-0.7267,-0.6492,-0.5748,0.0,0.0,0.0,0.0,0.0,0.0,0.0,0.0,0.0,0.0,0.0,0.0,0.0,0.0,0.0,0.0,0.0,0.0,0.0,0.0,0.0,0.0,0.0,-0.4463,0.0,0.0,0.0,0.0,0.0,0.0,0.0,0.0,0.0,-1.1911,-1.4075,-1.5049,-1.4318,-1.4955,-1.5658,-1.5939,0.0,0.0,0.0,0.0,0.0,0.0,0.0,-1.5153,-1.5722,-1.5134,-1.471,-1.4696,-1.5177,-1.5565,-1.5551,0.0,0.0,-1.3854,-1.3557,-1.4065,-1.5715,-1.7934,-2.0159,-2.1963,-2.0898,-1.9687,0.0,0.0,0.0,0.0,0.0,0.0,0.0,0.0,0.0,0.0,0.0,0.0,0.0,0.0,0.0,0.0,0.0,0.0,0.0,0.0,-0.5307,-0.7451,-0.6429,-0.218,-0.182,-0.4867,-0.1613,0.0,0.0,0.0,0.0,0.0,0.0,0.0,0.0,0.0,0.0,0.0,0.0,0.0,0.0,0.0,0.0,0.0,-0.267,-0.5193,-0.7519,-0.7052,-0.6519,-0.6002,-0.5365,0.0,0.0,0.0,0.0,0.0,0.0,0.0,0.0,0.0,0.0,0.0,0.0,0.0,0.0,0.0,0.0,0.0,0.0,0.0,0.0,-0.4525,0.0,0.0,0.0,0.0,0.0,0.0,0.0,0.0,0.0,0.0,-1.4363,-1.546,-1.5824,-1.5684,0.0,0.0,0.0,0.0,-1.4004,-1.4004,-1.291,-1.2053,-1.2073,-1.4714,-1.6473,-1.5993,0.0,0.0,-1.5965,-1.6326,-1.65,-1.5979,-1.6326,-1.6526,-1.5912,-1.5659,-1.7198,-2.1808,-2.2755,-2.3103,-2.3076,-2.2458,-2.2006,0.0,0.0,0.0,0.0,0.0,0.0,0.0,0.0,0.0,0.0,0.0,0.0,0.0,0.0,0.0,0.0,0.0,0.0,0.0,0.0,-0.1661,-0.218,-0.1987,-0.0611,-0.0512,-0.1516,-0.0505,0.0,0.0,0.0,0.0,0.0,0.0,0.0,0.0,0.0,0.0,0.0,0.0,0.0,0.0,0.0,0.0,0.0,-0.2571,-0.5262,-0.7842,-0.7471,-0.6973,-0.6532,-0.6105,0.0,0.0,0.0,0.0,0.0,0.0,0.0,0.0,0.0,0.0,0.0,0.0,0.0,0.0,0.0,0.0,0.0,0.0,0.0,-0.4613,-0.4626,-0.4796,0.0,0.0,0.0,0.0,0.0,0.0,0.0,0.0,0.0,-1.5965,-1.6323,-1.6008,0.0,0.0,-1.6098,-1.4974,-1.5468,-1.5939,-1.5939,-1.5171,0.0,-1.5295,-1.6473,-1.7274,-1.7131,-1.6873,-1.6714,-1.6767,-1.674,-1.6714,-1.674,-1.6727,-1.6647,-1.6473,-1.6128,-1.7601,-2.1848,-2.3568,-2.4019,-2.3988,-2.384,-2.3711,0.0,0.0,0.0,0.0,0.0,0.0,0.0,0.0,0.0,0.0,0.0,0.0,0.0,0.0,0.0,0.0,0.0,0.0,0.0,0.0,0.0,0.0,0.0,0.0,0.0,0.0,0.0,0.0,0.0,0.0,0.0,0.0,0.0,0.0,0.0,0.0,0.0,0.0,0.0,0.0,0.0,0.0,0.0,0.0,-0.1592,-0.4157,-0.7865,-0.7801,-0.7471,-0.698,-0.6627,-0.6078,0.0,0.0,0.0,0.0,0.0,0.0,0.0,0.0,0.0,0.0,0.0,-0.4464,-0.409,0.0,0.0,0.0,-0.4875,-0.5214,-0.5178,-0.5237,0.0,0.0,0.0,0.0,0.0,0.0,0.0,-1.0602,-1.3668,-1.6116,-1.6952,-1.7064,-1.667,-1.557,-1.6147,-1.6373,-1.5595,0.0,-1.67,-1.67,-1.6465,-1.6416,-1.6645,-1.7177,-1.7649,-1.7599,-1.7292,-1.7114,-1.7275,-1.7168,-1.7128,-1.7248,-1.7168,-1.7034,-1.7056,-1.6746,-1.8086,-2.3015,-2.4542,-2.4921,-2.4921,-2.4657,-2.4414,0.0,0.0,0.0,0.0,0.0,0.0,0.0,0.0,0.0,0.0,0.0,0.0,0.0,0.0,0.0,0.0,0.0,0.0,0.0,0.0,0.0,0.0,0.0,0.0,0.0,0.0,0.0,0.0,0.0,0.0,0.0,0.0,0.0,0.0,0.0,0.0,0.0,0.0,0.0,0.0,0.0,0.0,0.0,0.0,0.0,-0.2406,-0.7353,-0.7916,-0.7787,-0.738,-0.6953,-0.6451,-0.5867,0.0,0.0,0.0,0.0,0.0,0.0,0.0,0.0,0.0,0.0,0.0,0.0,0.0,0.0,0.0,-0.5459,0.0,-0.5906,-0.6118,0.0,0.0,0.0,-0.7342,-0.9231,-1.15,-1.2565,-1.1566,0.0,0.0,-1.7449,-1.7633,-1.7531,-1.7298,-1.6941,-1.686,-1.7012,-1.6839,-1.6767,-1.6807,-1.6892,-1.6949,-1.6846,-1.7251,-1.762,-1.7634,-1.7582,-1.7555,-1.7569,-1.7569,-1.7569,-1.7569,-1.7674,-1.7711,-1.7639,-1.7701,-1.9491,-2.4657,-2.565,-2.5684,-2.5591,-2.5099,-2.4609,0.0,0.0,0.0,0.0,0.0,0.0,0.0,0.0,0.0,0.0,0.0,0.0,0.0,0.0,0.0,0.0,0.0,0.0,0.0,0.0,0.0,0.0,0.0,0.0,0.0,0.0,0.0,0.0,0.0,0.0,0.0,0.0,0.0,0.0,0.0,0.0,0.0,0.0,0.0,0.0,0.0,0.0,0.0,0.0,0.0,-0.1475,-0.4528,-0.6678,-0.7677,-0.7373,-0.7054,-0.6654,-0.6173,-0.5728,0.0,0.0,0.0,0.0,0.0,0.0,0.0,0.0,0.0,-0.5535,-0.4701,0.0,-0.5729,0.0,-0.5795,-0.6821,-0.662,-0.6565,0.0,0.0,-0.7312,-0.8552,-1.1473,-1.2997,-1.4201,-1.5295,-1.6377,-1.7292,-1.7592,-1.7576,-1.7593,-1.7475,-1.7422,-1.7003,-1.5927,-1.6665,-1.7368,-1.7368,-1.7422,-1.7475,-1.7357,-1.7528,-1.7582,-1.7582,-1.7582,-1.7582,-1.7582,-1.7582,-1.7582,-1.7687,-1.8513,-1.8622,-1.7846,-1.9254,-2.1795,-2.4918,-2.5723,-2.57,-2.5681,-2.5526,-2.541,0.0,0.0,0.0,0.0,0.0,0.0,0.0,0.0,0.0,0.0,0.0,0.0,0.0,0.0,0.0,0.0,0.0,0.0,0.0,0.0,0.0,0.0,0.0,0.0,0.0,0.0,0.0,0.0,0.0,0.0,0.0,0.0,0.0,0.0,0.0,0.0,0.0,0.0,0.0,0.0,0.0,0.0,0.0,0.0,0.0,-0.118,-0.3572,-0.608,-0.7396,-0.7285,-0.7109,-0.6817,-0.6376,-0.6286,-0.5727,0.0,0.0,0.0,0.0,0.0,0.0,0.0,0.0,0.0,0.0,0.0,-0.6741,-0.5833,-0.6993,-0.7573,-0.7238,-0.7366,-0.7631,-0.7957,-0.7997,-0.9045,-1.1548,-1.2368,-1.3784,-1.6782,-1.741,-1.7662,-1.7982,-1.7996,-1.7983,-1.7983,-1.7983,-1.7609,-1.6596,-1.7055,-1.7582,-1.7582,-1.7582,-1.7582,-1.7582,-1.7582,-1.7582,-1.7582,-1.7582,-1.7582,-1.7582,-1.7582,-1.7582,-1.7687,-1.8708,-1.9598,-1.9463,-2.0559,-2.2542,-2.4881,-2.5742,-2.5742,-2.5723,-2.5723,-2.5723,0.0,0.0,0.0,0.0,0.0,0.0,0.0,0.0,0.0,0.0,0.0,0.0,0.0,0.0,0.0,0.0,0.0,0.0,0.0,0.0,0.0,0.0,0.0,0.0,0.0,0.0,0.0,0.0,0.0,0.0,0.0,0.0,0.0,0.0,0.0,0.0,0.0,0.0,0.0,0.0,0.0,0.0,0.0,0.0,-0.0598,-0.1774,-0.3521,-0.5893,-0.7139,-0.7115,-0.717,-0.6987,-0.658,-0.6648,-0.6247,0.0,-0.6022,0.0,0.0,0.0,0.0,0.0,0.0,0.0,0.0,-0.6993,-0.7375,-0.7964,-0.8375,-0.8357,-0.7859,-0.824,-0.852,-0.854,-0.8554,-0.9261,-1.0692,-1.0923,-1.2577,-1.6576,-1.7444,-1.7974,-1.8477,-1.8628,-1.8615,-1.8464,-1.845,-1.825,-1.7822,-1.7689,-1.7662,-1.7635,-1.7609,-1.7582,-1.7582,-1.7582,-1.7582,-1.7582,-1.7582,-1.7582,-1.7582,-1.7582,-1.7687,-1.8003,-1.9063,-2.0292,-2.1473,-2.1946,-2.3061,-2.5271,-2.5859,-2.5918,-2.5762,-2.5723,-2.5723,0.0,0.0,0.0,0.0,0.0,0.0,0.0,0.0,0.0,0.0,0.0,0.0,0.0,0.0,0.0,0.0,0.0,0.0,0.0,0.0,0.0,0.0,0.0,0.0,0.0,0.0,0.0,0.0,0.0,0.0,0.0,0.0,0.0,0.0,0.0,0.0,0.0,0.0,0.0,0.0,0.0,0.0,0.0,0.0,-0.3723,0.0,-0.3799,-0.6018,-0.7349,-0.7333,-0.7326,0.0,0.0,0.0,0.0,0.0,0.0,0.0,0.0,0.0,0.0,0.0,-0.6993,-0.6892,-0.6905,-0.7244,-0.7697,-0.7938,-0.8514,-0.883,-0.8716,-0.8666,-0.8716,-0.8838,-0.8954,-0.9637,-1.1134,-1.1377,-1.2203,-1.3841,-1.6558,-1.8512,-1.9054,-1.9195,-1.9015,-1.8655,-1.8504,-1.845,-1.8343,-1.8116,-1.7956,-1.7943,-1.7769,-1.7609,-1.7582,-1.7609,-1.7649,-1.7582,-1.7582,-1.7595,-1.7622,-1.7714,-1.8108,-1.8945,-2.0669,-2.1713,-2.1775,-2.3454,-2.4979,-2.5597,-2.6237,-2.6562,-2.5898,-2.5742,-2.6014,0.0,0.0,0.0,0.0,0.0,0.0,0.0,0.0,0.0,0.0,0.0,0.0,0.0,0.0,0.0,0.0,0.0,0.0,0.0,0.0,0.0,0.0,0.0,0.0,0.0,0.0,0.0,0.0,0.0,0.0,0.0,0.0,0.0,0.0,0.0,0.0,0.0,0.0,0.0,0.0,0.0,0.0,0.0,0.0,-0.2271,0.0,0.0,0.0,0.0,0.0,0.0,0.0,0.0,0.0,0.0,-0.6939,-0.7607,-0.7964,-0.7952,-0.7567,-0.7339,-0.757,-0.7658,-0.7537,-0.7297,-0.7753,-0.818,-0.837,-0.873,-0.8983,-0.9138,-0.8996,-0.8988,-0.9137,-0.9225,-0.9638,-1.0278,-1.0524,-1.0747,-1.1306,-1.2946,-1.5238,-1.8911,-1.9367,-1.9312,-1.9045,-1.8918,-1.8918,-1.8878,-1.8544,-1.8263,-1.8263,-1.7899,-1.7672,-1.8023,-1.8036,-1.8023,-1.8036,-1.8036,-1.8036,-1.8036,-1.8656,-1.9377,-2.0227,-2.2038,-2.3307,-2.2671,-2.4458,-2.6468,-2.6871,-2.7294,-2.8046,-2.8557,-2.7945,-2.7008,0.0,0.0,0.0,0.0,0.0,0.0,0.0,0.0,0.0,0.0,0.0,0.0,0.0,0.0,0.0,0.0,0.0,0.0,0.0,0.0,0.0,0.0,0.0,0.0,0.0,0.0,0.0,0.0,0.0,0.0,0.0,0.0,0.0,0.0,0.0,0.0,0.0,0.0,0.0,0.0,0.0,0.0,0.0,0.0,0.0,-0.2176,-0.6727,-0.7414,-0.7548,-0.7468,-0.7475,-0.7382,-0.7263,-0.7283,-0.7295,-0.7196,-0.7738,-0.7952,-0.7959,-0.7997,-0.8038,-0.7936,-0.8187,-0.8186,-0.7749,-0.817,-0.8587,-0.8852,-0.8994,-0.9113,-0.9363,-0.9298,-0.9252,-0.9401,-0.9422,-0.9429,-0.9456,-0.9806,-0.993,-0.9559,-1.0259,-1.2552,-1.8468,-1.9359,-1.9372,-1.9359,-1.9319,-1.9372,-1.9305,-1.8891,-1.8544,-1.8464,-1.8053,-1.7968,-1.8353,-1.8588,-1.8615,-1.8561,-1.8464,-1.8601,-1.903,-1.9866,-2.0816,-2.1616,-2.3508,-2.4437,-2.4052,-2.5655,-2.7388,-2.8101,-2.8347,-2.9126,-3.134,-3.0406,-2.8882,0.0,0.0,0.0,0.0,0.0,0.0,0.0,0.0,0.0,0.0,0.0,0.0,0.0,0.0,0.0,0.0,0.0,0.0,0.0,0.0,0.0,0.0,0.0,0.0,0.0,0.0,0.0,0.0,0.0,0.0,0.0,0.0,0.0,0.0,0.0,0.0,0.0,0.0,0.0,0.0,0.0,0.0,0.0,0.0,0.0,-0.1373,-0.4388,-0.6554,-0.7717,-0.7753,-0.7875,-0.7889,-0.776,-0.7771,-0.7805,-0.753,-0.7831,-0.8011,-0.8011,-0.8153,-0.8282,-0.8384,-0.8554,-0.8528,-0.8401,-0.8434,-0.8629,-0.8893,-0.9126,-0.9335,-0.9391,-0.9394,-0.9408,-0.9551,-0.9578,-0.9625,-0.9727,-1.0928,-1.1256,-1.0137,-1.225,-1.5024,-1.8583,-1.9426,-1.9372,-1.9372,-1.9372,-1.9372,-1.9319,-1.9078,-1.8771,-1.8557,-1.849,-1.8366,-1.8433,-1.8877,-1.9056,-1.8863,-1.8766,-1.9099,-2.0172,-2.0798,-2.1866,-2.393,-2.5056,-2.5729,-2.6199,-2.7333,-2.7988,-2.8298,-2.8404,-2.9411,-3.1825,-3.1595,-3.1308,0.0,0.0,0.0,0.0,0.0,0.0,0.0,0.0,0.0,0.0,0.0,0.0,0.0,0.0,0.0,0.0,0.0,0.0,0.0,0.0,0.0,0.0,0.0,0.0,0.0,0.0,0.0,0.0,0.0,0.0,0.0,0.0,0.0,0.0,0.0,0.0,0.0,0.0,0.0,0.0,0.0,0.0,0.0,0.0,0.0,-0.1293,-0.3966,-0.6465,-0.7865,-0.7936,-0.8004,-0.8011,-0.7943,-0.8004,-0.7912,-0.7845,-0.7979,-0.8167,-0.8268,-0.8405,-0.8445,-0.8594,-0.8669,-0.8743,-0.8716,-0.8722,-0.8783,-0.8923,-0.9229,-0.9453,-0.962,-0.9586,-0.9564,-0.9707,-0.972,-0.9747,-0.9923,-1.1253,-1.22,-1.2516,-1.3641,-1.5792,-1.8946,-1.9399,-1.9372,-1.9372,-1.9372,-1.9372,-1.9372,-1.9252,-1.9118,-1.8998,-1.8971,-1.8971,-1.8831,-1.9098,-1.9339,-1.9098,-1.9737,-2.0384,-2.1249,-2.223,-2.4071,-2.529,-2.631,-2.7169,-2.7699,-2.7999,-2.8262,-2.8408,-2.9611,-3.0998,-3.2037,-3.3169,-3.4126,0.0,0.0,0.0,0.0,0.0,0.0,0.0,0.0,0.0,0.0,0.0,0.0,0.0,0.0,0.0,0.0,0.0,0.0,0.0,0.0,0.0,0.0,0.0,0.0,0.0,0.0,0.0,0.0,0.0,0.0,0.0,0.0,0.0,0.0,0.0,0.0,0.0,0.0,0.0,0.0,0.0,0.0,0.0,0.0,0.0,-0.1327,-0.4068,-0.6737,-0.8079,-0.814,-0.8119,-0.8119,-0.8039,-0.8059,-0.8059,-0.8052,-0.8248,-0.844,-0.8481,-0.8577,-0.8601,-0.875,-0.8764,-0.8811,-0.892,-0.8856,-0.8917,-0.8904,-0.9298,-0.9557,-0.9787,-0.9758,-0.97,-0.9808,-0.9822,-1.0058,-1.0422,-1.1736,-1.3159,-1.444,-1.5215,-1.6751,-1.8739,-1.9372,-1.9372,-1.9372,-1.9372,-1.9372,-1.9372,-1.9372,-1.9372,-1.9372,-1.9372,-1.9332,-1.9372,-1.9345,-1.9693,-2.0095,-2.0931,-2.1866,-2.2639,-2.4675,-2.6136,-2.6553,-2.7473,-2.8028,-2.8281,-2.8281,-2.8242,-2.8502,-3.0203,-3.2207,-3.2846,-3.463,-3.6013,0.0,0.0,0.0,0.0,0.0,0.0,0.0,0.0,0.0,0.0,0.0,0.0,0.0,0.0,0.0,0.0,0.0,0.0,0.0,0.0,0.0,0.0,0.0,0.0,0.0,0.0,0.0,0.0,0.0,0.0,0.0,0.0,0.0,0.0,0.0,0.0,0.0,0.0,0.0,0.0,0.0,0.0,0.0,0.0,0.0,-0.1377,-0.432,-0.7001,-0.8486,-0.8438,-0.846,-0.835,-0.832,-0.8414,-0.8315,-0.8014,-0.834,-0.852,-0.8655,-0.8682,-0.8757,-0.8899,-0.8906,-0.892,-0.8947,-0.8943,-0.8897,-0.9064,-0.9401,-0.9792,-0.9836,-0.972,-0.9795,-0.9815,-0.9822,-1.0301,-1.1736,-1.3407,-1.445,-1.4565,-1.6879,-1.9113,-1.9243,-1.9372,-1.9372,-1.9372,-1.9372,-1.9372,-1.9372,-1.9372,-1.9372,-1.9372,-1.9372,-1.9372,-1.9372,-1.9488,-2.0571,-2.2627,-2.2389,-2.2958,-2.4582,-2.57,-2.6499,-2.7511,-2.8067,-2.8301,-2.8301,-2.8281,-2.8251,-2.8725,-3.0453,-3.2766,-3.4012,-3.5355,-3.6113,0.0,0.0,0.0,0.0,0.0,0.0,0.0,0.0,0.0,0.0,0.0,0.0,0.0,0.0,0.0,0.0,0.0,0.0,0.0,0.0,0.0,0.0,0.0,0.0,0.0,0.0,0.0,0.0,0.0,0.0,0.0,0.0,0.0,0.0,0.0,0.0,0.0,0.0,0.0,0.0,0.0,0.0,0.0,0.0,-0.3414,-0.4797,-0.4778,-0.7129,-0.8513,-0.8486,-0.8549,-0.8445,-0.8374,-0.852,-0.8526,-0.8492,-0.868,-0.8797,-0.8832,-0.8845,-0.8872,-0.8933,-0.894,-0.8856,-0.8937,-0.8884,-0.9097,-0.9401,-0.96,-0.9822,-0.9834,-0.9788,-0.9822,-0.9822,-0.9822,-1.0422,-1.2097,-1.3646,-1.4559,-1.481,-1.737,-1.9372,-1.9372,-1.9372,-1.9372,-1.9372,-1.9372,-1.9372,-1.9372,-1.9372,-1.9372,-1.9372,-1.9372,-1.9372,-1.9475,-2.1061,-2.2398,-2.3456,-2.4099,-2.5041,-2.57,-2.6933,-2.7618,-2.8194,-2.8301,-2.8301,-2.8301,-2.8278,-2.8291,-2.9188,-3.2028,-3.4932,-3.5477,-3.5953,-3.6358,0.0,0.0,0.0,0.0,0.0,0.0,0.0,0.0,0.0,0.0,0.0,0.0,0.0,0.0,0.0,0.0,0.0,0.0,0.0,0.0,0.0,0.0,0.0,0.0,0.0,0.0,0.0,0.0,0.0,0.0,0.0,0.0,0.0,0.0,0.0,0.0,0.0,0.0,0.0,0.0,0.0,0.0,0.0,0.0,-0.5746,-0.7923,-0.5934,-0.7666,-0.8628,-0.8608,-0.8608,-0.8608,-0.8608,-0.8608,-0.8714,-0.8835,-0.8932,-0.8934,-0.8933,-0.894,-0.894,-0.894,-0.894,-0.8883,-0.8891,-0.8957,-0.9211,-0.9683,-0.9765,-0.984,-0.9795,-0.9822,-0.9822,-0.9822,-1.0058,-1.114,-1.2689,-1.4242,-1.5515,-1.6038,-1.8106,-1.9372,-1.9372,-1.9372,-1.9372,-1.9372,-1.9372,-1.9372,-1.9372,-1.9372,-1.9372,-1.9372,-1.9372,-1.9448,-1.9652,-2.175,-2.3586,-2.5052,-2.5785,-2.5936,-2.6499,-2.7726,-2.8281,-2.8301,-2.8301,-2.8281,-2.8262,-2.8305,-2.9456,-3.0874,-3.3568,-3.6232,-3.6243,-3.6383,-3.6358,0.0,0.0,0.0,0.0,0.0,0.0,0.0,0.0,0.0,0.0,0.0,0.0,0.0,0.0,0.0,0.0,0.0,0.0,0.0,0.0,0.0,0.0,0.0,0.0,0.0,0.0,0.0,0.0,0.0,0.0,0.0,0.0,0.0,0.0,0.0,0.0,0.0,0.0,0.0,0.0,0.0,0.0,0.0,0.0,-0.5708,-0.8523,-0.8628,-0.8732,-0.8933,-0.8913,-0.8899,-0.8906,-0.8906,-0.8906,-0.8899,-0.8906,-0.8913,-0.8927,-0.8933,-0.894,-0.894,-0.8947,-0.8954,-0.8897,-0.895,-0.9185,-0.9449,-0.9724,-0.9854,-0.9808,-0.9815,-0.9822,-0.9822,-1.0058,-1.1261,-1.2569,-1.4361,-1.5784,-1.7455,-1.8622,-1.9113,-1.9372,-1.9372,-1.9372,-1.9372,-1.9372,-1.9372,-1.9372,-1.9372,-1.9372,-1.9372,-1.9359,-1.9461,-1.9408,-1.969,-2.2616,-2.5233,-2.6424,-2.6701,-2.6608,-2.7511,-2.8301,-2.8301,-2.8408,-2.8495,-2.8581,-2.8416,-2.939,-3.1287,-3.2986,-3.463,-3.6433,-3.6383,-3.6477,-3.6546,0.0,0.0,0.0,0.0,0.0,0.0,0.0,0.0,0.0,0.0,0.0,0.0,0.0,0.0,0.0,0.0,0.0,0.0,0.0,0.0,0.0,0.0,0.0,0.0,0.0,0.0,0.0,0.0,0.0,0.0,0.0,0.0,0.0,0.0,0.0,0.0,0.0,0.0,0.0,0.0,0.0,0.0,0.0,0.0,-0.3916,-0.6953,-0.887,-0.8967,-0.8947,-0.894,-0.894,-0.894,-0.894,-0.894,-0.894,-0.894,-0.894,-0.894,-0.894,-0.894,-0.8981,-0.9069,-0.9076,-0.9064,-0.9033,-0.9255,-0.9466,-0.972,-0.9781,-0.9822,-0.9822,-0.9822,-1.0179,-1.1253,-1.1856,-1.3407,-1.5419,-1.6727,-1.7677,-1.901,-1.9372,-1.9372,-1.9372,-1.9372,-1.9372,-1.9372,-1.9372,-1.9372,-1.9372,-1.9372,-1.9475,-1.9448,-1.9469,-1.9407,-1.9401,-2.3729,-2.716,-2.76,-2.7848,-2.7676,-2.8194,-2.8301,-2.8301,-2.8495,-2.8708,-2.9472,-2.9495,-3.0402,-3.2384,-3.463,-3.6408,-3.6502,-3.6358,-3.6947,-3.7268,0.0,0.0,0.0,0.0,0.0,0.0,0.0,0.0,0.0,0.0,0.0,0.0,0.0,0.0,0.0,0.0,0.0,0.0,0.0,0.0,0.0,0.0,0.0,0.0,0.0,0.0,0.0,0.0,0.0,0.0,0.0,0.0,0.0,0.0,0.0,0.0,0.0,0.0,0.0,0.0,0.0,0.0,0.0,0.0,-0.3798,-0.6831,-0.8863,-0.8954,-0.894,-0.894,-0.894,-0.894,-0.894,-0.894,-0.894,-0.894,-0.894,-0.896,-0.9001,-0.9008,-0.9069,-0.9211,-0.9232,-0.9225,-0.909,-0.9242,-0.9553,-0.9781,-0.9822,-1.0065,-1.105,-1.0914,-1.102,-1.2209,-1.3168,-1.4589,-1.6727,-1.7443,-1.8286,-1.9127,-1.9372,-1.9372,-1.9372,-1.9372,-1.9372,-1.9372,-1.9372,-1.9372,-1.9372,-1.9809,-2.0141,-1.9998,-1.9649,-2.016,-2.1233,-2.5034,-2.7418,-2.8033,-2.8261,-2.8252,-2.8301,-2.8301,-2.8388,-2.8601,-2.9282,-3.0244,-3.0997,-3.1761,-3.357,-3.5879,-3.6597,-3.6597,-3.7041,-3.7782,-3.8187,0.0,0.0,0.0,0.0,0.0,0.0,0.0,0.0,0.0,0.0,0.0,0.0,0.0,0.0,0.0,0.0,0.0,0.0,0.0,0.0,0.0,0.0,0.0,0.0,0.0,0.0,0.0,0.0,0.0,0.0,0.0,0.0,0.0,0.0,0.0,0.0,0.0,0.0,0.0,0.0,0.0,0.0,0.0,0.0,-0.5485,-0.8654,-0.8863,-0.8947,-0.894,-0.894,-0.894,-0.894,-0.894,-0.894,-0.894,-0.894,-0.894,-0.9015,-0.9123,-0.915,-0.9225,-0.9354,-0.9388,-0.9449,-0.9361,-0.9394,-0.956,-0.9788,-1.0186,-1.1171,-1.3509,-1.3222,-1.2569,-1.2577,-1.4945,-1.6609,-1.7325,-1.8402,-1.9372,-1.9372,-1.9372,-1.9372,-1.9372,-1.9372,-1.9372,-1.9372,-1.9372,-1.9591,-1.9809,-2.0587,-2.1358,-2.1398,-2.1077,-2.1188,-2.3508,-2.6136,-2.7352,-2.8291,-2.8252,-2.8301,-2.8301,-2.8301,-2.8601,-2.89,-3.0618,-3.1578,-3.2849,-3.3546,-3.4125,-3.5854,-3.6213,-3.7262,-3.8175,-3.8933,-3.9264,0.0,0.0,0.0,0.0,0.0,0.0,0.0,0.0,0.0,0.0,0.0,0.0,0.0,0.0,0.0,0.0,0.0,0.0,0.0,0.0,0.0,0.0,0.0,0.0,0.0,0.0,0.0,0.0,0.0,0.0,0.0,0.0,0.0,0.0,0.0,0.0,0.0,0.0,0.0,0.0,0.0,0.0,0.0,0.0,-0.581,-0.8863,-0.8954,-0.894,-0.894,-0.894,-0.894,-0.894,-0.894,-0.894,-0.894,-0.8954,-0.9154,-0.9216,-0.9157,-0.9259,-0.9381,-0.9503,-0.9537,-0.9612,-0.9607,-0.9627,-0.964,-1.0058,-1.1663,-1.3759,-1.437,-1.5256,-1.5311,-1.5537,-1.6374,-1.756,-1.8402,-1.901,-1.9359,-1.9372,-1.9372,-1.9372,-1.9372,-1.9372,-1.9372,-1.9359,-1.9475,-1.9707,-2.0702,-2.1373,-2.2153,-2.2654,-2.2498,-2.2654,-2.4654,-2.6408,-2.7638,-2.8233,-2.832,-2.8301,-2.8301,-2.8408,-2.8708,-2.9911,-3.1542,-3.2986,-3.4341,-3.5015,-3.5494,-3.6307,-3.7474,-3.8517,-3.9617,-4.0056,-4.0284,0.0,0.0,0.0,0.0,0.0,0.0,0.0,0.0,0.0,0.0,0.0,0.0,0.0,0.0,0.0,0.0,0.0,0.0,0.0,0.0,0.0,0.0,0.0,0.0,0.0,0.0,0.0,0.0,0.0,0.0,0.0,0.0,0.0,0.0,0.0,0.0,0.0,0.0,0.0,0.0,0.0,0.0,-0.1024,-0.3411,-0.7064,-0.8897,-0.911,-0.9103,-0.9049,-0.8974,-0.8988,-0.9022,-0.9022,-0.8957,-0.8984,-0.9117,-0.9298,-0.938,-0.932,-0.9422,-0.953,-0.9652,-0.9686,-1.0201,-1.0521,-1.0407,-0.9774,-1.0236,-1.2577,-1.5069,-1.6295,-1.656,-1.722,-1.7806,-1.7923,-1.8286,-1.9243,-1.9372,-1.9372,-1.9372,-1.9372,-1.9372,-1.9372,-1.9372,-1.9372,-1.9475,-1.9924,-2.0371,-2.1586,-2.2589,-2.3599,-2.4582,-2.5121,-2.536,-2.5559,-2.6803,-2.8048,-2.8301,-2.8301,-2.8301,-2.8301,-2.8408,-2.8601,-3.0721,-3.2655,-3.4044,-3.5233,-3.5759,-3.6238,-3.7407,-3.8254,-3.9816,-4.0852,-4.1083,-4.131,0.0,0.0,0.0,0.0,0.0,0.0,0.0,0.0,0.0,0.0,0.0,0.0,0.0,0.0,0.0,0.0,0.0,0.0,0.0,0.0,0.0,0.0,0.0,0.0,0.0,0.0,0.0,0.0,0.0,0.0,0.0,0.0,0.0,0.0,0.0,0.0,0.0,0.0,0.0,0.0,0.0,0.0,-0.269,-0.7985,-0.9033,-0.9367,-0.9456,-0.9334,-0.9225,-0.9028,-0.911,-0.9164,-0.9191,-0.9063,-0.9109,-0.934,-0.9381,-0.9456,-0.9564,-0.9605,-0.9666,-0.9781,-1.0158,-1.0671,-1.2113,-1.1343,-1.0681,-1.0875,-1.347,-1.6216,-1.8189,-1.8114,-1.8064,-1.9037,-1.9153,-1.9256,-1.9399,-1.9412,-1.9439,-1.9426,-1.9399,-1.9386,-1.9502,-1.9604,-1.9965,-1.9924,-2.0931,-2.1813,-2.2702,-2.4044,-2.57,-2.6463,-2.6985,-2.7093,-2.7037,-2.7163,-2.8301,-2.8301,-2.8301,-2.8301,-2.8708,-2.89,-2.9723,-3.1847,-3.3598,-3.4993,-3.5763,-3.6168,-3.6445,-3.6769,-3.8306,-4.0584,-4.1733,-4.2048,-4.2228,0.0,0.0,0.0,0.0,0.0,0.0,0.0,0.0,0.0,0.0,0.0,0.0,0.0,0.0,0.0,0.0,0.0,0.0,0.0,0.0,0.0,0.0,0.0,0.0,0.0,0.0,0.0,0.0,0.0,0.0,0.0,0.0,0.0,0.0,0.0,0.0,0.0,0.0,0.0,-0.2503,-0.5676,-0.235,-0.3277,-0.8826,-0.9655,-0.9641,-0.962,-0.9497,-0.9361,-0.9286,-0.9293,-0.932,-0.9327,-0.9252,-0.9285,-0.9415,-0.9614,-0.9683,-0.9618,-0.9707,-0.9781,-0.993,-1.0899,-1.1736,-1.2346,-1.3039,-1.3241,-1.3827,-1.6194,-1.8307,-1.9168,-1.8972,-1.9115,-1.9495,-1.9546,-1.9492,-1.9639,-1.9548,-1.9417,-1.9417,-1.9417,-1.9469,-2.0089,-2.1234,-2.2055,-2.1591,-2.2312,-2.3631,-2.4445,-2.5151,-2.6608,-2.7384,-2.7941,-2.8067,-2.8174,-2.8174,-2.8301,-2.8301,-2.8301,-2.8447,-2.9237,-3.012,-3.1644,-3.3575,-3.4798,-3.6127,-3.6218,-3.6358,-3.6463,-3.6405,-3.8889,-4.1355,-4.248,-4.2966,-4.3086,0.0,0.0,0.0,0.0,0.0,0.0,0.0,0.0,0.0,0.0,0.0,0.0,0.0,0.0,0.0,0.0,0.0,0.0,0.0,0.0,0.0,0.0,0.0,0.0,0.0,0.0,0.0,0.0,0.0,0.0,0.0,0.0,0.0,0.0,0.0,0.0,0.0,0.0,0.0,-0.3147,-0.8809,-0.6226,-0.6217,-0.9354,-0.9822,-0.9808,-0.9808,-0.9689,-0.9517,-0.9429,-0.9435,-0.9476,-0.9483,-0.9537,-0.9564,-0.9571,-0.9772,-0.97,-0.9707,-0.9781,-1.0172,-1.0778,-1.1736,-1.2928,-1.3865,-1.4677,-1.4775,-1.6738,-1.8478,-1.9232,-1.9376,-1.9519,-1.9693,-1.9907,-1.9826,-1.98,-1.9973,-1.9854,-1.9707,-1.9707,-1.9561,-2.0159,-2.1349,-2.334,-2.3709,-2.355,-2.4168,-2.5259,-2.6095,-2.6628,-2.7225,-2.7949,-2.8379,-2.8272,-2.8379,-2.8398,-2.8917,-2.8917,-2.9728,-2.9581,-3.0308,-3.157,-3.2946,-3.4504,-3.5817,-3.6684,-3.6679,-3.6553,-3.6402,-3.7268,-3.9823,-4.2051,-4.3507,-4.4094,-4.4178,0.0,0.0,0.0,0.0,0.0,0.0,0.0,0.0,0.0,0.0,0.0,0.0,0.0,0.0,0.0,0.0,0.0,0.0,0.0,0.0,0.0,0.0,0.0,0.0,0.0,0.0,0.0,0.0,0.0,0.0,0.0,0.0,0.0,0.0,0.0,0.0,0.0,0.0,0.0,-0.4542,-0.897,-0.8945,-0.9054,-0.9418,-0.9781,-0.9774,-0.9781,-0.9781,-0.9693,-0.9442,-0.9557,-0.9618,-0.9646,-0.9754,-0.9795,-0.9788,-0.9788,-0.9923,-1.0051,-1.0286,-1.0899,-1.2217,-1.2689,-1.3775,-1.5935,-1.602,-1.6503,-1.8568,-1.9349,-1.9546,-1.9599,-1.9746,-2.0013,-2.0241,-2.0281,-2.0321,-2.0443,-2.0416,-2.0267,-2.0241,-1.9824,-2.1477,-2.3904,-2.5459,-2.5696,-2.5239,-2.6014,-2.6973,-2.7586,-2.7842,-2.8186,-2.8455,-2.8486,-2.8242,-2.8369,-2.8388,-2.9223,-2.9768,-3.1207,-3.17,-3.211,-3.3107,-3.41,-3.5356,-3.6699,-3.7086,-3.693,-3.6779,-3.6868,-3.9493,-4.2874,-4.4385,-4.5543,-4.5402,-4.5403,0.0,0.0,0.0,0.0,0.0,0.0,0.0,0.0,0.0,0.0,0.0,0.0,0.0,0.0,0.0,0.0,0.0,0.0,0.0,0.0,0.0,0.0,0.0,0.0,0.0,0.0,0.0,0.0,0.0,0.0,0.0,0.0,0.0,0.0,0.0,0.0,0.0,0.0,-0.4687,-0.7777,-0.8995,-0.9741,-0.9849,-0.9829,-0.9822,-0.9822,-0.9822,-0.9822,-0.9788,-0.9754,-0.9747,-0.9761,-0.9768,-0.9795,-0.9815,-1.0065,-1.0065,-1.0422,-1.1382,-1.1736,-1.2337,-1.3904,-1.5105,-1.6335,-1.7124,-1.7958,-1.852,-1.9442,-1.9773,-2.0,-2.004,-2.0307,-2.0577,-2.0698,-2.0983,-2.1479,-2.2196,-2.1273,-2.0481,-2.074,-2.1213,-2.2016,-2.5528,-2.8199,-2.8302,-2.7441,-2.7768,-2.8764,-2.9022,-2.9056,-2.903,-2.9023,-2.8855,-2.8687,-2.8965,-2.9372,-3.0526,-3.1345,-3.2556,-3.3759,-3.4198,-3.4894,-3.593,-3.6701,-3.7542,-3.766,-3.7501,-3.8359,-3.8804,-4.2412,-4.5405,-4.5989,-4.6441,-4.6447,-4.6868,0.0,0.0,0.0,0.0,0.0,0.0,0.0,0.0,0.0,0.0,0.0,0.0,0.0,0.0,0.0,0.0,0.0,0.0,0.0,0.0,0.0,0.0,0.0,0.0,0.0,0.0,0.0,0.0,0.0,0.0,0.0,0.0,0.0,0.0,-0.42,-0.4447,0.0,0.0,-0.7021,-0.9754,-0.9842,-0.9842,-0.9836,-0.9822,-0.9822,-0.9822,-0.9822,-0.9822,-0.9822,-0.9822,-0.9822,-0.9822,-0.9822,-0.9822,-1.0179,-1.0899,-1.1776,-1.2242,-1.3186,-1.3416,-1.4052,-1.5829,-1.6782,-1.7661,-1.8431,-1.9494,-1.9666,-1.9919,-2.0241,-2.0551,-2.0428,-2.0535,-2.0943,-2.1976,-2.2242,-2.2952,-2.387,-2.2305,-2.0725,-2.176,-2.3931,-2.6131,-2.8655,-3.0025,-3.02,-2.9122,-2.8765,-2.9618,-2.9521,-2.9536,-2.9512,-2.9394,-2.9172,-2.9172,-2.9603,-3.054,-3.2196,-3.3159,-3.4159,-3.5283,-3.6168,-3.686,-3.7735,-3.8241,-3.8439,-3.8405,-3.8512,-3.9544,-4.123,-4.439,-4.6609,-4.7073,-4.7431,-4.7537,-4.8084,0.0,0.0,0.0,0.0,0.0,0.0,0.0,0.0,0.0,0.0,0.0,0.0,0.0,0.0,0.0,0.0,0.0,0.0,0.0,0.0,0.0,0.0,0.0,0.0,0.0,0.0,0.0,0.0,0.0,0.0,0.0,0.0,0.0,-0.4462,-0.857,-0.9555,-0.8033,-0.639,-0.8244,-0.9849,-0.9829,-0.9822,-0.9822,-0.9822,-0.9822,-0.9822,-0.9822,-0.9822,-0.9822,-0.9822,-1.0065,-1.0179,-1.0058,-0.993,-1.0793,-1.2492,-1.4429,-1.5324,-1.5162,-1.5241,-1.5905,-1.7649,-1.7901,-1.8638,-1.985,-2.0051,-2.0225,-2.0401,-2.074,-2.1067,-2.108,-2.1383,-2.2224,-2.3346,-2.3931,-2.4778,-2.5465,-2.3703,-2.2759,-2.2778,-2.6077,-2.914,-2.9874,-3.0781,-3.0879,-3.0801,-3.0547,-3.0273,-3.0156,-3.0078,-2.998,-2.998,-2.9886,-3.0605,-3.1135,-3.219,-3.3768,-3.4667,-3.5795,-3.6637,-3.7628,-3.824,-3.8739,-3.8995,-3.914,-3.9303,-4.0044,-4.1354,-4.3526,-4.6424,-4.7377,-4.7542,-4.8019,-4.8521,-4.9313,0.0,0.0,0.0,0.0,0.0,0.0,0.0,0.0,0.0,0.0,0.0,0.0,0.0,0.0,0.0,0.0,0.0,0.0,0.0,0.0,0.0,0.0,0.0,0.0,0.0,0.0,0.0,0.0,0.0,0.0,0.0,0.0,-0.5161,-0.8937,-0.923,-0.9801,-0.9562,-0.8646,-0.9387,-0.9741,-0.9856,-0.9829,-0.9822,-0.9822,-0.9822,-0.9822,-0.9822,-0.9822,-0.9822,-0.9943,-1.102,-1.1623,-1.176,-1.0876,-1.1647,-1.4217,-1.7127,-1.8325,-1.7416,-1.7329,-1.8228,-1.9287,-1.9542,-1.9794,-2.0385,-2.0465,-2.0668,-2.1216,-2.1423,-2.1728,-2.2988,-2.3068,-2.3963,-2.5008,-2.5741,-2.6227,-2.7297,-2.6953,-2.5961,-2.5708,-2.8636,-3.0892,-3.0975,-3.0957,-3.0879,-3.0937,-3.0762,-3.0605,-3.0566,-3.0586,-3.0721,-3.076,-3.0703,-3.1896,-3.2964,-3.4161,-3.544,-3.6218,-3.7098,-3.7781,-3.8638,-3.9208,-3.9574,-3.9878,-4.0499,-4.1285,-4.2168,-4.3157,-4.4629,-4.6845,-4.7402,-4.786,-4.8683,-4.9509,-5.0197,0.0,0.0,0.0,0.0,0.0,0.0,0.0,0.0,0.0,0.0,0.0,0.0,0.0,0.0,0.0,0.0,0.0,0.0,0.0,0.0,0.0,0.0,0.0,0.0,0.0,0.0,0.0,0.0,0.0,0.0,0.0,-0.5766,-0.91,-1.0215,-1.0154,-1.0141,-1.0066,-1.0019,-0.9848,-0.9841,-0.9834,-0.9897,-0.9829,-0.9822,-0.9829,-0.9822,-0.9822,-0.9822,-1.0343,-1.1126,-1.1996,-1.3377,-1.4004,-1.3742,-1.3211,-1.5782,-1.8788,-2.0347,-1.9389,-1.9242,-1.9524,-2.0196,-2.0468,-2.0601,-2.0802,-2.0909,-2.1436,-2.3024,-2.3628,-2.3943,-2.4794,-2.4778,-2.5619,-2.6832,-2.7314,-2.8051,-2.9039,-2.9356,-2.8891,-2.831,-2.9804,-3.0858,-3.0898,-3.0937,-3.0898,-3.0898,-3.0898,-3.0898,-3.0898,-3.1112,-3.1325,-3.1782,-3.195,-3.2972,-3.4469,-3.6018,-3.6796,-3.7501,-3.8218,-3.8896,-3.9519,-4.0058,-4.044,-4.0789,-4.1762,-4.2834,-4.361,-4.4287,-4.5754,-4.6929,-4.7426,-4.8177,-4.9563,-5.0533,-5.1124,0.0,0.0,0.0,0.0,0.0,0.0,0.0,0.0,0.0,0.0,0.0,0.0,0.0,0.0,0.0,0.0,0.0,0.0,0.0,0.0,0.0,0.0,0.0,0.0,0.0,0.0,0.0,0.0,0.0,0.0,0.0,-0.8178,-1.0405,-1.0621,-1.0438,-1.0263,-1.0362,-1.0181,-1.012,-0.9988,-0.9968,-0.9875,-0.9787,-0.9787,-0.991,-1.0053,-1.0804,-1.0681,-1.1701,-1.2759,-1.3778,-1.5054,-1.7054,-1.653,-1.6187,-1.726,-1.9685,-2.0563,-2.0617,-2.0454,-2.0328,-2.0748,-2.0762,-2.102,-2.1436,-2.1575,-2.195,-2.4549,-2.671,-2.6561,-2.6399,-2.6453,-2.7314,-2.8426,-2.9039,-2.9294,-3.0157,-3.0509,-3.0509,-3.0353,-3.0898,-3.1015,-3.1132,-3.0898,-3.0898,-3.0898,-3.0898,-3.0898,-3.0995,-3.1652,-3.2052,-3.2868,-3.3454,-3.4186,-3.5808,-3.7893,-3.82,-3.8372,-3.8896,-3.9544,-4.0236,-4.0844,-4.1319,-4.1887,-4.3026,-4.4163,-4.472,-4.536,-4.6403,-4.7279,-4.7628,-4.8454,-4.9864,-5.0858,-5.1508,0.0,0.0,0.0,0.0,0.0,0.0,0.0,0.0,0.0,0.0,0.0,0.0,0.0,0.0,0.0,0.0,0.0,0.0,0.0,0.0,0.0,0.0,0.0,0.0,0.0,0.0,0.0,0.0,0.0,0.0,0.0,-0.9502,-1.0658,-1.0603,-1.0385,-1.0365,-1.0276,-1.027,-1.0263,-1.0129,-0.9856,-0.9823,-0.981,-0.9936,-1.0447,-1.1321,-1.2674,-1.2781,-1.343,-1.4948,-1.6451,-1.7334,-1.8018,-1.9063,-1.9385,-1.9918,-2.0518,-2.1037,-2.1034,-2.0909,-2.1159,-2.1227,-2.1267,-2.1937,-2.2616,-2.2262,-2.1982,-2.1596,-2.6499,-2.9034,-2.7984,-2.7896,-2.8902,-2.9766,-3.0274,-3.0392,-3.0898,-3.0898,-3.0898,-3.0937,-3.0917,-3.1228,-3.1384,-3.1151,-3.0898,-3.0898,-3.0898,-3.0995,-3.1556,-3.253,-3.3417,-3.4361,-3.5346,-3.6079,-3.6684,-3.8859,-3.9223,-3.9154,-3.975,-4.0262,-4.0945,-4.169,-4.2447,-4.3218,-4.4349,-4.491,-4.5158,-4.5843,-4.6929,-4.7684,-4.8286,-4.9159,-5.0214,-5.107,-5.1849,0.0,0.0,0.0,0.0,0.0,0.0,0.0,0.0,0.0,0.0,0.0,0.0,0.0,0.0,0.0,0.0,0.0,0.0,0.0,0.0,0.0,0.0,0.0,0.0,0.0,0.0,-0.3885,0.0,-0.6034,-0.6027,-0.8286,-0.9871,-1.0656,-1.0629,-1.0521,-1.0527,-1.0534,-1.0534,-1.0514,-1.0439,-1.0324,-1.0149,-1.0149,-1.041,-1.2218,-1.3762,-1.4518,-1.4683,-1.5347,-1.6772,-1.7948,-1.8665,-1.9549,-2.0315,-2.0645,-2.0645,-2.0922,-2.1115,-2.1069,-2.1096,-2.1601,-2.2341,-2.2591,-2.3311,-2.4363,-2.4452,-2.4948,-2.673,-2.9112,-3.0162,-2.9724,-2.9747,-3.0138,-3.0645,-3.0898,-3.0995,-3.0995,-3.0898,-3.0879,-3.0917,-3.109,-3.1862,-3.2465,-3.2432,-3.214,-3.1556,-3.1998,-3.2436,-3.3304,-3.4626,-3.5485,-3.6356,-3.7252,-3.8178,-3.846,-3.9436,-3.9565,-3.9672,-4.0516,-4.1119,-4.169,-4.2447,-4.3409,-4.4442,-4.5598,-4.5902,-4.561,-4.6137,-4.7156,-4.8103,-4.8955,-5.0232,-5.1383,-5.1369,-5.217,0.0,0.0,0.0,0.0,0.0,0.0,0.0,0.0,0.0,0.0,0.0,0.0,0.0,0.0,0.0,0.0,0.0,0.0,0.0,0.0,-0.1749,0.0,0.0,0.0,0.0,-0.2672,-0.7379,-0.9546,-1.0073,-1.0339,-1.006,-1.0744,-1.0711,-1.0704,-1.0711,-1.069,-1.0683,-1.0677,-1.0551,-1.0588,-1.0582,-1.0513,-1.0507,-1.1667,-1.3743,-1.635,-1.6992,-1.6527,-1.72,-1.8674,-1.9111,-1.9839,-2.0763,-2.0903,-2.1002,-2.1254,-2.1923,-2.2745,-2.2606,-2.2452,-2.2702,-2.3683,-2.464,-2.5237,-2.5626,-2.6523,-2.7744,-2.9974,-3.0443,-3.0878,-3.084,-3.0762,-3.0762,-3.0782,-3.0898,-3.1112,-3.1441,-3.1652,-3.1411,-3.0937,-3.1697,-3.3572,-3.3947,-3.3955,-3.3549,-3.2612,-3.2871,-3.362,-3.4936,-3.6379,-3.7026,-3.769,-3.8323,-3.9158,-3.9415,-3.9697,-3.98,-4.0364,-4.1219,-4.2181,-4.293,-4.3882,-4.484,-4.5869,-4.6726,-4.6778,-4.645,-4.6856,-4.7347,-4.8162,-4.9278,-5.1411,-5.2524,-5.2428,-5.2664,0.0,0.0,0.0,0.0,0.0,0.0,0.0,0.0,0.0,0.0,0.0,0.0,0.0,0.0,0.0,0.0,0.0,0.0,0.0,0.0,-0.6065,-0.8381,-0.7828,-0.6589,-0.6427,-0.8701,-1.0478,-1.0605,-1.0731,-1.0731,-1.0724,-1.0717,-1.0724,-1.0717,-1.0717,-1.0717,-1.0711,-1.0704,-1.0836,-1.0829,-1.0747,-1.0706,-1.0946,-1.2011,-1.441,-1.7356,-2.0336,-1.9103,-1.8764,-2.0498,-2.0485,-2.0863,-2.1335,-2.1182,-2.1101,-2.1479,-2.4331,-2.537,-2.552,-2.4317,-2.4409,-2.5619,-2.6936,-2.7364,-2.7106,-2.9183,-3.0528,-3.084,-3.0898,-3.123,-3.1035,-3.1015,-3.1344,-3.1787,-3.2113,-3.2436,-3.2758,-3.2964,-3.2538,-3.1318,-3.2217,-3.4384,-3.6351,-3.647,-3.5089,-3.4155,-3.4515,-3.5398,-3.6379,-3.769,-3.8243,-3.8816,-3.9258,-3.9672,-3.9775,-4.0134,-4.0924,-4.1498,-4.2279,-4.3409,-4.4535,-4.5417,-4.6077,-4.6609,-4.7219,-4.7317,-4.7485,-4.7865,-4.8221,-4.8524,-4.974,-5.2072,-5.329,-5.3312,-5.3715,0.0,0.0,0.0,0.0,0.0,0.0,0.0,0.0,0.0,0.0,0.0,0.0,0.0,0.0,0.0,0.0,0.0,0.0,0.0,-0.6065,-0.9472,-1.0564,-1.0002,-0.9698,-0.9389,-1.0459,-1.0731,-1.0731,-1.0724,-1.0717,-1.0717,-1.0717,-1.0717,-1.0717,-1.0717,-1.0843,-1.0822,-1.1059,-1.1578,-1.1972,-1.0836,-1.1084,-1.2686,-1.7239,-1.7821,-1.9579,-2.0772,-2.04,-2.0615,-2.0969,-2.1235,-2.1727,-2.2298,-2.1728,-2.1562,-2.2176,-2.6182,-2.827,-2.8318,-2.6709,-2.5863,-2.7331,-2.8902,-2.9592,-2.87,-3.0334,-3.0762,-3.0898,-3.1132,-3.1656,-3.3341,-3.2924,-3.2644,-3.3212,-3.3642,-3.3754,-3.4069,-3.4403,-3.4648,-3.3857,-3.427,-3.5557,-3.7512,-3.9242,-3.7402,-3.5795,-3.6402,-3.7026,-3.7926,-3.8582,-3.9025,-3.9287,-3.9597,-4.0058,-4.0262,-4.1123,-4.2186,-4.2636,-4.3286,-4.4349,-4.5508,-4.6344,-4.6901,-4.7452,-4.7758,-4.7926,-4.827,-4.8702,-4.9432,-5.0422,-5.1564,-5.3157,-5.3855,-5.4083,-5.4648,0.0,0.0,0.0,0.0,0.0,0.0,0.0,0.0,0.0,0.0,0.0,0.0,0.0,0.0,0.0,0.0,0.0,0.0,0.0,-0.7957,-0.9582,-1.0538,-1.0658,-1.0632,-1.0326,-1.0724,-1.0717,-1.0717,-1.0717,-1.0717,-1.0717,-1.0717,-1.0717,-1.0717,-1.085,-1.124,-1.119,-1.125,-1.271,-1.4456,-1.3717,-1.3139,-1.4752,-1.9782,-2.0657,-2.0719,-2.1216,-2.1389,-2.1853,-2.223,-2.2495,-2.3076,-2.3222,-2.3212,-2.32,-2.5198,-2.7712,-3.0806,-3.0162,-2.9324,-2.7931,-2.9157,-3.002,-3.0645,-3.0898,-3.0879,-3.0976,-3.1011,-3.1632,-3.3163,-3.5332,-3.4354,-3.3979,-3.4425,-3.4626,-3.4847,-3.5508,-3.5945,-3.6487,-3.654,-3.7098,-3.7426,-3.804,-3.9735,-3.9167,-3.7713,-3.795,-3.8372,-3.8816,-3.9258,-3.9465,-3.9572,-3.9651,-4.0209,-4.0759,-4.2753,-4.4263,-4.3626,-4.4265,-4.5115,-4.6166,-4.6989,-4.7679,-4.8072,-4.8419,-4.8711,-4.911,-4.9588,-5.1075,-5.2858,-5.378,-5.4396,-5.435,-5.4614,-5.5273,0.0,0.0,0.0,0.0,0.0,0.0,0.0,0.0,0.0,0.0,0.0,0.0,0.0,0.0,0.0,0.0,-0.8097,-0.9052,-0.8907,-0.7932,-0.9692,-1.0512,-1.0772,-1.0751,-1.0724,-1.0724,-1.0717,-1.0717,-1.0717,-1.0717,-1.0717,-1.1247,-1.1644,-1.1372,-1.0982,-1.2413,-1.2319,-1.156,-1.4401,-1.7012,-1.8372,-1.6883,-1.8372,-2.0042,-2.1765,-2.209,-2.2328,-2.2995,-2.345,-2.3574,-2.4533,-2.4933,-2.4711,-2.527,-2.6576,-2.9554,-3.0125,-3.0876,-3.082,-3.0665,-3.0626,-3.0509,-3.0762,-3.0859,-3.0859,-3.0937,-3.0971,-3.1017,-3.3409,-3.4999,-3.558,-3.5311,-3.553,-3.5836,-3.6054,-3.6271,-3.7156,-3.7477,-3.7926,-3.8137,-3.8921,-3.9569,-3.9519,-3.98,-4.0006,-3.9622,-3.9672,-3.9697,-3.98,-4.0083,-4.016,-4.0032,-4.0055,-4.0893,-4.2054,-4.5021,-4.6309,-4.5551,-4.5306,-4.6167,-4.7016,-4.7873,-4.8377,-4.8759,-4.9362,-4.9955,-5.0176,-5.0406,-5.2357,-5.4262,-5.4888,-5.532,-5.5088,-5.5203,-5.5984,0.0,0.0,0.0,0.0,0.0,0.0,0.0,0.0,0.0,0.0,0.0,0.0,0.0,0.0,0.0,-0.4166,-0.9722,-1.0678,-0.9297,-0.9267,-1.0212,-1.0478,-1.0744,-1.0731,-1.0717,-1.0717,-1.0717,-1.0717,-1.0717,-1.0711,-1.2452,-1.3524,-1.3875,-1.3456,-1.3193,-1.3962,-1.454,-1.4585,-1.6476,-1.8688,-2.0706,-1.9941,-1.9763,-2.1176,-2.2972,-2.4033,-2.4283,-2.5167,-2.5146,-2.5269,-2.6222,-2.6349,-2.6422,-2.7123,-2.8336,-3.0409,-3.0937,-3.0898,-3.1228,-3.1441,-3.1767,-3.1441,-3.1228,-3.1206,-3.0968,-3.0908,-3.0857,-3.2155,-3.5513,-3.7269,-3.8251,-3.7214,-3.718,-3.8161,-3.8477,-3.8582,-3.8921,-3.8921,-3.9129,-3.9154,-3.9697,-4.0109,-4.0209,-4.1093,-4.1445,-4.1172,-4.1097,-4.0287,-4.0185,-4.0743,-4.1093,-4.0728,-4.0788,-4.1597,-4.3062,-4.5652,-4.7369,-4.6993,-4.6842,-4.7189,-4.7958,-4.8759,-4.9296,-4.9773,-5.053,-5.1255,-5.1333,-5.1899,-5.3905,-5.5444,-5.5953,-5.6162,-5.607,-5.6204,-5.6721,0.0,0.0,0.0,0.0,0.0,0.0,0.0,0.0,0.0,-0.121,0.0,0.0,0.0,0.0,-0.3084,-0.5232,-1.0658,-1.0652,-1.0638,-1.0744,-1.0744,-1.0738,-1.0724,-1.0717,-1.0717,-1.0717,-1.0717,-1.0711,-1.067,-1.0677,-1.3367,-1.6457,-1.7033,-1.6193,-1.5784,-1.6291,-1.7172,-1.7629,-1.9127,-1.9814,-2.0843,-2.0903,-2.0962,-2.202,-2.3882,-2.6331,-2.7136,-2.7244,-2.6832,-2.6953,-2.7434,-2.7896,-2.8455,-2.8947,-2.9456,-3.049,-3.2044,-3.2024,-3.2268,-3.3077,-3.3304,-3.2871,-3.2436,-3.1921,-3.1595,-3.1993,-3.3437,-3.5154,-3.7793,-3.8838,-3.9357,-3.8315,-3.8631,-3.9594,-3.9672,-3.9672,-3.9672,-3.9672,-3.9676,-3.9803,-4.0185,-4.0608,-4.1629,-4.2366,-4.3259,-4.2873,-4.2413,-4.167,-4.1045,-4.1591,-4.2252,-4.1957,-4.1896,-4.2582,-4.3821,-4.5718,-4.7258,-4.8183,-4.834,-4.824,-4.9166,-4.9931,-5.032,-5.0855,-5.1678,-5.2327,-5.2472,-5.3425,-5.5518,-5.6553,-5.6886,-5.7009,-5.6948,-5.7152,-5.7401,0.0,0.0,0.0,0.0,0.0,0.0,0.0,0.0,0.0,-0.4305,-0.9576,-0.2952,0.0,0.0,-0.7388,-1.0105,-1.0492,-1.0758,-1.0744,-1.0731,-1.0724,-1.0724,-1.0724,-1.0717,-1.0717,-1.0717,-1.0704,-1.0663,-1.0747,-1.2743,-1.6004,-1.9006,-1.9004,-1.8652,-1.8628,-1.9,-1.9624,-2.0093,-2.0777,-2.1015,-2.1186,-2.1078,-2.1976,-2.3316,-2.5594,-2.7957,-2.9016,-2.9232,-2.8618,-2.892,-2.9785,-3.0392,-3.0762,-3.0898,-3.0898,-3.1752,-3.3684,-3.3763,-3.3706,-3.4626,-3.5178,-3.4958,-3.5288,-3.3769,-3.2873,-3.3595,-3.517,-3.7049,-3.9275,-3.9396,-3.9461,-3.9411,-3.949,-3.98,-3.9878,-3.9981,-3.9981,-4.0033,-3.9955,-4.0253,-4.0848,-4.1887,-4.459,-4.5572,-4.4862,-4.4911,-4.4603,-4.4125,-4.3504,-4.3122,-4.3571,-4.361,-4.3529,-4.3715,-4.5109,-4.6783,-4.794,-4.9264,-4.9159,-4.9215,-5.0165,-5.108,-5.1492,-5.207,-5.2907,-5.3443,-5.3721,-5.5085,-5.7137,-5.7768,-5.7592,-5.7533,-5.7351,-5.7583,-5.7821,0.0,0.0,-0.5534,-0.7569,-0.7286,-0.4836,-0.5245,-0.7435,-0.7564,-0.7957,-0.6853,-0.7531,-0.6844,-0.8041,-0.9813,-1.0478,-1.0738,-1.0731,-1.0731,-1.0724,-1.0717,-1.0717,-1.0717,-1.0717,-1.0717,-1.0697,-1.0802,-1.13,-1.2334,-1.4716,-1.7927,-2.0554,-2.054,-2.0956,-2.156,-2.2048,-2.1714,-2.1811,-2.2381,-2.2448,-2.1878,-2.1723,-2.3657,-2.6638,-2.8179,-3.0017,-3.02,-3.0386,-3.0039,-3.0274,-3.0645,-3.0898,-3.0898,-3.1015,-3.1112,-3.255,-3.4086,-3.5069,-3.498,-3.6054,-3.6811,-3.7156,-3.7607,-3.672,-3.5413,-3.5222,-3.6944,-3.8599,-3.971,-3.9744,-4.0107,-4.0185,-4.0313,-4.0465,-4.0642,-4.1045,-4.1119,-4.1439,-4.132,-4.1063,-4.1666,-4.4069,-4.6766,-4.7049,-4.6491,-4.6845,-4.6845,-4.6403,-4.5929,-4.5421,-4.5149,-4.5183,-4.5227,-4.5286,-4.6646,-4.8263,-4.9241,-5.0089,-5.0058,-5.032,-5.1155,-5.196,-5.2597,-5.3347,-5.4092,-5.464,-5.5076,-5.6557,-5.7919,-5.7996,-5.7847,-5.781,-5.7821,-5.8006,-5.8186,-0.2148,-0.2687,-0.674,-0.9326,-1.0277,-0.8483,-0.8901,-1.0571,-1.0699,-0.9303,-0.7912,-0.9552,-1.0772,-1.0339,-1.0605,-1.0731,-1.0724,-1.0724,-1.0724,-1.0724,-1.0717,-1.0717,-1.0717,-1.0711,-1.067,-1.0913,-1.1957,-1.3552,-1.5115,-1.7871,-2.1115,-2.1102,-2.1502,-2.2606,-2.3311,-2.39,-2.4009,-2.3841,-2.3978,-2.4515,-2.4389,-2.3793,-2.6661,-2.9619,-3.0853,-3.0876,-3.0936,-3.0957,-3.0918,-3.0898,-3.0898,-3.0897,-3.1767,-3.2789,-3.3515,-3.4979,-3.6109,-3.6587,-3.6557,-3.7583,-3.8137,-3.8582,-3.9129,-3.854,-3.7927,-3.7484,-3.8411,-3.9362,-3.9722,-3.9954,-4.0492,-4.0924,-4.1023,-4.1219,-4.1789,-4.2279,-4.2641,-4.3026,-4.2779,-4.2296,-4.3673,-4.6014,-4.7435,-4.7658,-4.8049,-4.8255,-4.8508,-4.8656,-4.8034,-4.7528,-4.7156,-4.707,-4.6954,-4.6936,-4.8333,-4.9567,-5.0831,-5.1436,-5.1199,-5.1549,-5.2241,-5.3078,-5.3741,-5.4522,-5.5248,-5.5615,-5.5841,-5.6912,-5.7996,-5.8024,-5.8223,-5.843,-5.8393,-5.8369,-5.8503,-0.577,-0.5767,-0.5767,-0.8066,-1.0531,-1.0525,-1.0525,-1.0665,-1.0665,-1.0638,-1.0465,-1.0611,-1.0744,-1.0724,-1.0724,-1.0724,-1.0717,-1.0717,-1.0717,-1.0717,-1.0717,-1.0857,-1.1262,-1.0975,-1.103,-1.1635,-1.3198,-1.5634,-1.9646,-2.1751,-2.2342,-2.1628,-2.2952,-2.4178,-2.4778,-2.5741,-2.6111,-2.6628,-2.6867,-2.7401,-2.8715,-2.8397,-2.7771,-3.0168,-3.0858,-3.0918,-3.0918,-3.0995,-3.1112,-3.1112,-3.1401,-3.1566,-3.3191,-3.5848,-3.6824,-3.7014,-3.781,-3.8166,-3.8104,-3.8687,-3.944,-3.9672,-3.9878,-3.9625,-3.917,-3.8863,-3.9295,-3.9804,-4.0159,-4.1272,-4.1974,-4.202,-4.211,-4.2544,-4.3122,-4.3504,-4.3787,-4.4228,-4.4584,-4.4338,-4.5078,-4.7257,-4.8304,-4.86,-4.8625,-4.921,-4.9613,-4.9962,-4.9931,-4.9264,-4.9023,-4.8779,-4.86,-4.8451,-4.9075,-5.0466,-5.2366,-5.291,-5.25,-5.2627,-5.3281,-5.4132,-5.4964,-5.5653,-5.6188,-5.6237,-5.6609,-5.7462,-5.8014,-5.815,-5.8412,-5.9008,-5.9092,-5.8982,-5.899,-0.9436,-0.9436,-0.9413,-0.9946,-1.0625,-1.0751,-1.0744,-1.0738,-1.0738,-1.0738,-1.0724,-1.0724,-1.0724,-1.0724,-1.0717,-1.0717,-1.0717,-1.0717,-1.0717,-1.085,-1.085,-1.1799,-1.2484,-1.27,-1.2057,-1.2102,-1.406,-1.7546,-2.0729,-2.2972,-2.4719,-2.4813,-2.5413,-2.5757,-2.6729,-2.7554,-2.8235,-2.8991,-2.9356,-2.945,-3.0252,-3.0526,-3.0411,-3.0879,-3.1015,-3.1268,-3.148,-3.2113,-3.2436,-3.2644,-3.3754,-3.4115,-3.4516,-3.7831,-3.8479,-3.775,-3.8729,-3.9357,-3.9515,-3.975,-4.0338,-4.0945,-4.1015,-4.0494,-4.0063,-3.9796,-4.005,-4.0478,-4.138,-4.2652,-4.3341,-4.3232,-4.3313,-4.3882,-4.4349,-4.4627,-4.4932,-4.5512,-4.6108,-4.6491,-4.6986,-4.794,-4.9026,-4.9459,-4.9452,-4.9647,-5.0041,-5.0397,-5.0779,-5.0595,-5.0595,-5.0365,-5.0055,-5.0077,-5.0413,-5.1415,-5.3398,-5.4023,-5.3719,-5.3977,-5.4328,-5.5119,-5.5984,-5.6527,-5.7043,-5.6988,-5.7145,-5.7591,-5.806,-5.8159,-5.8942,-5.9666,-5.9995,-5.9949,-5.9853,-1.0772,-1.0765,-1.0744,-1.0738,-1.0738,-1.0724,-1.0717,-1.0717,-1.0717,-1.0717,-1.0717,-1.0717,-1.0717,-1.0717,-1.0717,-1.0717,-1.0717,-1.0717,-1.1372,-1.163,-1.2033,-1.312,-1.3779,-1.4426,-1.4123,-1.4015,-1.6658,-1.9726,-2.1491,-2.4268,-2.6059,-2.7484,-2.7713,-2.7572,-2.8545,-2.9039,-2.9903,-3.0762,-3.0879,-3.1053,-3.109,-3.0994,-3.0879,-3.1015,-3.1908,-3.2432,-3.308,-3.3678,-3.3866,-3.4183,-3.4736,-3.5699,-3.6287,-3.8403,-3.9192,-3.9228,-3.98,-4.0745,-4.0668,-4.1045,-4.1518,-4.2181,-4.2447,-4.1989,-4.1977,-4.1947,-4.293,-4.3437,-4.4277,-4.5532,-4.5222,-4.5089,-4.511,-4.557,-4.5869,-4.6166,-4.6256,-4.6486,-4.6826,-4.696,-4.7843,-4.9116,-5.0074,-5.0589,-5.0703,-5.1005,-5.1229,-5.1631,-5.1921,-5.1927,-5.196,-5.1861,-5.1546,-5.1678,-5.2113,-5.3043,-5.4395,-5.478,-5.4876,-5.5214,-5.5588,-5.6259,-5.6964,-5.7364,-5.7617,-5.774,-5.7876,-5.8054,-5.7983,-5.8013,-5.9138,-6.0396,-6.0697,-6.1065,-6.1182,-1.0724,-1.0717,-1.0717,-1.0717,-1.0717,-1.0717,-1.0717,-1.0717,-1.0717,-1.0717,-1.0717,-1.0717,-1.0717,-1.0717,-1.0717,-1.0717,-1.1122,-1.2056,-1.27,-1.2931,-1.3447,-1.466,-1.5613,-1.6124,-1.6188,-1.7241,-1.9348,-2.0289,-2.1204,-2.4964,-2.8376,-3.0139,-2.9721,-2.8783,-2.9157,-2.9903,-3.0898,-3.0859,-3.1053,-3.1667,-3.1492,-3.1202,-3.1011,-3.1862,-3.3485,-3.5241,-3.5647,-3.5624,-3.5685,-3.5831,-3.6102,-3.6921,-3.7676,-3.8995,-3.9594,-4.0083,-4.0974,-4.1623,-4.2039,-4.2544,-4.3122,-4.3693,-4.3693,-4.3826,-4.3752,-4.4321,-4.5303,-4.5952,-4.6835,-4.7079,-4.6774,-4.6576,-4.6698,-4.7103,-4.7392,-4.7679,-4.7745,-4.7546,-4.7466,-4.7619,-4.9094,-5.048,-5.1167,-5.1655,-5.1921,-5.2208,-5.2664,-5.3213,-5.3517,-5.3382,-5.3314,-5.3209,-5.2938,-5.3207,-5.3379,-5.4377,-5.5417,-5.5959,-5.6094,-5.6454,-5.6773,-5.7116,-5.7546,-5.7886,-5.812,-5.819,-5.8178,-5.8269,-5.8166,-5.8377,-6.0122,-6.1635,-6.1984,-6.2333,-6.2657,-1.0717,-1.0717,-1.0717,-1.0717,-1.0717,-1.0717,-1.0717,-1.0717,-1.0717,-1.0717,-1.0717,-1.0717,-1.0717,-1.0717,-1.0717,-1.0982,-1.1901,-1.3244,-1.3498,-1.3464,-1.4884,-1.6462,-1.7507,-1.8011,-1.8879,-2.0052,-2.101,-2.1163,-2.3337,-2.7488,-3.0017,-3.0811,-3.0779,-3.0274,-3.0392,-3.0995,-3.1092,-3.0994,-3.1876,-3.2633,-3.515,-3.4146,-3.1268,-3.2043,-3.3766,-3.6314,-3.7809,-3.7557,-3.7274,-3.7429,-3.8016,-3.8644,-3.9415,-4.0056,-4.0797,-4.1398,-4.2297,-4.2831,-4.3328,-4.3815,-4.4256,-4.5024,-4.5115,-4.5389,-4.5602,-4.6078,-4.6698,-4.6785,-4.7318,-4.7555,-4.7431,-4.7285,-4.7336,-4.8346,-4.8841,-4.9215,-4.941,-4.8624,-4.8044,-4.9423,-5.1141,-5.1987,-5.2547,-5.2782,-5.2594,-5.2941,-5.3348,-5.3881,-5.4328,-5.4482,-5.4606,-5.4383,-5.4216,-5.3801,-5.3563,-5.5024,-5.6104,-5.6709,-5.7171,-5.7268,-5.7413,-5.769,-5.8051,-5.8683,-5.8632,-5.8495,-5.8502,-5.861,-5.9265,-5.9792,-6.1614,-6.2968,-6.3269,-6.3438,-6.3641]}]]